     2              OBSERVATION DATA    GPS                 RINEX VERSION / TYPE
ASRINEXO V2.4.4 UX USGS 20-MAY-96 12:15                     PGM / RUN BY / DATE
                                                            COMMENT
Contact: kwendt@isdmnl.wr.usgs.gov (Ph: 415-329-4866)       COMMENT
Contact: kwendt@isdmnl.wr.usgs.gov (Ph: 415-329-4866)       COMMENT
Contact: kwendt@isdmnl.wr.usgs.gov (Ph: 415-329-4866)       COMMENT
Contact: kwendt@isdmnl.wr.usgs.gov (Ph: 415-329-4866)       COMMENT
Original Marker Name: rh32 Red_Hill_1932_USC&GS             COMMENT
Campaign Name: USGS Parkfield                               COMMENT
4-Character Station Name: RH32                              COMMENT
6-Character Antenna Code: ASHGD3                            COMMENT
Vertical Measurement Point: EGP                             COMMENT
Vertical Offset to Rinex Ref. Point: 0.0594                 COMMENT
Radial Measurement Point: EGP                               COMMENT
Radial Offset to Rinex Ref. Point: 0.1837                   COMMENT
Antenna Height from Field Measurement: 1.3850 m             COMMENT
Additional Antenna Identification Info.:                    COMMENT
The Whopper (700718AB)                                      COMMENT
Original XYZ: -2616321.3600 -4484721.8100 3693174.0300      COMMENT
New XYZ position is based on association with SCEC monument COMMENT
E1F1D7I9+0011. Position of that monument is believed to be  COMMENT
valid to within 1 m horizontally; vertical accuracy         COMMENT
should be no worse than 3-times this value.                 COMMENT
                                                            COMMENT
Revised Rinex header created by UCSD GPS archive for        COMMENT
GSAC on 08-Jul-2000 (2000:190) 02:06:22 GMT                 COMMENT
For assistance contact dagnew@ucsd.edu                      COMMENT
or anderson@python.ucsd.edu                                 COMMENT
                                                            COMMENT
RED HILL 1932                                               MARKER NAME
CHS US GEOLOGICAL SURVEY                                    OBSERVER / AGENCY
141 ASHTECH Z-XII3 1F00                                     REC # / TYPE / VERS
416 ASHTECH GEODETIC III                                    ANT # / TYPE
 -2616550.6533 -4484767.4332  3693079.8275                  APPROX POSITION XYZ
        1.3134        0.0000        0.0000                  ANTENNA: DELTA H/E/N
     1     1     0                                          WAVELENGTH FACT L1/2
     5    C1    L1    L2    P1    P2                        # / TYPES OF OBSERV
    30                                                      INTERVAL
  1996     5     9     0     0   30.000000                  TIME OF FIRST OBS
  1996     5     9    21    29   60.000000                  TIME OF LAST OBS
                                                            END OF HEADER
 96  5  9  0  0 29.9880000  0  6  5  6 24 20 16 17
  18318832.239   -34868913.64949 -26434974.73149  18318835.2794   18318841.4414
  17420724.670   -34119953.49749 -26568841.92649  17420727.4694   17420732.1104
  20065909.599   -25245935.35449 -18761976.47549  20065913.4774   20065919.8264
  17060915.212   -36746438.64849 -28620554.29349  17060917.5274   17060923.1474
  17565054.959    -1280293.89149   -988720.84449  17565057.5524   17565063.2704
  19538045.322   -19254425.40749 -14373019.02449  19538049.4214   19538056.5584
 96  5  9  0  0 59.9880000  0  6  5  6 24 20 16 17
  18331710.305   -34801241.06149 -26382242.88849  18331712.9654   18331719.3644
  17408131.746   -34186129.74649 -26620407.82149  17408134.3054   17408139.2384
  20077489.752   -25185082.07749 -18714558.37249  20077493.3824   20077499.0134
  17064048.430   -36729972.72449 -28607723.72649  17064050.9374   17064056.3774
  17562942.677    -1291393.12449   -997369.59249  17562945.4874   17562951.2054
  19519177.660   -19353580.60649 -14450282.75449  19519180.3824   19519187.9584
 96  5  9  0  1 29.9880000  0  6  5  6 24 20 16 17
  18344656.617   -34733206.86249 -26329229.27749  18344659.8174   18344666.0124
  17395578.810   -34252092.80949 -26671807.59849  17395582.0794   17395587.0934
  20089077.518   -25124192.41849 -18667111.92349  20089079.7664   20089086.5274
  17067294.800   -36712912.70349 -28594430.22549  17067297.5164   17067302.9544
  17560947.659    -1301879.28849  -1005540.62749  17560949.9734   17560955.8774
  19500354.416   -19452493.88949 -14527357.98249  19500358.0224   19500364.2884
 96  5  9  0  1 59.9880000  0  6  5  6 24 20 16 17
  18357671.923   -34664815.20649 -26275937.12149  18357673.9364   18357680.5744
  17383067.558   -34317839.59149 -26723038.84849  17383070.6904   17383075.6784
  20100672.174   -25063258.48849 -18619630.97349  20100674.9144   20100681.3504
  17070649.499   -36695284.42849 -28580693.93049  17070651.8824   17070657.6134
  17559069.352    -1311749.05049  -1013231.34549  17559071.8704   17559077.5224
  19481578.011   -19551163.46849 -14604243.30549  19481581.0484   19481588.3614
 96  5  9  0  2 29.9880000  0  6  5  6 24 20 16 17
  18370755.908   -34596055.80849 -26222358.42449  18370758.7364   18370764.8574
  17370600.342   -34383357.22349 -26774091.53649  17370603.1094   17370608.0024
  20112274.647   -25002288.49049 -18572121.92249  20112277.6834   20112283.5614
  17074113.678   -36677078.05049 -28566507.16849  17074116.3774   17074122.0654
  17557308.611    -1321002.88449  -1020442.12149  17557311.1154   17557316.3984
  19462852.527   -19649567.38949 -14680921.63449  19462855.2254   19462862.3814
 96  5  9  0  2 59.9880000  0  6  5  6 24 20 16 17
  18383911.648   -34526920.24949 -26168486.61249  18383914.9164   18383920.5084
  17358176.861   -34448640.60649 -26824961.69649  17358180.0274   17358185.2254
  20123883.100   -24941277.62449 -18524581.02149  20123887.3564   20123893.3054
  17077694.281   -36658264.82149 -28551847.53049  17077696.3964   17077702.1634
  17555666.182    -1329634.85449  -1027168.32649  17555668.4484   17555674.0894
  19444179.023   -19747698.12849 -14757387.09149  19444182.1444   19444189.1374
 96  5  9  0  3 29.9880000  0  6  5  6 24 20 16 17
  18397137.061   -34457425.64949 -26114335.02349  18397139.1154   18397145.2384
  17345795.144   -34513707.81949 -26875663.40849  17345798.1394   17345803.3514
  20135500.304   -24880235.16249 -18477015.50349  20135503.3944   20135508.9124
  17081385.784   -36638864.92149 -28536730.74949  17081387.9004   17081393.6224
  17554138.697    -1337660.23749  -1033421.86849  17554141.3014   17554146.8384
  19425554.349   -19845574.54649 -14833654.37249  19425556.7774   19425563.7314
 96  5  9  0  3 59.9880000  0  6  5  6 24 20 16 17
  18410423.840   -34387597.15649 -26059923.26549  18410427.4834   18410433.1914
  17333457.537   -34578544.34549 -26926185.36749  17333460.1994   17333465.3734
  20147117.603   -24819186.84749 -18429445.43349  20147120.8024   20147126.8994
  17085185.684   -36618896.76249 -28521171.16749  17085188.0464   17085193.9334
  17552723.572    -1345096.29549  -1039216.19149  17552726.3094   17552731.7874
  19406975.569   -19943200.66849 -14909726.62949  19406978.6734   19406986.1314
 96  5  9  0  4 29.9880000  0  6  5  6 24 20 16 17
  18423775.146   -34317438.07949 -26005253.90349  18423777.9874   18423784.5654
  17321166.121   -34643136.19749 -26976516.67049  17321168.8164   17321173.6684
  20158732.314   -24758150.27049 -18381884.51449  20158736.0564   20158741.3134
  17089094.702   -36598353.36349 -28505163.35049  17089097.5654   17089103.0894
  17551417.534    -1351959.09749  -1044563.82149  17551420.3204   17551425.9224
  19388443.984   -20040586.25749 -14985611.44949  19388447.2854   19388454.2214
 96  5  9  0  4 59.9880000  0  6  5  6 24 20 16 17
  18437192.671   -34246928.35149 -25950311.31549  18437195.7914   18437202.0834
  17308927.313   -34707452.04649 -27026632.90549  17308929.8824   17308934.8354
  20170350.435   -24697098.38149 -18334311.65449  20170353.3854   20170359.3254
  17093114.703   -36577228.53049 -28488702.46249  17093117.3374   17093122.9124
  17550225.060    -1358225.71649  -1049446.89449  17550227.6724   17550233.2254
  19369958.783   -20137728.05649 -15061306.29749  19369962.1124   19369968.8184
 96  5  9  0  5 29.9880000  0  6  5  6 24 20 16 17
  18450673.103   -34176086.21249 -25895109.70549  18450676.7294   18450682.7424
  17296737.318   -34771507.58449 -27076546.30549  17296740.6784   17296745.6214
  20181969.631   -24636036.17749 -18286730.75249  20181973.1154   20181979.2074
  17097238.625   -36555559.22749 -28471817.31549  17097241.1654   17097246.7334
  17549146.960    -1363891.97149  -1053862.14849  17549149.3504   17549154.9254
  19351518.090   -20234634.22549 -15136817.54049  19351520.9384   19351527.7944
 96  5  9  0  5 59.9880000  0  6  5  6 24 20 16 17
  18464213.268   -34104934.76749 -25839667.07549  18464216.5784   18464222.3684
  17284594.268   -34835321.29549 -27126271.26449  17284597.1114   17284601.9084
  20193592.066   -24574967.81349 -18239145.06249  20193594.5244   20193599.6724
  17101466.844   -36533338.54749 -28454502.52349  17101469.3624   17101475.0844
  17548183.641    -1368955.41849  -1057807.68249  17548186.0134   17548191.3364
  19333122.824   -20331299.33649 -15212140.94449  19333126.0904   19333132.7494
 96  5  9  0  6 29.9880000  0  6  5  6 24 20 16 17
  18477814.505   -34033455.59549 -25783969.07649  18477818.3184   18477824.6314
  17272497.111   -34898893.98449 -27175808.41849  17272499.5794   17272504.7144
  20205218.947   -24513862.60549 -18191530.65949  20205222.3944   20205228.5274
  17105803.855   -36510548.61549 -28436744.15849  17105806.0714   17105811.9044
  17547341.283    -1373381.88749  -1061256.87449  17547343.6374   17547349.3284
  19314776.599   -20427712.78649 -15287268.25849  19314780.4174   19314786.4004
 96  5  9  0  6 59.9880000  0  6  5  6 24 20 16 17
  18491480.486   -33961646.99349 -25728014.37849  18491483.3354   18491489.4374
  17260439.874   -34962253.64149 -27225179.56849  17260442.7534   17260447.7064
  20216859.287   -24452693.50849 -18143866.46749  20216861.7254   20216868.1994
  17110248.184   -36487191.49249 -28418543.82449  17110250.6714   17110256.6504
  17546622.724    -1377156.70349  -1064198.27949  17546625.2474   17546630.8154
  19296477.774   -20523871.85549 -15362197.33349  19296480.9264   19296487.5424
 96  5  9  0  7 29.9870000  0  6  5  6 24 20 16 17
  18505205.551   -33889521.16849 -25671812.49449  18505208.3034   18505214.0984
  17248421.359   -35025410.69349 -27274392.85049  17248424.3064   17248429.4454
  20228510.353   -24391466.97949 -18096157.52449  20228514.1224   20228519.8844
  17114804.709   -36463249.09949 -28399887.44049  17114807.0204   17114812.8654
  17546028.393    -1380282.16849  -1066633.69549  17546030.4144   17546036.0574
  19278229.317   -20619770.25849 -15436923.30149  19278232.0974   19278239.0494
 96  5  9  0  7 59.9870000  0  6  5  6 24 20 16 17
  18518992.996   -33817064.05149 -25615352.45549  18518996.4654   18519002.4024
  17236443.731   -35088355.02549 -27323440.36949  17236446.4674   17236451.2774
  20240170.239   -24330190.47949 -18048409.64449  20240174.2284   20240179.6344
  17119474.615   -36438704.62349 -28380761.89649  17119477.5034   17119483.1764
  17545554.117    -1382773.37949  -1068574.89149  17545556.4964   17545562.0194
  19260027.628   -20715417.66949 -15511453.69249  19260030.8124   19260037.4664
 96  5  9  0  8 29.9870000  0  6  5  6 24 20 16 17
  18532849.631   -33744252.63749 -25558616.34549  18532851.9344   18532858.3364
  17224511.160   -35151059.80649 -27372301.22949  17224514.0764   17224519.0064
  20251841.939   -24268853.89649 -18000614.94649  20251845.8224   20251851.7324
  17124260.015   -36413561.93949 -28361170.22149  17124262.2434   17124267.8724
  17545199.063    -1384636.90749  -1070026.98249  17545201.8454   17545207.3134
  19241874.805   -20810812.05849 -15585786.92749  19241877.9724   19241884.3724
 96  5  9  0  8 59.9870000  0  6  5  6 24 20 16 17
  18546765.921   -33671120.57349 -25501630.38149  18546768.4684   18546774.8344
  17212623.172   -35213530.80349 -27420979.91849  17212626.2794   17212631.1274
  20263522.802   -24207478.65249 -17952790.12349  20263525.4244   20263531.7364
  17129152.362   -36387850.79949 -28341135.59349  17129154.9384   17129160.4864
  17544957.078    -1385909.42349  -1071018.54749  17544959.5484   17544965.1594
  19223764.733   -20905980.53949 -15659944.13049  19223768.2374   19223774.4864
 96  5  9  0  9 29.9870000  0  6  5  6 24 20 16 17
  18560740.904   -33597684.24849 -25444407.32649  18560743.2294   18560749.1054
  17200783.626   -35275750.37449 -27469462.69249  17200786.2774   17200791.1544
  20275203.981   -24146091.14549 -17904955.74449  20275206.9954   20275213.2754
  17134151.965   -36361577.96949 -28320663.28649  17134154.4494   17134160.0704
  17544825.059    -1386602.68349  -1071558.74149  17544827.9994   17544833.3364
  19205697.514   -21000925.86349 -15733927.43749  19205700.4014   19205707.4744
 96  5  9  0  9 59.9870000  0  6  5  6 24 20 16 17
  18574776.853   -33523925.51949 -25386933.05749  18574778.9134   18574784.2304
  17188996.071   -35337691.60849 -27517728.57949  17188999.2564   17189003.9284
  20286891.518   -24084669.96849 -17857095.12949  20286894.7074   20286900.5614
  17139256.500   -36334752.21349 -28299760.12349  17139259.1574   17139264.9644
  17544806.582    -1386701.41749  -1071635.66549  17544808.9304   17544814.3154
  19187675.645   -21095631.62749 -15807724.07849  19187677.8034   19187685.5274
 96  5  9  0 10 29.9870000  0  6  5  6 24 20 16 17
  18588871.687   -33449856.49049 -25329216.99149  18588873.7104   18588880.0994
  17177260.721   -35399362.92149 -27565784.13549  17177263.6874   17177268.6054
  20298589.011   -24023197.53249 -17809194.58049  20298592.5984   20298599.3104
  17144467.967   -36307368.23349 -28278421.98249  17144470.0474   17144475.8024
  17544903.879    -1386190.19849  -1071237.30349  17544906.1744   17544911.6714
  19169699.821   -21190092.15349 -15881329.62649  19169703.5884   19169710.3194
 96  5  9  0 10 59.9870000  0  6  5  6 24 20 16 17
  18603026.960   -33375470.52149 -25271253.96449  18603029.0984   18603035.4264
  17165575.782   -35460767.72649 -27613632.02749  17165578.7704   17165583.3314
  20310295.850   -23961677.73649 -17761257.11349  20310299.1164   20310305.5764
  17149785.747   -36279421.54549 -28256645.36749  17149788.1554   17149793.9734
  17545118.967    -1385059.13149  -1070355.94849  17545121.0654   17545126.7174
  19151775.066   -21284287.87449 -15954728.83149  19151778.3814   19151784.8924
 96  5  9  0 11 29.9870000  0  6  5  6 24 20 16 17
  18617242.956   -33300762.69249 -25213040.13049  18617245.4984   18617251.3754
  17153936.482   -35521929.83549 -27661290.80049  17153939.8974   17153944.8714
  20322005.424   -23900147.38749 -17713311.43349  20322008.3054   20322015.0674
  17155208.278   -36250925.68649 -28234440.82349  17155210.8454   17155216.7924
  17545450.038    -1383316.83449  -1068998.30349  17545452.9664   17545458.3944
  19133900.373   -21378221.14049 -16027923.53049  19133903.1494   19133910.6854
 96  5  9  0 11 59.9870000  0  6  5  6 24 20 16 17
  18631523.686   -33225718.35049 -25154564.08449  18631525.8884   18631532.3164
  17142345.832   -35582843.64449 -27708756.09549  17142348.4914   17142353.3524
  20333715.271   -23838610.01349 -17665360.27049  20333718.7894   20333724.8674
  17160735.302   -36221881.12949 -28211808.72549  17160738.1104   17160743.6724
  17545897.608    -1380965.84649  -1067166.35849  17545900.1614   17545905.7464
  19116077.058   -21471882.54049 -16100906.38149  19116079.9584   19116087.3394
 96  5  9  0 12 29.9870000  0  6  5  6 24 20 16 17
  18645864.321   -33150360.11749 -25095843.45949  18645866.2814   18645871.9524
  17130796.266   -35643534.93649 -27756048.00149  17130799.1494   17130803.9214
  20345421.692   -23777094.79449 -17617426.38249  20345425.2974   20345431.2264
  17166367.097   -36192288.02449 -28188749.18749  17166369.4174   17166374.7924
  17546457.132    -1378025.83549  -1064875.43749  17546459.6924   17546465.1194
  19098303.661   -21565284.81349 -16173687.32049  19098305.9754   19098313.1614
 96  5  9  0 12 59.9870000  0  6  5  6 24 20 16 17
  18660266.206   -33074681.14749 -25036872.90149  18660267.4074   18660273.4794
  17119295.491   -35703971.74049 -27803141.60849  17119298.4544   17119302.9744
  20357121.467   -23715614.30049 -17569519.55049  20357123.9364   20357130.1704
  17172101.772   -36162149.09149 -28165264.32449  17172104.5104   17172110.4364
  17547130.594    -1374488.59349  -1062119.14049  17547132.9084   17547138.3984
  19080581.106   -21658415.76449 -16246256.83849  19080583.5464   19080591.1964
 96  5  9  0 13 29.9870000  0  6  5  6 24 20 16 17
  18674720.714   -32998713.86449 -24977677.67749  18674723.6414   18674730.2154
  17107845.868   -35764141.58649 -27850027.19549  17107848.6084   17107853.1264
  20368813.373   -23654165.97049 -17521637.77749  20368817.0754   20368823.3044
  17177943.652   -36131451.14149 -28141343.87249  17177946.1264   17177951.8954
  17547919.494    -1370340.79249  -1058887.08549  17547922.1164   17547927.4204
  19062908.977   -21751283.17349 -16318620.99949  19062911.7444   19062918.4374
 96  5  9  0 13 59.9870000  0  6  5  6 24 20 16 17
  18689229.208   -32922477.40149 -24918272.70749  18689230.6304   18689237.2794
  17096446.941   -35824040.76049 -27896701.86749  17096450.0034   17096454.9114
  20380506.443   -23592721.97549 -17473759.39149  20380509.8764   20380515.7984
  17183893.876   -36100182.01349 -28116978.34449  17183896.4794   17183902.3014
  17548825.033    -1365586.53949  -1055182.46749  17548826.7224   17548832.2694
  19045284.828   -21843893.39049 -16390784.75749  19045288.5424   19045295.3884
 96  5  9  0 14 29.9870000  0  6  5  6 24 20 16 17
  18703784.533   -32845992.80649 -24858674.38749  18703784.9534   18703792.3294
  17085097.076   -35883684.44449 -27943177.45549  17085100.2264   17085104.9794
  20392199.871   -23531277.51949 -17425880.63549  20392202.2644   20392208.7304
  17189950.009   -36068358.68249 -28092180.97049  17189952.3194   17189958.1804
  17549842.499    -1360232.45649  -1051010.45149  17549845.8224   17549851.3044
  19027708.298   -21936263.22449 -16462761.20449  19027710.9524   19027718.7174
 96  5  9  0 14 59.9870000  0  6  5  6 24 20 16 17
  18718386.375   -32769256.58149 -24798879.98849  18718387.8044   18718394.4114
  17073797.028   -35943068.09049 -27989450.41949  17073799.6594   17073804.2984
  20403892.090   -23469832.35949 -17378001.33649  20403895.2444   20403901.4724
  17196108.445   -36035998.87449 -28066965.56549  17196110.2724   17196116.0804
  17550975.414    -1354283.35349  -1046374.77749  17550977.7864   17550983.2404
  19010175.987   -22028392.15349 -16534549.93049  19010179.7304   19010186.3004
 96  5  9  0 15 29.9870000  0  6  5  6 24 20 16 17
  18733037.135   -32692258.81349 -24738881.79749  18733040.4514   18733046.9174
  17062542.848   -36002209.92849 -28035534.95949  17062545.7464   17062550.3384
  20415586.948   -23408373.99149 -17330111.74049  20415590.1114   20415596.4024
  17202368.576   -36003098.13949 -28041328.65849  17202371.2734   17202376.8964
  17552217.840    -1347754.28849  -1041287.18949  17552220.2234   17552225.7594
  18992689.041   -22120290.84549 -16606159.26149  18992691.6794   18992698.6404
 96  5  9  0 15 59.9870000  0  6  5  6 24 20 16 17
  18747742.002   -32614988.56449 -24678671.28649  18747744.9494   18747750.6914
  17051329.971   -36061133.88149 -28081449.72249  17051332.6684   17051337.4194
  20427280.862   -23346924.17949 -17282228.81349  20427284.1994   20427290.1994
  17208727.004   -35969683.25149 -28015291.11049  17208729.7844   17208735.3864
  17553564.024    -1340678.69149  -1035773.73149  17553566.5314   17553572.2894
  18975241.660   -22211975.70449 -16677601.96449  18975244.3094   18975251.5044
 96  5  9  0 16 29.9870000  0  6  5  6 24 20 16 17
  18762498.977   -32537440.79749 -24618244.51949  18762501.0714   18762507.7964
  17040161.216   -36119822.74249 -28127181.29749  17040164.5244   17040169.4504
  20438970.282   -23285494.27849 -17234361.40449  20438973.1174   20438980.4184
  17215184.325   -35935752.26449 -27988851.41149  17215186.6864   17215192.5944
  17555017.322    -1333042.48249  -1029823.43549  17555019.7224   17555025.2614
  18957838.819   -22303427.00849 -16748862.66949  18957842.1604   18957848.8484
 96  5  9  0 16 59.9870000  0  6  5  6 24 20 16 17
  18777305.423   -32459629.85249 -24557612.68349  18777308.2704   18777314.7434
  17029037.918   -36178278.21449 -28172731.00849  17029040.7634   17029045.6714
  20450653.579   -23224097.26749 -17186519.63149  20450657.4084   20450663.2314
  17221739.775   -35901302.22549 -27962007.25149  17221742.0444   17221747.9924
  17556574.395    -1324857.20349  -1023445.29249  17556577.1184   17556582.8844
  18940477.726   -22394661.05949 -16819954.09349  18940480.5194   18940487.5604
 96  5  9  0 17 29.9870000  0  6  5  6 24 20 16 17
  18792163.760   -32381548.72349 -24496770.31849  18792166.7314   18792173.5054
  17017961.457   -36236483.70849 -28218085.93249  17017964.7484   17017969.4704
  20462334.050   -23162718.66449 -17138692.18349  20462337.4924   20462343.8634
  17228398.531   -35866311.43349 -27934741.72849  17228400.7734   17228406.5914
  17558239.666    -1316108.45149  -1016628.08349  17558242.1304   17558247.8634
  18923159.272   -22485671.36049 -16890871.16649  18923161.9854   18923168.8084
 96  5  9  0 17 59.9870000  0  6  5  6 24 20 16 17
  18807069.188   -32303219.31149 -24435734.48349  18807071.9964   18807078.5934
  17006931.993   -36294446.04349 -28263251.38449  17006934.8974   17006939.5694
  20474007.731   -23101369.98249 -17090888.06749  20474011.7334   20474017.0944
  17235155.839   -35830800.73249 -27907071.07649  17235158.1124   17235163.9214
  17560012.473    -1306793.75849  -1009369.88249  17560014.7234   17560020.1174
  18905884.657   -22576448.29349 -16961606.39649  18905887.6424   18905894.8584
 96  5  9  0 18 29.9870000  0  6  5  6 24 20 16 17
  18822021.925   -32224651.51249 -24374512.89649  18822023.7464   18822029.7004
  16995947.834   -36352167.79549 -28308229.36649  16995950.7584   16995955.3544
  20485678.682   -23040041.55249 -17043099.70449  20485682.1954   20485687.6264
  17242009.123   -35794786.13549 -27879007.77549  17242011.4874   17242017.2264
  17561892.199    -1296915.54949  -1001672.57449  17561894.3264   17561900.1964
  18888654.190   -22666994.40049 -17032161.75149  18888657.5944   18888664.2774
 96  5  9  0 18 59.9870000  0  6  5  6 24 20 16 17
  18837019.285   -32145834.30149 -24313096.96049  18837021.7234   18837029.2104
  16985008.414   -36409654.42049 -28353024.13149  16985011.4504   16985016.2534
  20497347.030   -22978722.08749 -16995318.33349  20497350.2214   20497356.9834
  17248957.882   -35758269.67849 -27850553.41849  17248960.5234   17248966.2984
  17563876.936    -1286483.34649   -993543.58649  17563879.5854   17563884.9904
  18871467.721   -22757313.08149 -17102539.89749  18871470.1794   18871476.7144
 96  5  9  0 19 29.9870000  0  6  5  6 24 20 16 17
  18852068.256   -32066759.07649 -24251479.98149  18852069.8164   18852075.7094
  16974114.750   -36466901.69749 -28397632.38949  16974117.6564   16974122.2434
  20509015.387   -22917403.49049 -16947537.65749  20509019.4294   20509024.2084
  17256002.721   -35721248.91949 -27821706.10249  17256005.4474   17256011.2534
  17565971.151    -1275476.51249   -984966.83049  17565974.0864   17565979.5454
  18854327.571   -22847379.73649 -17172721.65549  18854331.1724   18854337.3494
 96  5  9  0 19 59.9870000  0  6  5  6 24 20 16 17
  18867162.265   -31987433.16249 -24189667.65049  18867164.6324   18867171.2204
  16963268.473   -36523898.46949 -28442045.45049  16963271.5024   16963276.3264
  20520687.362   -22856065.89249 -16899742.16649  20520690.6724   20520697.1804
  17263142.207   -35683731.01049 -27792471.38749  17263144.8424   17263150.5054
  17568176.331    -1263891.57149   -975939.60749  17568178.6884   17568183.7924
  18837238.573   -22937184.68749 -17242699.49149  18837241.6824   18837248.2694
 96  5  9  0 20 29.9870000  0  6  5  6 24 20 16 17
  18882306.004   -31907850.81449 -24127655.50649  18882309.2144   18882316.1704
  16952474.493   -36580620.94649 -28486244.77549  16952477.5684   16952482.4214
  20532365.508   -22794701.47749 -16851925.78349  20532368.7764   20532375.4154
  17270378.443   -35645704.62849 -27762840.46049  17270380.9534   17270386.7564
  17570489.911    -1251732.54649   -966465.04449  17570492.2124   17570497.8894
  18820195.401   -23026748.19149 -17312489.18649  18820198.6874   18820204.8984
 96  5  9  0 20 59.9870000  0  6  5  6 24 20 16 17
  18897491.381   -31828049.30549 -24065472.59249  18897495.0484   18897501.1514
  16941732.133   -36637072.91449 -28530233.31949  16941735.1354   16941739.9174
  20544042.980   -22733340.65149 -16804112.20549  20544045.6344   20544051.1464
  17277709.541   -35607179.19749 -27732820.66849  17277712.1944   17277717.6914
  17572911.336    -1239012.10349   -956553.01249  17572912.8224   17572918.8724
  18803193.280   -23116093.60649 -17382108.93849  18803196.5174   18803203.6564
 96  5  9  0 21 29.9870000  0  7  5 23  6 24 20 16 17
  18912714.778   -31748048.86749 -24003134.67049  18912718.5564   18912724.8574
  20980749.095    -3037499.07959  -2338972.79259  20980751.0814   20980761.9614
  16931041.020   -36693253.63849 -28574010.49949  16931044.2144   16931049.1884
  20555716.369   -22671997.88749 -16756312.68949  20555718.4584   20555724.7954
  17285133.746   -35568163.90649 -27702419.15949  17285136.2224   17285142.1494
  17575437.647    -1225727.98049   -946201.74749  17575440.7744   17575446.6074
  18786233.504   -23205219.23649 -17451557.43549  18786236.0784   18786242.9634
 96  5  9  0 21 59.9870000  0  7  5 23  6 24 20 16 17
  18927977.243   -31667850.47949 -23940642.49949  18927979.7714   18927986.3844
  20956492.718    -3164970.05949  -2438300.57349  20956493.6524   20956503.9554
  16920402.386   -36749162.69449 -28617575.98849  16920405.3264   16920410.0394
  20567382.112   -22610689.83049 -16708540.22749  20567385.1814   20567391.7144
  17292648.705   -35528674.13849 -27671647.92949  17292651.2374   17292657.0294
  17578069.781    -1211900.20949   -935426.86149  17578072.1934   17578077.6304
  18769315.312   -23294125.68849 -17520835.13149  18769317.6704   18769324.5454
 96  5  9  0 22 29.9870000  0  7  5 23  6 24 20 16 17
  18943284.531   -31587405.84249 -23877958.45349  18943288.2324   18943294.3984
  20932237.483    -3292416.89849  -2537609.54449  20932241.3214   20932251.4854
  16909820.733   -36804770.70849 -28660906.90349  16909823.4044   16909828.0204
  20579044.532   -22549405.43049 -16660786.20349  20579047.4284   20579053.5584
  17300263.058   -35488661.45249 -27640469.23049  17300265.5144   17300271.2904
  17580812.912    -1197487.05749   -924195.83449  17580814.8734   17580820.8144
  18752448.106   -23382760.10449 -17589900.86349  18752451.3434   18752457.6914
 96  5  9  0 22 59.9870000  0  7  5 23  6 24 20 16 17
  18958634.926   -31506739.76149 -23815101.84949  18958638.7004   18958644.2514
  20907989.057    -3419846.58349  -2636905.15249  20907991.7974   20908002.4014
  16899290.818   -36860104.36949 -28704024.03649  16899293.6134   16899298.5194
  20590697.985   -22488166.02349 -16613067.23149  20590700.7114   20590707.6604
  17307973.288   -35448142.78249 -27608896.26249  17307975.9274   17307981.8404
  17583665.080    -1182495.76049   -912514.30749  17583667.6314   17583673.4374
  18735636.501   -23471106.04749 -17658741.79949  18735639.5504   18735645.7134
 96  5  9  0 23 29.9870000  0  7  5 23  6 24 20 16 17
  18974029.014   -31425844.64849 -23752066.77849  18974031.9444   18974039.5054
  20883743.222    -3547256.55149  -2736185.39649  20883746.5704   20883757.0324
  16888809.149   -36915185.73649 -28746944.57949  16888811.9584   16888816.7384
  20602341.046   -22426980.75649 -16565390.44249  20602343.7734   20602351.4384
  17315778.017   -35407130.96549 -27576939.02749  17315780.3314   17315786.2004
  17586627.174    -1166930.76849   -900385.74249  17586629.5924   17586635.3404
  18718878.877   -23559168.07649 -17727361.50949  18718882.0304   18718888.0804
 96  5  9  0 23 59.9870000  0  7  5 23  6 24 20 16 17
  18989471.749   -31344699.34349 -23688836.76449  18989473.3794   18989480.4904
  20859506.284    -3674636.38249  -2835442.16449  20859506.1004   20859517.4664
  16878376.510   -36970010.46449 -28789665.13749  16878379.1864   16878384.0434
  20613977.829   -22365826.36649 -16517737.71849  20613981.3614   20613987.5214
  17323677.995   -35365615.61949 -27544589.43549  17323680.3114   17323686.4114
  17589698.519    -1150789.60149   -887808.21049  17589701.3784   17589706.7274
  18702173.500   -23646956.32949 -17795767.88949  18702176.2584   18702182.7294
 96  5  9  0 24 29.9870000  0  7  5 23  6 24 20 16 17
  19004960.122   -31263307.06949 -23625414.28049  19004962.1254   19004968.7514
  20835276.440    -3801947.31249  -2934645.25949  20835279.9434   20835290.9874
  16867994.868   -37024567.68449 -28832177.24949  16867997.2794   16868002.2214
  20625613.841   -22304680.75349 -16470091.83149  20625617.0794   20625622.9494
  17331676.974   -35323580.18749 -27511834.57649  17331679.3584   17331685.4104
  17592880.698    -1134067.79049   -874778.22949  17592883.3234   17592888.7394
  18685515.136   -23734497.34649 -17863981.61149  18685518.3064   18685524.3474
 96  5  9  0 24 59.9870000  0  7  5 23  6 24 20 16 17
  19020496.581   -31181661.62549 -23561794.54749  19020498.6414   19020506.0544
  20811072.647    -3929147.41449  -3033761.99649  20811074.4464   20811085.0614
  16857667.525   -37078836.52949 -28874464.65949  16857670.4224   16857675.0064
  20637253.044   -22243519.07849 -16422433.44049  20637255.1904   20637262.3454
  17339776.202   -35281017.33649 -27478668.74149  17339778.9504   17339785.2394
  17596176.346    -1116751.70849   -861285.18049  17596178.5484   17596183.9024
  18668900.793   -23821803.29949 -17932012.17749  18668904.3344   18668910.3284
 96  5  9  0 25 29.9870000  0  7  5 23  6 24 20 16 17
  19036084.825   -31099743.69449 -23497962.48349  19036087.4274   19036094.5664
  20786889.948    -4056226.01949  -3132784.06549  20786892.5074   20786902.5414
  16847397.149   -37132808.23549 -28916520.52849  16847400.0334   16847404.8064
  20648894.216   -22182345.43249 -16374765.71549  20648897.5204   20648903.6644
  17347978.557   -35237915.73149 -27445083.10549  17347981.0174   17347986.9794
  17599583.903    -1098842.09549   -847329.63549  17599586.5714   17599592.0704
  18652328.758   -23908891.93349 -17999873.40249  18652331.4114   18652337.7694
 96  5  9  0 25 59.9870000  0  7  5 23  6 24 20 16 17
  19051717.341   -31017589.76249 -23433946.52249  19051721.1214   19051726.9414
  20762724.925    -4183205.78649  -3231729.11249  20762728.1494   20762739.0484
  16837181.771   -37186489.19149 -28958349.84049  16837184.6354   16837189.3474
  20660534.449   -22121171.99049 -16327098.15149  20660538.0514   20660544.4514
  17356278.778   -35194298.31049 -27411095.53449  17356280.9764   17356286.9204
  17603097.807    -1080377.17249   -832941.38249  17603100.3794   17603105.7224
  18635794.035   -23995780.73449 -18067578.91249  18635796.8454   18635803.2474
 96  5  9  0 26 29.9870000  0  7  5 23  6 24 20 16 17
  19067393.907   -30935212.39849 -23369756.46049  19067396.1984   19067403.6894
  20738582.009    -4310088.53449  -3330598.55949  20738583.2404   20738593.3094
  16827023.974   -37239869.67749 -28999945.01949  16827026.8564   16827031.4704
  20672170.416   -22060020.50649 -16279447.68649  20672174.0214   20672180.7354
  17364675.557   -35150172.24049 -27376711.60949  17364677.9154   17364683.9084
  17606718.597    -1061350.06649   -818115.06849  17606720.9534   17606726.4134
  18619302.712   -24082442.29149 -18135107.34349  18619305.9524   18619312.2654
 96  5  9  0 26 59.9870000  0  7  5 23  6 24 20 16 17
  19083110.930   -30852620.93049 -23305399.56949  19083112.5684   19083119.7894
  20714449.341    -4436894.68449  -3429408.32849  20714452.1934   20714463.1854
  16816922.377   -37292953.73649 -29041309.21649  16816925.0134   16816929.8914
  20683798.721   -21998913.58949 -16231831.95949  20683802.4474   20683809.8144
  17373166.672   -35105550.36449 -27341941.34849  17373169.1594   17373175.2394
  17610447.251    -1041754.71449   -802845.96149  17610450.0494   17610455.1594
  18602860.836   -24168846.15849 -18202434.98249  18602863.5604   18602870.0924
 96  5  9  0 27 29.9870000  0  7  5 23  6 24 20 16 17
  19098867.394   -30769822.10249 -23240881.09249  19098869.3874   19098876.3594
  20690330.699    -4563642.96449  -3528173.01349  20690333.2364   20690342.9614
  16806876.849   -37345742.50149 -29082443.31249  16806879.5904   16806884.3164
  20695420.118   -21937847.43849 -16184248.00249  20695423.9704   20695430.3384
  17381749.072   -35060447.64649 -27306796.39749  17381751.9904   17381757.8864
  17614281.356    -1021610.27349   -787148.99349  17614283.3984   17614288.7414
  18586470.748   -24254975.91149 -18269549.02449  18586473.9154   18586479.6684
 96  5  9  0 27 59.9870000  0  7  5 23  6 24 20 16 17
  19114660.262   -30686822.54349 -23176206.20949  19114663.4394   19114669.9264
  20666224.082    -4690325.03649  -3626886.10749  20666226.6434   20666236.0724
  16796888.777   -37398229.40349 -29123342.19449  16796891.6814   16796896.3184
  20707036.995   -21876801.17549 -16136679.54449  20707040.0874   20707046.1764
  17390420.850   -35014879.68249 -27271288.91749  17390423.4864   17390429.2724
  17618219.259    -1000914.33849   -771022.29149  17618221.7414   17618226.9004
  18570137.386   -24340809.12249 -18336431.99849  18570140.1924   18570146.4974
 96  5  9  0 28 29.9870000  0  7  5 23  6 24 20 16 17
  19130492.304   -30603628.13349 -23111379.49249  19130495.7084   19130502.1154
  20642133.064    -4816930.70349  -3725539.67149  20642133.2824   20642144.4664
  16786956.316   -37450425.78249 -29164014.69349  16786958.9974   16786963.8374
  20718648.265   -21815781.43049 -16089131.73949  20718651.3134   20718657.4194
  17399177.650   -34968860.09349 -27235429.52449  17399180.4234   17399186.4624
  17622260.655     -979676.58249   -754473.38749  17622262.9384   17622268.5034
  18553857.127   -24426361.82549 -18403096.39249  18553860.2024   18553866.5294
 96  5  9  0 28 59.9870000  0  7  5 23  6 24 20 16 17
  19146365.517   -30520210.33949 -23046378.71249  19146369.8994   19146376.1174
  20618056.483    -4943430.36349  -3824110.62749  20618061.4704   20618071.6634
  16777081.978   -37502315.72749 -29204448.41149  16777084.8104   16777089.6874
  20730263.158   -21754737.17149 -16041564.83849  20730267.5614   20730274.3834
  17408024.999   -34922369.57949 -27199203.18149  17408027.5764   17408033.4354
  17626406.423     -957891.48749   -737497.98749  17626408.6924   17626413.7574
  18537629.820   -24511638.46549 -18469545.66849  18537632.3314   18537639.3594
 96  5  9  0 29 29.9870000  0  7  5 23  6 24 20 16 17
  19162282.181   -30436567.54649 -22981202.60449  19162286.3364   19162293.2744
  20594007.702    -5069821.52749  -3922597.05149  20594010.4504   20594020.5344
  16767264.628   -37553907.51949 -29244649.80049  16767267.2474   16767271.9084
  20741888.524   -21693651.14149 -15993965.38649  20741892.3244   20741898.5784
  17416960.340   -34875413.62649 -27162614.15749  17416962.9064   17416968.6824
  17630652.548     -935575.51049   -720108.91249  17630655.1084   17630660.1694
  18521450.093   -24596662.98949 -18535798.48949  18521452.5754   18521459.4834
 96  5  9  0 29 59.9870000  0  7  5 23  6 24 20 16 17
  19178241.805   -30352700.57149 -22915851.82549  19178245.3154   19178252.5274
  20569978.678    -5196084.93149  -4020983.91849  20569982.5194   20569992.8314
  16757505.774   -37605190.15149 -29284610.29149  16757508.6944   16757513.4724
  20753522.557   -21632514.99949 -15946326.87949  20753527.4364   20753532.0364
  17425986.978   -34827979.19149 -27125652.29349  17425989.4144   17425995.3134
  17635003.628     -912714.57949   -702295.20049  17635005.5574   17635010.6414
  18505318.426   -24681432.95149 -18601852.95249  18505321.2444   18505328.1834
 96  5  9  0 30 29.9870000  0  7  5 23  6 24 20 16 17
  19194240.532   -30268626.39249 -22850339.57449  19194243.9294   19194250.4604
  20545975.682    -5322234.53549  -4119282.11549  20545977.2284   20545986.8114
  16747805.906   -37656163.02549 -29324329.40849  16747808.8064   16747813.5764
  20765165.205   -21571343.29649 -15898660.67249  20765166.6474   20765172.5124
  17435104.870   -34780063.05449 -27088315.07149  17435107.4334   17435113.4094
  17639455.539     -889315.66449   -684062.27449  17639458.0554   17639463.1164
  18489231.891   -24765969.10049 -18667725.21649  18489234.3614   18489241.1594
 96  5  9  0 30 59.9870000  0  7  5 23  6 24 20 16 17
  19210275.976   -30184364.93349 -22784681.39849  19210278.8274   19210285.8354
  20521984.349    -5448296.00849  -4217511.63749  20521988.2204   20521998.7164
  16738163.840   -37706832.82149 -29363812.36549  16738166.5784   16738171.3384
  20776804.032   -21510168.72649 -15850992.22049  20776806.6014   20776813.9574
  17444314.864   -34731663.91449 -27050601.49049  17444317.5894   17444323.4644
  17644011.870     -865372.54149   -665405.29149  17644014.5534   17644019.4014
  18473190.441   -24850267.42449 -18733412.17249  18473192.9324   18473199.2604
 96  5  9  0 31 29.9870000  0  7  5 23  6 24 20 16 17
  19226341.957   -30099934.38949 -22718891.46249  19226344.7234   19226352.3294
  20498013.290    -5574274.43449  -4315676.45349  20498015.8044   20498024.6164
  16728580.987   -37757191.53449 -29403052.92049  16728583.8024   16728588.3184
  20788440.111   -21449024.32749 -15803347.26649  20788443.1574   20788449.7044
  17453616.255   -34682786.28449 -27012515.05949  17453618.5914   17453624.6494
  17648672.438     -840881.73049   -646321.54649  17648675.0044   17648680.0764
  18457198.581   -24934305.33849 -18798896.21449  18457201.2614   18457207.5884
 96  5  9  0 31 59.9870000  0  7  5 23  6 24 20 16 17
  19242438.715   -30015349.53749 -22652981.29149  19242441.3294   19242448.2464
  20474055.383    -5700174.68449  -4413780.33749  20474057.5094   20474066.7824
  16719057.190   -37807237.84749 -29442050.04049  16719060.0044   16719064.8964
  20800063.320   -21387949.02249 -15755756.15749  20800065.9924   20800072.3734
  17463005.920   -34633442.33049 -26974065.25349  17463008.4734   17463014.5034
  17653434.353     -815857.77449   -626822.35349  17653436.6474   17653442.0024
  18441254.929   -25018087.19049 -18864180.71849  18441258.1714   18441264.1084
 96  5  9  0 32 29.9870000  0  7  5 23  6 24 20 16 17
  19258567.513   -29930590.23149 -22586935.19249  19258570.0194   19258577.5924
  20450111.871    -5825991.23849  -4511819.01849  20450115.0504   20450123.7654
  16709593.586   -37856968.74749 -29480801.39049  16709596.5154   16709601.3514
  20811668.300   -21326955.73349 -15708228.95049  20811672.4214   20811679.5274
  17472487.337   -34583616.67749 -26935240.09549  17472490.1464   17472496.1064
  17658296.906     -790303.18749   -606909.68449  17658299.3864   17658304.7424
  18425362.067   -25101609.12549 -18929262.69249  18425364.9244   18425370.4284
 96  5  9  0 32 59.9870000  0  8  5 26 23  6 24 20 16 17
  19274733.222   -29845637.82349 -22520738.61349  19274736.7484   19274742.6584
  20705701.165    -7173705.44159  -5120462.78859  20705704.0704   20705711.9594
  20426189.921    -5951710.38149  -4609781.78049  20426191.4774   20426199.4284
  16700191.948   -37906377.18749 -29519301.47849  16700194.6344   16700199.5164
  20823261.556   -21266036.09049 -15660759.14049  20823265.2594   20823272.0504
  17482061.165   -34533310.08249 -26896040.18349  17482063.0704   17482069.1694
  17663261.872     -764212.29149   -586579.11549  17663264.4604   17663269.4914
  18409521.521   -25184850.37649 -18994125.95149  18409524.1464   18409530.4164
 96  5  9  0 33 29.9870000  0  8  5 26 23  6 24 20 16 17
  19290938.916   -29760480.17549 -22454382.10049  19290941.4654   19290949.2344
  20686676.749    -7273684.73249  -5198368.58849  20686678.5564   20686687.0984
  20402287.031    -6077315.17849  -4707655.45349  20402289.6144   20402298.6314
  16690851.991   -37955457.76349 -29557546.08449  16690854.8404   16690859.7864
  20834845.891   -21205163.81749 -15613326.23949  20834849.1444   20834855.5374
  17491723.264   -34482534.25649 -26856474.63949  17491725.3714   17491731.3574
  17668328.737     -737590.33649   -565834.73849  17668330.3834   17668335.8124
  18393732.881   -25267818.88149 -19058776.68449  18393735.4754   18393742.2494
 96  5  9  0 33 59.9870000  0  8  5 26 23  6 24 20 16 17
  19307182.392   -29675125.76949 -22387872.27949  19307183.9764   19307190.7574
  20667653.807    -7373640.24649  -5276255.83549  20667657.7314   20667664.8974
  20378408.431    -6202799.19649  -4805435.01549  20378410.1744   20378420.1084
  16681570.326   -38004232.18949 -29595552.12849  16681573.1134   16681577.9484
  20846422.151   -21144328.09349 -15565921.81649  20846425.3074   20846432.3624
  17501474.827   -34431288.02649 -26816542.54349  17501477.3514   17501483.4634
  17673493.873     -710442.62049   -544680.67249  17673496.5744   17673501.8524
  18377990.570   -25350543.71849 -19123237.54549  18377993.6684   18378000.0744
 96  5  9  0 34 29.9870000  0  8  5 26 23  6 24 20 16 17
  19323461.952   -29589572.08749 -22321207.17649  19323464.6354   19323471.3444
  20648639.911    -7473567.36349  -5354120.97949  20648641.6354   20648649.9124
  20354550.605    -6328160.05449  -4903118.60649  20354553.7244   20354563.4674
  16672345.708   -38052708.66149 -29633326.00649  16672348.4344   16672353.1234
  20858000.124   -21083489.52049 -15518515.17849  20858002.9854   20858009.0674
  17511317.106   -34379569.15749 -26776242.16349  17511319.3154   17511325.1284
  17678764.731     -682743.79649   -523097.17949  17678767.4794   17678773.0434
  18362298.319   -25433008.67949 -19187495.91549  18362300.9774   18362307.3814
 96  5  9  0 34 59.9870000  0  8  5 26 23  6 24 20 16 17
  19339777.492   -29503836.95749 -22254400.69649  19339779.6134   19339786.6864
  20629630.432    -7573462.70249  -5431961.35949  20629632.9664   20629640.1804
  20330722.731    -6453383.07249  -5000694.79449  20330725.7244   20330735.1364
  16663178.714   -38100881.60949 -29670863.36549  16663181.5864   16663186.5644
  20869581.022   -21022627.42049 -15471090.20949  20869583.9134   20869591.2684
  17521244.528   -34327399.46049 -26735590.48949  17521246.6174   17521252.9854
  17684144.237     -654476.14949   -501070.44349  17684146.5594   17684152.0434
  18346654.727   -25515215.97849 -19251553.50149  18346657.6154   18346663.9444
 96  5  9  0 35 29.9870000  0  8  5 26 23  6 24 20 16 17
  19356123.194   -29417937.91349 -22187466.48449  19356126.0264   19356132.9314
  20610626.118    -7673333.64849  -5509782.73049  20610628.2444   20610636.5494
  20306920.317    -6578467.33349  -5098162.86149  20306922.7724   20306931.6464
  16654066.642   -38148767.73349 -29708177.23149  16654069.3914   16654073.9284
  20881165.791   -20961747.39449 -15423651.27149  20881168.9914   20881176.7454
  17531257.804   -34274778.54649 -26694587.21349  17531259.9994   17531265.9194
  17689629.182     -625650.64749   -478609.01549  17689631.9454   17689637.3424
  18331058.107   -25597176.61349 -19315418.88749  18331061.1504   18331067.3884
 96  5  9  0 35 59.9870000  0  8  5 26 23  6 24 20 16 17
  19372501.922   -29331864.70049 -22120396.55949  19372504.9964   19372512.5584
  20591627.227    -7773166.41649  -5587574.38749  20591629.8714   20591637.3974
  20283142.430    -6703412.16349  -5195522.29349  20283146.2844   20283155.5304
  16645010.413   -38196357.23149 -29745259.95749  16645013.2184   16645017.9304
  20892755.893   -20900845.81749 -15376195.53249  20892758.6504   20892765.7374
  17541359.822   -34221690.09049 -26653219.62249  17541362.5024   17541368.5684
  17695221.181     -596265.36149   -455711.39449  17695223.7154   17695229.2334
  18315511.865   -25678869.82849 -19379075.88849  18315514.8274   18315521.4124
 96  5  9  0 36 29.9870000  0  8  5 26 23  6 24 20 16 17
  19388918.849   -29245600.00049 -22053177.42149  19388921.3284   19388926.9244
  20572640.619    -7872939.17349  -5665319.25849  20572643.8904   20572650.9284
  20259394.663    -6828213.21349  -5292769.68049  20259396.2344   20259406.6674
  16636017.053   -38243617.91849 -29782086.46549  16636019.8944   16636024.5344
  20904349.030   -20839921.91249 -15328722.40949  20904352.4994   20904358.6684
  17551548.141   -34168149.16849 -26611499.45949  17551550.9724   17551556.8944
  17700919.681     -566322.15549   -432379.02849  17700921.8134   17700927.4994
  18300020.135   -25760281.25549 -19442513.31749  18300023.0454   18300029.7824
 96  5  9  0 36 59.9870000  0  8  5 26 23  6 24 20 16 17
  19405366.371   -29159162.71849 -21985823.80649  19405369.3114   19405375.9774
  20553665.905    -7972656.15549  -5743020.67449  20553668.4474   20553675.6334
  20235670.531    -6952887.56149  -5389918.34049  20235672.1034   20235681.8764
  16627087.261   -38290543.48949 -29818651.84149  16627090.1874   16627094.8334
  20915937.858   -20779012.58049 -15281260.63749  20915942.6884   20915949.8054
  17561820.471   -34114168.36749 -26569436.53049  17561823.2484   17561829.0914
  17706717.369     -535853.06849   -408636.88849  17706719.6204   17706725.5314
  18284576.219   -25841441.14149 -19505754.74249  18284578.7764   18284585.4934
 96  5  9  0 37 29.9870000  0  8  5 26 23  6 24 20 16 17
  19421851.398   -29072536.05449 -21918322.62649  19421853.2554   19421860.9704
  20534703.042    -8072300.79549  -5820665.71549  20534706.6234   20534714.5734
  20211967.487    -7077444.72649  -5486975.68549  20211970.6104   20211980.1364
  16618222.886   -38337127.71649 -29854951.23849  16618225.6774   16618230.0704
  20927526.133   -20718129.90449 -15233819.64749  20927528.5304   20927535.7274
  17572180.133   -34059727.51349 -26527015.11549  17572182.9364   17572188.9124
  17712612.842     -504871.75949   -384495.61549  17712615.1994   17712620.5824
  18269180.899   -25922344.10649 -19568795.97549  18269183.4694   18269189.7644
 96  5  9  0 37 59.9870000  0  8  5 26 23  6 24 20 16 17
  19438373.582   -28985717.11149 -21850671.62149  19438374.7854   19438382.8494
  20515758.501    -8171856.66849  -5898241.60449  20515760.6714   20515768.1154
  20188287.945    -7201879.71249  -5583937.82249  20188290.1454   20188300.2954
  16609427.016   -38383349.70849 -29890968.37449  16609429.6444   16609434.3204
  20939106.106   -20657278.52749 -15186403.05049  20939107.9294   20939115.2594
  17582625.414   -34004842.51049 -26484247.61349  17582627.2634   17582633.3344
  17718607.814     -473371.46249   -359949.93849  17718609.6144   17718615.0934
  18253832.359   -26003001.42949 -19631645.80049  18253834.9034   18253841.1164
 96  5  9  0 38 29.9870000  0  8  5 26 23  6 24 20 16 17
  19454929.006   -28898708.07849 -21782872.49749  19454932.6734   19454940.1054
  20496834.682    -8271303.41249  -5975732.45249  20496837.0744   20496845.0134
  20164636.229    -7326176.32549  -5680792.14749  20164637.4204   20164647.2494
  16600703.615   -38429190.12249 -29926688.17749  16600706.7864   16600711.2524
  20950679.517   -20596454.05249 -15139007.40349  20950683.4934   20950689.9684
  17593155.330   -33949506.71649 -26441128.84849  17593157.3114   17593163.3284
  17724704.043     -441331.48249   -334983.72449  17724706.6444   17724712.1344
  18238531.957   -26083404.30149 -19694297.34449  18238534.7414   18238540.6744
 96  5  9  0 38 59.9870000  0  8  5 26 23  6 24 20 16 17
  19471516.657   -28811532.91249 -21714943.91849  19471520.9684   19471530.4034
  20477929.181    -8370647.20349  -6053143.08949  20477931.4634   20477941.0724
  20141007.245    -7450345.99749  -5777547.54949  20141008.8554   20141017.9764
  16592047.702   -38474678.70749 -29962133.82449  16592050.5264   16592055.2714
  20962245.954   -20535668.74949 -15091642.29649  20962249.7204   20962257.2094
  17603772.196   -33893714.56349 -26397654.47949  17603774.2164   17603780.2054
  17730900.879     -408764.80749   -309607.09949  17730903.7034   17730909.6974
  18223280.041   -26163550.32349 -19756748.75749  18223283.2264   18223289.2484
 96  5  9  0 39 29.9870000  0  8  5 26 23  6 24 20 16 17
  19488139.255   -28724187.93649 -21646883.01749  19488142.6524   19488150.0344
  20459042.740    -8469888.71949  -6130474.04349  20459047.1664   20459054.9014
  20117405.931    -7574364.00449  -5874184.77449  20117409.1174   20117418.2644
  16583457.176   -38519822.79549 -29997311.03649  16583459.7874   16583464.5544
  20973807.726   -20474910.56349 -15044298.32549  20973812.0844   20973818.7254
  17614474.942   -33837470.52549 -26353827.99249  17614477.2054   17614482.9234
  17737199.302     -375671.20849   -283819.88249  17737201.4684   17737206.9294
  18208081.709   -26243421.26649 -19818985.81949  18208084.4594   18208090.5944
 96  5  9  0 39 59.9870000  0  7  5 26 23  6 20 16 17
  19504793.529   -28636670.45749 -21578687.69949  19504796.6424   19504804.7404
  20440179.133    -8569023.52349  -6207721.82149  20440181.7444   20440190.7624
  20093841.575    -7698209.49749  -5970687.56649  20093841.1564   20093850.9114
  16574935.050   -38564606.49149 -30032207.42549  16574937.6824   16574942.5334
  17625262.469   -33780779.19249 -26309652.96149  17625265.0704   17625271.3854
  17743598.894     -342038.69049   -257612.73349  17743601.4894   17743606.7714
  18192939.129   -26322993.74249 -19880990.32349  18192941.9274   18192948.2914
 96  5  9  0 40 29.9870000  0  7  5 26 23  6 20 16 17
  19521477.095   -28549002.72749 -21510375.31549  19521479.2364   19521487.3444
  20421331.585    -8668077.32749  -6284906.51649  20421333.0924   20421340.0784
  20070304.115    -7821896.16749  -6067066.60549  20070304.7664   20070313.8604
  16566473.702   -38609069.72349 -30066854.10049  16566476.8384   16566481.3084
  17636133.648   -33723650.78449 -26265137.35849  17636136.4054   17636142.4644
  17750095.861     -307898.12049   -231009.70149  17750097.9414   17750103.9064
  18177853.407   -26402269.56449 -19942763.65349  18177856.3094   18177862.8684
 96  5  9  0 40 59.9870000  0  7  5 26 23  6 20 16 17
  19538186.969   -28461193.07049 -21441952.33549  19538189.7944   19538196.8234
  20402493.985    -8767069.01449  -6362042.75949  20402495.5424   20402504.4154
  20046798.125    -7945414.18049  -6163314.22649  20046799.6004   20046808.9464
  16558070.136   -38653231.35849 -30101265.76449  16558072.9354   16558077.7894
  17647086.075   -33666095.38049 -26220289.02749  17647088.8184   17647094.5114
  17756686.036     -273265.89149   -204023.55149  17756688.4584   17756694.1074
  18162822.257   -26481259.48649 -20004314.19849  18162825.2074   18162831.3894
 96  5  9  0 41 29.9870000  0  7  5 26 23  6 20 16 17
  19554918.522   -28373264.42949 -21373436.63149  19554921.8264   19554929.3504
  20383662.515    -8866027.71749  -6439153.30449  20383664.2314   20383672.1774
  20023322.668    -8068782.31149  -6259445.03549  20023322.8974   20023332.8274
  16549722.731   -38697095.85949 -30135445.89449  16549725.8734   16549730.6024
  17658114.988   -33608140.70249 -26175129.57649  17658117.5914   17658123.8924
  17763368.217     -238151.67849   -176661.83749  17763370.4064   17763376.0554
  18147838.583   -26559997.76649 -20065668.66249  18147842.0474   18147848.0084
 96  5  9  0 41 59.9870000  0  7  5 26 23  6 20 16 17
  19571674.675   -28285207.44749 -21304820.92249  19571678.1144   19571686.4674
  20364838.806    -8964933.59349  -6516222.67549  20364843.1724   20364850.6664
  19999874.326    -8191996.21149  -6355455.66849  19999876.3234   19999886.4234
  16541435.705   -38740646.78449 -30169381.68349  16541438.3164   16541442.9204
  17669222.350   -33549771.55449 -26129647.16149  17669224.9194   17669230.7164
  17770144.857     -202541.26249   -148913.46849  17770146.8064   17770152.3164
  18132904.025   -26638480.98949 -20126824.38149  18132907.1934   18132913.6814
 96  5  9  0 42 29.9870000  0  7  5 26 23  6 20 16 17
  19588455.960   -28197031.16049 -21236112.25849  19588458.1944   19588465.6374
  20346032.161    -9063771.04049  -6593238.75349  20346035.4974   20346043.1544
  19976457.338    -8315050.56249  -6451341.97249  19976459.8874   19976469.2724
  16533209.033   -38783878.54549 -30203068.76949  16533211.5634   16533216.4314
  17680411.796   -33490968.89449 -26083826.94849  17680414.3664   17680420.6524
  17777017.567     -166422.77749   -120769.20249  17777019.9344   17777025.5074
  18118015.885   -26716717.53549 -20187787.88549  18118018.6724   18118025.1894
 96  5  9  0 42 59.9870000  0  7  5 26 23  6 20 16 17
  19605259.950   -28108730.17349 -21167306.40549  19605260.3844   19605268.6334
  20327242.335    -9162505.25449  -6670174.38549  20327246.5114   20327253.5584
  19953073.586    -8437936.00749  -6547096.67349  19953075.4714   19953083.7424
  16525051.757   -38826744.16049 -30236470.55249  16525054.5404   16525059.1554
  17691687.621   -33431716.21749 -26037656.07049  17691690.0934   17691696.0524
  17783992.043     -129771.39049    -92209.68849  17783994.4604   17784000.0584
  18103176.027   -26794700.17349 -20248553.54349  18103179.2284   18103185.3004
 96  5  9  0 43 29.9870000  0  7  5 26 23  6 20 16 17
  19622084.027   -28020305.10249 -21098403.87849  19622086.8344   19622095.1884
  20308478.499    -9261112.30149  -6747010.92249  20308482.2944   20308488.8174
  19929720.880    -8560655.73749  -6642722.23649  19929722.6014   19929731.5734
  16516966.686   -38869232.10649 -30269578.04149  16516969.4044   16516974.0064
  17703048.052   -33372016.31849 -25991136.70749  17703050.3284   17703056.5904
  17791066.671      -92594.07249    -63240.35949  17791069.3004   17791074.7434
  18088385.673   -26872426.35449 -20309119.37249  18088388.1264   18088394.7074
 96  5  9  0 43 59.9870000  0  7  5 26 23  6 20 16 17
  19638937.786   -27931744.80549 -21029395.97549  19638940.5804   19638947.3014
  20289743.000    -9359571.88249  -6823732.56249  20289745.4424   20289752.9314
  19906399.558    -8683201.02449  -6738211.86249  19906402.6224   19906410.9814
  16508954.337   -38911338.32249 -30302388.08049  16508956.8694   16508961.4914
  17714493.032   -33311868.95349 -25944268.67949  17714496.3974   17714502.5344
  17798238.857      -54904.33149    -33871.74049  17798241.3544   17798246.6734
  18073646.883   -26949877.27049 -20369470.69449  18073650.0204   18073656.3044
 96  5  9  0 44 29.9870000  0  7  5 26 23  6 20 16 17
  19655809.855   -27843081.89749 -20960308.10949  19655812.8704   19655820.3574
  20271029.782    -9457908.30649  -6900358.24449  20271032.6034   20271040.0544
  19883110.126    -8805596.84549  -6833585.02149  19883111.5514   19883119.9524
  16501010.484   -38953082.09549 -30334915.68949  16501013.1024   16501017.8794
  17726017.944   -33251307.29149 -25897077.81349  17726020.6404   17726027.1294
  17805505.010      -16723.29749     -4120.29249  17805506.9424   17805512.3764
  18058958.247   -27027067.87649 -20429619.17449  18058960.7984   18058966.9684
 96  5  9  0 44 59.9870000  0  7  5 26 23  6 20 16 17
  19672705.237   -27754304.40749 -20891130.97349  19672706.6454   19672714.1724
  20252339.196    -9556130.76249  -6976895.12849  20252341.4114   20252348.3054
  19859843.884    -8927857.80449  -6928853.10549  19859846.0894   19859854.6904
  16493134.416   -38994473.36749 -30367168.62649  16493136.9014   16493141.3154
  17737615.828   -33190362.16149 -25849588.14949  17737617.8894   17737624.4194
  17812857.681       21916.24249     25988.42749  17812859.8194   17812865.2384
  18044319.008   -27103998.53149 -20489565.09749  18044321.6524   18044327.7834
 96  5  9  0 45 29.9870000  0  7  5 26 23  6 20 16 17
  19689621.007   -27665405.54949 -20821859.26249  19689623.3774   19689632.2314
  20233666.315    -9654249.69049  -7053351.31649  20233669.1744   20233677.4734
  19836602.010    -9049981.28349  -7024014.06249  19836606.4014   19836615.4234
  16485320.974   -39035532.09849 -30399162.44349  16485323.6704   16485327.9184
  17749282.283   -33129054.49049 -25801815.98149  17749284.7474   17749291.3264
  17820296.590       61007.00549     56448.75549  17820298.4914   17820304.0184
  18029729.433   -27180664.38349 -20549304.67949  18029732.5324   18029738.5154
 96  5  9  0 45 59.9870000  0  7  5 26 23  6 20 16 17
  19706563.083   -27576373.56649 -20752483.82949  19706566.2984   19706573.6364
  20215016.614    -9752257.72549  -7129721.12149  20215020.3334   20215027.0144
  19813392.162    -9171961.36749  -7119063.29349  19813393.5284   19813402.4684
  16477573.326   -39076246.78949 -30430888.18049  16477576.0194   16477580.4034
  17761020.196   -33067373.42449 -25753752.86049  17761022.2084   17761028.8634
  17827824.701      100568.43849     87275.83549  17827826.8064   17827832.3034
  18015190.634   -27257066.77149 -20608838.96049  18015193.9214   18015199.5804
 96  5  9  0 46 29.9870000  0  7  5 26 23  6 20 16 17
  19723532.011   -27487201.33749 -20682999.11849  19723535.0764   19723542.9174
  20196391.110    -9850133.09149  -7205987.55949  20196394.5034   20196401.9654
  19790213.106    -9293767.79249  -7213977.19749  19790214.8864   19790223.4754
  16469895.649   -39116592.23049 -30462326.18449  16469898.4664   16469902.7224
  17772832.081   -33005298.31449 -25705382.68349  17772834.7214   17772840.9974
  17835448.064      140630.03649    118492.65849  17835450.4904   17835455.9494
  18000702.511   -27333204.29049 -20668166.85549  18000705.0684   18000711.0594
 96  5  9  0 46 59.9860000  0  7  5 26 23  6 20 16 17
  19740522.609   -27397917.64549 -20613427.54749  19740525.1354   19740533.1704
  20177793.087    -9947879.30349  -7282153.32649  20177794.3904   20177801.2264
  19767066.159    -9415403.43849  -7308758.03049  19767068.9214   19767076.8214
  16462284.798   -39156588.55849 -30493492.15749  16462287.4314   16462291.7874
  17784716.087   -32942850.57149 -25656722.15049  17784718.2564   17784724.5294
  17843161.742      181165.05749    150078.38049  17843164.0794   17843169.5924
  17986258.820   -27409106.33749 -20727311.26849  17986261.7364   17986267.6574
 96  5  9  0 47 29.9860000  0  7  5 26 23  6 20 16 17
  19757532.130   -27308529.49849 -20543774.57449  19757534.6454   19757543.3504
  20159216.395   -10045496.17749  -7358218.30649  20159218.1104   20159226.1654
  19743953.696    -9536856.09749  -7403396.28449  19743957.1844   19743964.2724
  16454739.368   -39196239.71249 -30524389.15849  16454742.2144   16454746.7044
  17796672.279   -32880017.50149 -25607761.36149  17796675.1574   17796681.2634
  17850971.080      222201.32949    182054.68549  17850972.8304   17850978.2924
  17971857.735   -27484785.81049 -20786282.24049  17971860.5024   17971866.3984
 96  5  9  0 47 59.9860000  0  7  5 26 23  6 20 16 17
  19774559.824   -27219052.69049 -20474052.51649  19774562.4764   19774569.4844
  20140663.287   -10142987.86449  -7434185.73949  20140665.7504   20140672.9414
  19720877.365    -9658123.56049  -7497890.23649  19720880.1904   19720888.1204
  16447261.357   -39235535.68649 -30555009.39849  16447264.6534   16447268.8754
  17808703.561   -32816793.01249 -25558495.57649  17808706.0744   17808712.6504
  17858872.770      263731.58349    214415.91149  17858875.7404   17858881.1404
  17957496.943   -27560252.04149 -20845087.05249  17957499.5904   17957505.6804
 96  5  9  0 48 29.9860000  0  7  5 26 23  6 20 16 17
  19791602.924   -27129490.76449 -20404264.13849  19791604.9244   19791613.8524
  20122135.236   -10240355.37649  -7510056.42449  20122137.9284   20122144.5224
  19697838.458    -9779196.04349  -7592232.26149  19697841.0224   19697848.6794
  16439853.109   -39274467.19149 -30585345.63949  16439855.7634   16439860.2404
  17820808.205   -32753187.44749 -25508932.83949  17820810.0904   17820816.2604
  17866869.038      305746.84149    247155.06249  17866870.9484   17866876.1684
  17943179.988   -27635483.98149 -20903709.29949  17943183.1664   17943189.1524
 96  5  9  0 48 59.9860000  0  7  5 26 23  6 20 16 17
  19808661.207   -27039844.00449 -20334409.65749  19808664.5774   19808673.0534
  20103624.801   -10337617.39849  -7585844.89949  20103629.2474   20103636.4854
  19674833.171    -9900097.46949  -7686440.99749  19674833.3484   19674841.6214
  16432508.823   -39313063.69049 -30615420.83249  16432511.4004   16432515.7024
  17832980.026   -32689222.70849 -25459090.23749  17832982.1634   17832988.5694
  17874952.569      348225.49449    280255.29949  17874954.5224   17874960.0824
  17928908.020   -27710485.83949 -20962152.26449  17928910.8134   17928916.9234
 96  5  9  0 49 29.9860000  0  7  5 26 23  6 20 16 17
  19825747.026   -26950067.13749 -20264453.79849  19825748.2254   19825757.6114
  20085141.201   -10434751.48949  -7661533.69649  20085145.2344   20085152.5044
  19651861.157   -10020809.46549  -7780502.12949  19651862.5424   19651870.8584
  16425237.098   -39351274.36749 -30645195.38749  16425240.0204   16425244.5754
  17845227.510   -32624862.52949 -25408939.49049  17845229.6434   17845236.0084
  17883129.032      391192.86149    313736.35649  17883130.9824   17883136.4944
  17914686.345   -27785219.72049 -21020386.41149  17914689.2874   17914695.3774
 96  5  9  0 49 59.9860000  0  7  5 26 23  6 20 16 17
  19842853.315   -26860169.09749 -20194403.51749  19842855.8194   19842863.2064
  20066682.790   -10531759.87849  -7737124.54849  20066685.8384   20066691.9064
  19628922.695   -10141348.80249  -7874428.73149  19628925.0784   19628932.7624
  16418039.606   -39389096.95849 -30674667.53649  16418042.5904   16418047.2074
  17857549.444   -32560112.04749 -25358484.61549  17857550.9534   17857557.2534
  17891393.887      434626.94049    347581.08349  17891396.1244   17891401.6304
  17900516.350   -27859682.57449 -21078409.37649  17900519.4444   17900525.1814
 96  5  9  0 50 29.9860000  0  7  5 26 23  6 20 16 17
  19859980.088   -26770166.10549 -20124271.46349  19859982.7234   19859991.2034
  20048245.463   -10628649.17549  -7812622.59549  20048246.8244   20048253.4914
  19606013.108   -10261738.97749  -7968239.11349  19606014.9704   19606023.2064
  16410908.933   -39426570.14549 -30703867.43149  16410911.4914   16410916.3564
  17869939.507   -32494997.64649 -25307746.16949  17869942.0064   17869948.1434
  17899742.849      478497.51749    381765.94049  17899744.7644   17899749.5274
  17886394.166   -27933896.18249 -21136238.12849  17886397.2394   17886402.8034
 96  5  9  0 50 59.9860000  0  7  5 26 23  6 20 16 17
  19877128.183   -26680060.27749 -20054059.26649  19877129.8814   19877137.3814
  20029831.503   -10725408.07549  -7888019.03849  20029834.5944   20029841.9314
  19583132.739   -10381977.13349  -8061931.02149  19583134.8674   19583142.7054
  16403843.804   -39463696.73049 -30732797.23349  16403846.6884   16403851.0304
  17882403.099   -32429502.38849 -25256710.94849  17882405.5534   17882411.5694
  17908174.770      522810.92549    416295.86149  17908177.1704   17908182.4154
  17872318.547   -28007864.53349 -21193875.76949  17872321.4024   17872327.1444
 96  5  9  0 51 29.9860000  0  7  5 26 23  6 20 16 17
  19894290.999   -26589867.96149 -19983779.68149  19894292.0964   19894301.5554
  20011444.958   -10822022.03149  -7963302.54249  20011448.8184   20011457.1444
  19560285.233   -10502046.01549  -8155491.04649  19560285.8574   19560294.0294
  16396847.789   -39500461.60349 -30761445.18549  16396850.7124   16396855.0774
  17894939.585   -32363622.13549 -25205375.72949  17894941.7274   17894948.1784
  17916692.958      567572.21249    451174.77949  17916695.0814   17916700.1264
  17858291.206   -28081580.84649 -21251317.01849  17858293.6294   17858299.8324
 96  5  9  0 51 59.9860000  0  7  5 26 23  6 20 16 17
  19911464.734   -26499607.21849 -19913446.76749  19911469.0254   19911476.4064
  19993086.352   -10918497.62949  -8038478.21749  19993089.9954   19993097.7394
  19537471.730   -10621927.79249  -8248905.25849  19537473.1604   19537481.3194
  16389915.672   -39536893.03649 -30789833.31849  16389917.9924   16389922.3134
  17907547.108   -32297369.51149 -25153750.35249  17907549.5234   17907555.6364
  17925294.789      612775.39949    486398.03549  17925296.5834   17925301.9504
  17844311.175   -28155044.62949 -21308561.49749  17844313.8954   17844319.6254
 96  5  9  0 52 29.9860000  0  7  5 26 23  6 20 16 17
  19928654.934   -26409279.65249 -19843061.79549  19928657.0394   19928665.8074
  19974753.789   -11014830.33949  -8113542.56149  19974758.0054   19974765.5474
  19514698.328   -10741598.92249  -8342155.33549  19514700.5414   19514708.1844
  16383047.798   -39572982.19349 -30817954.73149  16383050.2984   16383054.7844
  17920224.810   -32230748.10449 -25101837.60449  17920227.1234   17920233.4314
  17933981.612      658426.06449    521969.96749  17933984.0814   17933989.0734
  17830379.653   -28228254.96349 -21365608.47549  17830382.1854   17830388.2804
 96  5  9  0 52 59.9860000  0  7  5 26 23  6 20 16 17
  19945854.483   -26318899.92149 -19772636.16849  19945856.6194   19945864.2464
  19956447.628   -11111033.33049  -8188505.81249  19956452.5194   19956459.2754
  19491966.763   -10861053.09049  -8435236.35149  19491968.9114   19491976.9674
  16376248.193   -39608714.34349 -30845797.97249  16376250.6474   16376255.1824
  17932970.728   -32163767.93649 -25049645.31549  17932972.7394   17932979.5394
  17942755.310      704529.83349    557894.97049  17942757.0994   17942762.1774
  17816498.412   -28301200.19249 -21422448.87849  17816501.4644   17816507.6294
 96  5  9  0 53 29.9860000  0  8  5 26 23 22  6 20 16 17
  19963060.846   -26228471.25649 -19702172.41249  19963064.1994   19963073.4664
  19938164.428   -11207115.72049  -8263375.11349  19938167.9814   19938175.6054
  19469275.786   -10980296.89349  -8528153.45749  19469278.2724   19469285.7194
  20645622.469    -5360323.41559  -3887739.07059  20645625.0454   20645631.7684
  16369516.629   -39644089.83749 -30873363.28849  16369518.9304   16369523.4884
  17945780.012   -32096454.09349 -24997193.01249  17945782.4424   17945788.7154
  17951613.274      751079.95449    594167.78649  17951615.0504   17951620.4874
  17802665.763   -28373893.63949 -21479093.08749  17802668.1664   17802674.4474
 96  5  9  0 53 59.9860000  0  8  5 26 23 22  6 20 16 17
  19980282.987   -26137975.96849 -19631656.73149  19980285.3304   19980294.0864
  19919909.955   -11303056.78549  -8338134.27749  19919910.5824   19919917.6154
  19446623.593   -11099330.93149  -8620907.12549  19446626.0584   19446633.7564
  20626483.752    -5460903.67849  -3966113.28349  20626486.1334   20626491.6514
  16362857.213   -39679082.11149 -30900630.00549  16362860.2334   16362864.5644
  17958653.495   -32028802.97549 -24944477.90549  17958656.2144   17958662.4154
  17960556.607      798079.13349    630790.50749  17960559.0464   17960564.2364
  17788881.519   -28446328.23149 -21535535.60249  17788884.5034   17788890.1854
 96  5  9  0 54 29.9860000  0  8  5 26 23 22  6 20 16 17
  19997515.040   -26047415.13949 -19561090.01449  19997518.3024   19997527.2744
  19901680.774   -11398842.99049  -8412772.78649  19901683.7774   19901690.0584
  19424009.652   -11218171.19649  -8713509.78849  19424011.6534   19424018.8854
  20607408.264    -5561147.59649  -4044225.39349  20607409.8594   20607416.8304
  16356275.483   -39713670.78149 -30927582.21549  16356278.4494   16356282.6234
  17971590.215   -31960817.27149 -24891502.07849  17971593.2794   17971599.5944
  17969586.889      845530.88249    667765.88449  17969588.5964   17969594.0844
  17775146.389   -28518505.86749 -21591777.89249  17775149.4794   17775155.2394
 96  5  9  0 54 59.9860000  0  8  5 26 23 22  6 20 16 17
  20014759.153   -25956798.89149 -19490480.09349  20014763.1194   20014770.7084
  19883482.039   -11494468.79849  -8487286.29649  19883486.2184   19883494.1094
  19401427.901   -11336834.49649  -8805974.55549  19401429.9054   19401438.0034
  20588399.613    -5661037.64349  -4122061.75249  20588400.9234   20588407.0444
  16349768.543   -39747865.65649 -30954227.57649  16349771.0214   16349775.5024
  17984590.029   -31892504.70149 -24838271.55349  17984592.6224   17984598.8634
  17978701.106      893429.29449    705089.31049  17978703.4894   17978708.6124
  17761460.738   -28590424.03249 -21647817.99749  17761463.9154   17761469.6354
 96  5  9  0 55 29.9860000  0  8  5 26 23 22  6 20 16 17
  20032013.143   -25866131.41149 -19419830.24049  20032016.2204   20032024.9284
  19865320.677   -11589911.25849  -8561656.94849  19865323.6794   19865330.4814
  19378880.725   -11455327.75749  -8898306.82649  19378882.0694   19378889.2094
  20569457.000    -5760578.56249  -4199626.07749  20569459.6464   20569466.1834
  16343335.642   -39781670.65049 -30980569.13249  16343338.3774   16343342.7154
  17997650.689   -31823871.34249 -24784791.05149  17997653.2264   17997659.5674
  17987896.344      941750.36249    742742.08349  17987898.6424   17987903.8364
  17747821.047   -28662102.68349 -21703671.46549  17747823.6244   17747829.8114
 96  5  9  0 55 59.9860000  0  8  5 26 23 22  6 20 16 17
  20049273.728   -25775425.66949 -19349150.57849  20049275.7704   20049285.1944
  19847194.807   -11685167.08649  -8635882.17049  19847197.2964   19847203.2044
  19356365.155   -11573642.87449  -8990500.28949  19356367.1734   19356374.4644
  20550581.781    -5859772.25249  -4276919.82849  20550582.6244   20550589.3864
  16336973.878   -39815101.47349 -31006619.12849  16336976.6364   16336981.0374
  18010772.826   -31754920.58149 -24731063.23349  18010774.3284   18010780.9794
  17997170.693      990484.69849    780716.87749  17997172.2384   17997177.6014
  17734226.550   -28733539.36249 -21759336.38049  17734229.6884   17734235.6124
 96  5  9  0 56 29.9860000  0  8  5 26 23 22  6 20 16 17
  20066538.367   -25684699.75749 -19278455.20649  20066541.8174   20066550.3324
  19829102.771   -11780248.04749  -8709971.13349  19829104.7394   19829112.1194
  19333887.221   -11691764.47749  -9082542.96849  19333889.3434   19333896.0364
  20531768.892    -5958633.30849  -4353954.38949  20531770.0054   20531777.0134
  16330677.395   -39848190.45449 -31032402.75649  16330679.7914   16330684.3604
  18023953.019   -31685655.30849 -24677090.34149  18023955.3474   18023961.8034
  18006521.076     1039627.77449    819010.17249  18006524.0884   18006529.5254
  17720678.009   -28804737.09549 -21814815.10249  17720681.1684   17720687.4064
 96  5  9  0 56 59.9860000  0  8  5 26 23 22  6 20 16 17
  20083812.361   -25593937.87349 -19207731.80149  20083812.5814   20083821.4484
  19811044.139   -11875132.19749  -8783906.72349  19811047.0974   19811053.3564
  19311450.003   -11809672.75349  -9174419.41349  19311451.3704   19311458.8914
  20513022.365    -6057147.71249  -4430718.83749  20513024.0604   20513029.9504
  16324446.554   -39880932.23449 -31057915.84149  16324449.3424   16324453.8134
  18037196.493   -31616061.26349 -24622861.25649  18037198.2424   18037205.1594
  18015952.641     1089185.35949    857626.45849  18015954.2934   18015959.9654
  17707176.628   -28875687.88849 -21870101.40749  17707179.6564   17707185.6344
 96  5  9  0 57 29.9860000  0  8  5 26 23 22  6 20 16 17
  20101093.321   -25503129.50049 -19136972.20849  20101093.8204   20101101.9504
  19793028.368   -11969819.25749  -8857688.75549  19793031.0634   19793036.4224
  19289056.125   -11927352.51649  -9266117.79549  19289058.0554   19289065.7754
  20494341.801    -6155310.56949  -4507209.33649  20494344.1504   20494349.6194
  16318284.088   -39913317.15749 -31083150.85249  16318286.7914   16318291.3484
  18050503.674   -31546131.44449 -24568370.53849  18050505.7374   18050512.3794
  18025462.235     1139160.96449    896568.48049  18025464.6214   18025470.1034
  17693722.170   -28946396.03149 -21925198.63149  17693724.5664   17693730.4654
 96  5  9  0 57 59.9860000  0  8  5 26 23 22  6 20 16 17
  20118379.582   -25412276.62249 -19066177.91649  20118381.8794   20118391.0334
  19775043.514   -12064327.60349  -8931331.52449  19775045.1804   19775053.1914
  19266706.553   -12044799.90949  -9357635.13049  19266708.3654   19266715.8244
  20475731.615    -6253113.49849  -4583419.37849  20475733.0314   20475739.4844
  16312188.142   -39945352.25849 -31108113.27149  16312190.6754   16312195.1904
  18063875.211   -31475860.75549 -24513614.20949  18063877.8854   18063884.2744
  18035053.617     1189561.11549    935841.31649  18035055.3914   18035060.7574
  17680313.323   -29016859.56449 -21980105.25149  17680315.6264   17680321.6434
 96  5  9  0 58 29.9860000  0  8  5 26 23 22  6 20 16 17
  20135679.105   -25321364.82249 -18995337.72649  20135682.5384   20135691.1164
  19757096.419   -12158640.76249  -9004822.22549  19757098.6754   19757104.1624
  19244401.529   -12162012.38649  -9448969.40549  19244403.2234   19244410.9414
  20457191.477    -6350545.65349  -4659340.51449  20457192.5574   20457197.6654
  16306165.017   -39977002.52349 -31132775.81749  16306167.7814   16306172.6094
  18077316.520   -31405227.01949 -24458574.98649  18077318.8714   18077325.4354
  18044726.928     1240396.95749    975453.64949  18044728.9244   18044734.4574
  17666952.534   -29087068.85249 -22034813.75249  17666955.3684   17666961.2464
 96  5  9  0 58 59.9860000  0  8  5 26 23 22  6 20 16 17
  20152989.784   -25230400.08049 -18924456.27349  20152991.9004   20153001.1244
  19739183.264   -12252762.56349  -9078163.78349  19739186.9964   19739196.0484
  19222136.435   -12279014.60949  -9540139.85249  19222138.6454   19222146.3084
  20438719.045    -6447609.80449  -4734974.87849  20438721.7014   20438727.3824
  16300217.575   -40008258.96149 -31157131.49749  16300219.8414   16300224.3904
  18090822.954   -31334247.62849 -24403266.41349  18090825.9554   18090832.7944
  18054483.117     1291660.25049   1015399.06249  18054483.9064   18054489.7764
  17653639.415   -29157030.02749 -22089328.91949  17653642.0834   17653647.6774
 96  5  9  0 59 29.9860000  0  8  5 26 23 22  6 20 16 17
  20170303.927   -25139408.19449 -18853553.67949  20170307.9114   20170316.7804
  19721307.516   -12346712.46649  -9151371.41249  19721309.4834   19721315.9344
  19199910.237   -12395810.40249  -9631149.44849  19199912.5244   19199920.5204
  20420316.356    -6544326.74549  -4810338.70649  20420316.2984   20420323.2674
  16294341.489   -40039137.46649 -31181192.67649  16294343.9564   16294348.4264
  18104389.869   -31262959.32549 -24347717.14149  18104391.5404   18104398.4644
  18064314.693     1343334.32949   1055664.56949  18064317.4824   18064322.9744
  17640370.678   -29226755.64349 -22143660.53449  17640373.5764   17640379.9004
 96  5  9  0 59 59.9860000  0  8  5 26 23 22  6 20 16 17
  20187630.939   -25048366.13449 -18782611.98849  20187632.4284   20187641.2144
  19703464.427   -12440471.33849  -9224430.19249  19703467.3434   19703475.3284
  19177726.515   -12512388.03449  -9721989.04549  19177728.6884   19177736.0384
  20401976.844    -6640691.89349  -4885428.40549  20401978.7234   20401984.9894
  16288540.727   -40069619.91749 -31204945.23449  16288543.2004   16288548.0434
  18118013.198   -31191364.09049 -24291928.69949  18118015.6284   18118022.5654
  18074228.718     1395426.88449   1096256.15949  18074230.5384   18074235.9644
  17627151.114   -29296223.58849 -22197791.36549  17627154.3504   17627160.4794
 96  5  9  1  0 29.9860000  0  8  5 26 23 22  6 20 16 17
  20204969.568   -24957259.52749 -18711620.01949  20204969.9694   20204978.5964
  19685666.203   -12534008.74749  -9297316.40149  19685668.1034   19685673.8834
  19155587.991   -12628723.68849  -9812640.09949  19155590.3854   19155598.3304
  20383710.316    -6736684.72549  -4960227.98049  20383712.7194   20383717.3484
  16282819.750   -40099686.72549 -31228373.91649  16282821.9694   16282826.5024
  18131696.440   -31119460.00649 -24235899.59349  18131698.7884   18131705.0884
  18084225.387     1447960.96549   1137191.79349  18084227.4434   18084232.9834
  17613987.734   -29365399.82849 -22251694.89449  17613990.5414   17613996.5154
 96  5  9  1  0 59.9860000  0  8  5 26 23 22  6 20 16 17
  20222314.837   -24866100.93749 -18640587.53849  20222316.5744   20222326.5284
  19667908.125   -12627333.37549  -9370036.79749  19667909.9394   19667916.1614
  19133497.546   -12744816.46949  -9903101.89849  19133499.3604   19133506.3704
  20365515.652    -6832301.52049  -5034734.55349  20365516.6314   20365522.9454
  16277174.920   -40129349.85149 -31251488.04149  16277177.3394   16277181.9174
  18145433.656   -31047271.15549 -24179648.59349  18145435.3414   18145442.4744
  18094303.689     1500920.50349   1178458.95749  18094305.4134   18094311.0374
  17600877.954   -29434293.47649 -22305378.21849  17600880.5524   17600886.2674
 96  5  9  1  1 29.9860000  0  8  5 26 23 22  6 20 16 17
  20239671.689   -24774894.34549 -18569517.64849  20239673.0974   20239681.4384
  19650186.724   -12720443.05949  -9442589.72649  19650190.4974   19650197.3664
  19111450.912   -12860669.56849  -9993376.93349  19111453.0444   19111460.6134
  20347388.922    -6927555.83949  -5108958.67849  20347391.4294   20347396.5044
  16271607.383   -40158606.55149 -31274285.47149  16271609.9274   16271614.5674
  18159224.979   -30974800.96849 -24123178.37349  18159226.7834   18159233.3574
  18104460.219     1554295.28649   1220049.67949  18104462.2694   18104467.4204
  17587818.027   -29502923.42449 -22358856.06549  17587820.4844   17587826.4934
 96  5  9  1  1 59.9860000  0  8  5 26 23 22  6 20 16 17
  20257039.012   -24683629.43349 -18498402.31749  20257040.4134   20257049.8444
  19632515.494   -12813320.38049  -9514961.57549  19632516.6594   19632522.9514
  19089450.328   -12976281.08449 -10083463.72449  19089451.8994   19089460.1094
  20329332.388    -7022439.40549  -5182893.91349  20329334.5944   20329340.7044
  16266121.393   -40187436.79349 -31296750.59949  16266123.7944   16266128.2594
  18173077.430   -30902006.76249 -24066455.66349  18173079.0854   18173085.5354
  18114699.869     1608104.97849   1261979.29949  18114702.0604   18114707.5144
  17574809.822   -29571281.35049 -22412121.94649  17574812.5994   17574818.5254
 96  5  9  1  2 29.9860000  0  8  5 26 23 22  6 20 16 17
  20274412.292   -24592330.70149 -18427260.64349  20274414.2034   20274423.3914
  19614884.494   -12905959.47049  -9587147.78149  19614887.6874   19614894.5314
  19067498.112   -13091642.72249 -10173355.81749  19067500.0214   19067507.6954
  20311349.732    -7116947.28049  -5256536.40549  20311351.4724   20311357.3104
  16260717.226   -40215834.60149 -31318878.76449  16260719.9884   16260724.2474
  18186994.189   -30828872.74449 -24009468.17449  18186996.0674   18187002.3904
  18125022.854     1662352.91749   1304250.40849  18125024.9284   18125030.3234
  17561850.476   -29639383.44249 -22465188.47849  17561852.8394   17561858.7824
 96  5  9  1  2 59.9860000  0  8  5 26 23 22  6 20 16 17
  20291792.478   -24500996.02249 -18356090.94449  20291795.1924   20291804.6834
  19597299.776   -12998361.92349  -9659149.60949  19597303.1014   19597310.5714
  19045591.694   -13206760.91449 -10263058.19649  19045593.6764   19045600.4064
  20293432.642    -7211093.71449  -5329897.23849  20293435.6184   20293442.3644
  16255397.591   -40243790.88249 -31340662.88049  16255399.9254   16255404.2454
  18200975.405   -30755401.38549 -23952217.81749  18200977.4584   18200983.4514
  18135426.341     1717020.15249   1346848.24649  18135427.7184   18135433.0874
  17548936.008   -29707248.64349 -22518070.42549  17548938.4554   17548944.4264
 96  5  9  1  3 29.9860000  0  8  5 26 23 22  6 20 16 17
  20309180.341   -24409630.16749 -18284896.95849  20309181.0964   20309191.0824
  19579758.911   -13090544.22849  -9730979.89049  19579763.0714   19579769.0084
  19023732.686   -13321632.50249 -10352568.43849  19023734.5484   19023741.7794
  20275586.077    -7304879.20149  -5402976.80149  20275589.5494   20275594.9194
  16250159.466   -40271316.81849 -31362111.66949  16250161.9414   16250166.1704
  18215020.407   -30681594.95649 -23894706.37849  18215022.0964   18215028.5524
  18145907.638     1772103.02549   1389769.95249  18145909.5564   18145915.2554
  17536067.239   -29774877.13549 -22570767.92649  17536069.3644   17536075.2174
 96  5  9  1  3 59.9860000  0  8  5 26 23 22  6 20 16 17
  20326569.883   -24318243.41349 -18213686.68349  20326571.2064   20326580.9784
  19562256.736   -13182527.19149  -9802654.83449  19562259.0234   19562265.6124
  19001922.929   -13436246.39649 -10441877.87049  19001923.9234   19001931.4064
  20257809.127    -7398293.83349  -5475767.41349  20257812.5124   20257818.0004
  16244999.671   -40298432.51449 -31383240.78649  16245001.9114   16245006.1674
  18229125.897   -30607468.65149 -23836945.67349  18229127.7314   18229134.0644
  18156464.380     1827579.89749   1432998.67049  18156466.3974   18156472.0954
  17523242.541   -29842268.81649 -22623280.89149  17523245.2204   17523250.9054
 96  5  9  1  4 29.9860000  0  8  5 26 23 22  6 20 16 17
  20343965.820   -24226827.79349 -18142453.91849  20343968.0454   20343977.4034
  19544789.655   -13274304.22149  -9874169.30749  19544793.6954   19544799.9934
  18980162.421   -13550594.78349 -10530980.41949  18980164.2154   18980171.7624
  20240109.073    -7491315.10149  -5548251.50649  20240111.5504   20240115.8664
  16239916.600   -40325143.35249 -31404054.44049  16239919.0754   16239923.5584
  18243287.086   -30533046.13049 -23778954.16149  18243289.7164   18243297.0404
  18167095.253     1883441.85149   1476527.45049  18167096.4174   18167102.1934
  17510466.062   -29909407.65649 -22675596.84449  17510469.1594   17510475.0374
 96  5  9  1  4 59.9860000  0  8  5 26 23 22  6 20 16 17
  20361366.791   -24135388.26049 -18071202.53249  20361367.4744   20361376.9614
  19527366.819   -13365878.87049  -9945526.08649  19527368.4264   19527374.1394
  18958449.601   -13664698.40249 -10619892.24649  18958450.9694   18958457.5504
  20222483.729    -7583931.07849  -5620419.77949  20222485.2644   20222491.5104
  16234905.028   -40351479.31349 -31424575.97749  16234907.6134   16234911.9034
  18257503.512   -30458341.35349 -23720742.70649  18257505.7504   18257512.5294
  18177796.519     1939678.81149   1520348.44749  18177798.4314   18177803.7044
  17497740.617   -29976282.03449 -22727706.72449  17497743.1154   17497748.9784
 96  5  9  1  5 29.9860000  0  8  5 26 23 22  6 20 16 17
  20378769.450   -24043938.34549 -17999943.06049  20378771.5544   20378779.5584
  19509976.995   -13457244.51549 -10016720.00149  19509981.0924   19509987.4514
  18936781.248   -13778563.04749 -10708617.85249  18936783.2154   18936790.2964
  20204940.482    -7676132.28549  -5692264.87249  20204941.0304   20204947.5124
  16229961.919   -40377453.95149 -31444815.96449  16229964.6764   16229969.1114
  18271774.630   -30383350.75649 -23662308.53049  18271776.0754   18271782.8084
  18188569.090     1996289.17849   1564460.40349  18188570.6884   18188575.8664
  17485063.279   -30042903.62349 -22779619.62049  17485065.4454   17485071.2404
 96  5  9  1  5 59.9860000  0  8  5 26 23 22  6 20 16 17
  20396173.586   -23952475.35049 -17928673.36549  20396175.2424   20396184.5544
  19492641.922   -13548359.87249 -10087718.89049  19492642.9764   19492649.3774
  18915156.783   -13892198.57849 -10797164.93349  18915158.7954   18915165.9424
  20187470.355    -7767929.41649  -5763795.07149  20187472.6174   20187479.0344
  16225089.575   -40403059.36449 -31464768.24549  16225092.1074   16225096.4484
  18286097.427   -30308079.35649 -23603655.54949  18286099.8364   18286106.2524
  18199414.129     2053280.39249   1608869.12749  18199415.7314   18199421.2264
  17472433.263   -30109273.59049 -22831336.45549  17472435.7114   17472441.5974
 96  5  9  1  6 29.9860000  0  8  5 26 23 22  6 20 16 17
  20413580.017   -23861006.23849 -17857398.95949  20413580.4334   20413591.0404
  19475354.263   -13639199.44249 -10158502.88549  19475356.4274   19475362.6324
  18893574.402   -14005609.72949 -10885537.17049  18893577.7674   18893584.2604
  20170081.742    -7859310.12149  -5835000.78849  20170083.9154   20170089.1304
  16220290.381   -40428279.45249 -31484420.26849  16220292.9064   16220297.3534
  18300476.640   -30232523.20049 -23544780.68149  18300477.9354   18300484.1844
  18210333.543     2110665.09049   1653584.46249  18210335.7244   18210341.3884
  17459852.086   -30175387.55249 -22882853.80449  17459854.4944   17459860.2934
 96  5  9  1  6 59.9860000  0  8  5 26 23 22  6 20 16 17
  20430988.959   -23769519.00049 -17786110.36949  20430990.2854   20430999.8404
  19458123.230   -13729747.14049 -10229059.47049  19458125.8304   19458131.6784
  18872041.464   -14118768.18749 -10973712.51149  18872044.2114   18872051.0674
  20152775.687    -7950255.27149  -5905867.13249  20152778.0864   20152783.1984
  16215572.575   -40453073.93349 -31503740.65749  16215574.5654   16215579.1374
  18314911.074   -30156667.58749 -23485672.47349  18314913.0934   18314919.3974
  18221331.638     2168455.52549   1698615.95749  18221333.1444   18221338.5324
  17447319.866   -30241243.93249 -22934170.44049  17447322.4694   17447328.3814
 96  5  9  1  7 29.9860000  0  8  5 26 23 22  6 20 16 17
  20448401.997   -23678021.82949 -17714814.08849  20448401.9064   20448412.7164
  19440941.596   -13820022.14949 -10299403.54249  19440947.2144   19440952.6594
  18850558.893   -14231662.87049 -11061682.31149  18850561.0864   18850568.1374
  20135546.288    -8040794.59049  -5976417.24649  20135547.3164   20135554.5964
  16210938.731   -40477423.75249 -31522714.55349  16210941.1564   16210945.6004
  18329395.499   -30080550.41849 -23426360.45549  18329397.3374   18329404.1294
  18232402.444     2226636.95149   1743952.11749  18232404.7844   18232409.8734
  17434832.733   -30306866.66549 -22985305.01249  17434835.1714   17434840.6804
 96  5  9  1  7 59.9860000  0  8  5 26 23 22  6 20 16 17
  20465812.949   -23586507.38949 -17643504.31749  20465818.7484   20465827.2624
  19423817.619   -13910024.47949 -10369535.15949  19423819.9074   19423825.8904
  18829133.058   -14344257.78649 -11149418.53649  18829134.5854   18829141.8124
  20118398.487    -8130908.29649  -6046635.69149  20118401.4774   20118407.1724
  16206394.646   -40501302.70549 -31541321.54349  16206397.1954   16206401.4594
  18343930.778   -30004167.42849 -23366841.30649  18343932.7734   18343939.2474
  18243552.818     2285228.80249   1789608.09349  18243554.2994   18243559.8304
  17422395.284   -30372223.33249 -23036232.26649  17422397.9664   17422403.6774
 96  5  9  1  8 29.9860000  0  8  5 26 23 22  6 20 16 17
  20483234.421   -23494982.89649 -17572186.69749  20483232.8244   20483242.8874
  19406737.209   -13999778.22649 -10439473.05449  19406740.4454   19406747.2034
  18807766.017   -14456544.00149 -11236914.21049  18807767.8624   18807774.2604
  20101333.237    -8220584.37049  -6116513.12649  20101334.8864   20101340.6594
  16201938.941   -40524716.53449 -31559566.09149  16201941.5314   16201946.1174
  18358518.564   -29927507.98649 -23307106.73549  18358520.3974   18358527.3084
  18254778.194     2344221.56749   1835576.46749  18254780.2724   18254785.5894
  17410010.380   -30437309.55349 -23086948.78049  17410012.5954   17410018.0074
 96  5  9  1  8 59.9860000  0  8  5 26 23 22  6 20 16 17
  20500645.038   -23403454.82449 -17500866.33749  20500650.3544   20500661.1124
  19389700.986   -14089299.77249 -10509230.02349  19389704.6794   19389711.3204
  18786454.534   -14568532.05649 -11324177.56449  18786456.5024   18786463.7314
  20084346.005    -8309857.84749  -6186076.87249  20084347.4714   20084353.5654
  16197569.441   -40547680.26949 -31577459.91849  16197571.8484   16197576.2104
  18373157.251   -29850586.95449 -23247168.32649  18373158.3664   18373164.7644
  18266077.952     2403602.95949   1881847.66449  18266080.0264   18266085.9694
  17397674.859   -30502129.70749 -23137457.96749  17397677.4874   17397683.3714
 96  5  9  1  9 29.9860000  0  8  5 26 23 22  6 20 16 17
  20518069.807   -23311916.73849 -17429538.13249  20518070.2854   20518079.6334
  19372714.757   -14178558.23849 -10578781.99949  19372718.7944   19372725.3594
  18765203.234   -14680212.46449 -11411201.17849  18765205.0264   18765211.5794
  20067433.898    -8398728.65649  -6255326.83749  20067436.3694   20067440.9244
  16193284.639   -40570197.69049 -31595005.96849  16193287.1974   16193291.4824
  18387850.417   -29773372.25249 -23187001.08549  18387851.8984   18387858.3954
  18277454.044     2463384.53249   1928430.69249  18277456.0364   18277461.7404
  17385396.556   -30566652.73849 -23187735.63349  17385399.1844   17385404.7494
 96  5  9  1  9 59.9860000  0  8  5 26 23 22  6 20 16 17
  20535484.508   -23220401.19749 -17358227.51949  20535486.0844   20535495.5154
  19355780.638   -14267563.86549 -10648136.96249  19355782.4104   19355788.2704
  18744000.104   -14791634.55449 -11498023.52249  18744001.8434   18744008.2094
  20050595.944    -8487218.11349  -6324279.63049  20050596.5644   20050602.7134
  16189074.432   -40592320.29449 -31612244.36949  16189077.0994   16189081.6704
  18402599.334   -29695861.87249 -23126603.44849  18402601.6024   18402608.0274
  18288899.958     2523531.91149   1975298.76549  18288901.7864   18288907.2944
  17373170.411   -30630903.91649 -23237801.46249  17373172.4454   17373178.2154
 96  5  9  1 10 29.9860000  0  8  5 26 23 22  6 20 16 17
  20552896.784   -23128886.49949 -17286917.54749  20552901.0824   20552909.5484
  19338897.783   -14356277.17049 -10717264.13149  19338900.2914   19338906.2514
  18722845.168   -14902798.88349 -11584645.00549  18722847.7844   18722854.5994
  20033830.893    -8575316.38249  -6392927.61049  20033832.6764   20033838.4164
  16184942.690   -40614034.52749 -31629164.55849  16184945.0174   16184949.3694
  18417408.905   -29618036.25949 -23065960.17749  18417411.1674   18417417.9994
  18300415.977     2584049.39449   2022455.23249  18300417.9074   18300423.4554
  17360996.414   -30694874.70049 -23287648.80649  17360999.2654   17361005.1384
 96  5  9  1 10 59.9860000  0  8  5 26 23 22  6 20 16 17
  20570317.324   -23037364.92649 -17215602.23849  20570316.0114   20570325.9624
  19322076.077   -14444672.89549 -10786143.83249  19322078.9204   19322085.6514
  18701745.658   -15013682.87649 -11671048.05249  18701746.9994   18701754.1134
  20017141.739    -8663017.69349  -6461266.27049  20017143.8294   20017149.8084
  16180893.752   -40635312.22249 -31645744.58949  16180895.9964   16180900.5044
  18432276.877   -29539908.17649 -23005081.21449  18432278.0614   18432285.1174
  18312004.506     2644948.15249   2069908.79949  18312006.7384   18312012.2034
  17348875.961   -30758569.55449 -23337281.14149  17348878.5014   17348884.1494
 96  5  9  1 11 29.9860000  0  7 26 23 22  6 20 16 17
  19305314.568   -14532764.89749 -10854786.88249  19305316.9874   19305322.2634
  18680697.580   -15124292.79649 -11757237.53949  18680699.1094   18680705.3304
  20000530.341    -8750315.75949  -6529290.71349  20000531.3804   20000536.9154
  16176923.862   -40656171.10049 -31661998.26549  16176926.4054   16176931.0234
  18447196.541   -29461503.01649 -22943986.35049  18447198.1124   18447205.6314
  18323661.448     2706205.73549   2117641.96449  18323663.3964   18323669.0564
  17336801.175   -30822024.17249 -23386726.27849  17336803.5104   17336809.0724
 96  5  9  1 11 59.9860000  0  7 26 23 22  6 20 16 17
  19288609.748   -14620547.96049 -10923189.18449  19288611.5724   19288617.2924
  18659702.253   -15234618.48849 -11843205.54949  18659704.1654   18659711.3144
  19983999.610    -8837182.26449  -6596978.86649  19984001.5534   19984007.7854
  16173038.376   -40676594.30849 -31677912.46749  16173040.0084   16173044.5204
  18462165.183   -29382843.99949 -22882693.67449  18462166.5944   18462174.2624
  18335389.331     2767834.42849   2165664.30049  18335391.2304   18335396.6794
  17324771.622   -30885240.49349 -23435985.73049  17324773.8974   17324779.6524
 96  5  9  1 12 29.9860000  0  7 26 23 22  6 20 16 17
  19271963.118   -14708011.24349 -10991342.31549  19271967.7594   19271973.7044
  18638768.889   -15344630.22949 -11928928.92949  18638769.7344   18638776.8414
  19967555.224    -8923596.97549  -6664314.97249  19967556.4714   19967562.4334
  16169240.106   -40696552.18949 -31693464.06049  16169242.3124   16169247.0614
  18477177.976   -29303953.12849 -22821220.33949  18477179.5934   18477186.4724
  18347190.312     2829848.62049   2213987.03849  18347192.2254   18347197.3934
  17312790.633   -30948202.70149 -23485047.16949  17312792.7364   17312798.2874
 96  5  9  1 12 59.9860000  0  7 26 23 22  6 20 16 17
  19255381.493   -14795162.43449 -11059252.26449  19255383.3574   19255389.5334
  18617894.372   -15454319.05449 -12014400.68349  18617896.8564   18617903.6294
  19951200.147    -9009550.36849  -6731291.60649  19951201.8644   19951206.1364
  16165528.966   -40716053.92649 -31708660.22549  16165531.3834   16165535.8764
  18492232.280   -29224847.16049 -22759579.39149  18492232.4844   18492239.6384
  18359066.376     2892258.05149   2262617.74849  18359068.0824   18359073.3494
  17300857.784   -31010909.40749 -23533909.51649  17300860.1204   17300865.6714
 96  5  9  1 13 29.9860000  0  7 26 23 22  6 20 16 17
  19238852.775   -14882019.42049 -11126932.95349  19238855.4474   19238860.3764
  18597076.974   -15563718.76949 -12099647.15549  18597078.5314   18597085.2654
  19934928.810    -9095047.10749  -6797912.40149  19934931.0044   19934937.2734
  16161898.254   -40735135.25349 -31723528.79949  16161900.5234   16161904.8714
  18507326.257   -29145522.73649 -22697768.22149  18507327.6004   18507335.0104
  18371012.374     2955038.20249   2311537.33149  18371014.8044   18371020.4304
  17288975.103   -31073353.36049 -23582567.12649  17288977.1134   17288982.6874
 96  5  9  1 13 59.9860000  0  7 26 23 22  6 20 16 17
  19222378.439   -14968581.69549 -11194383.99349  19222382.5804   19222388.2974
  18576313.250   -15672833.10249 -12184671.25849  18576314.4524   18576320.8024
  19918743.524    -9180104.10449  -6864190.55549  19918745.0684   19918750.7214
  16158347.195   -40753797.25649 -31738070.62749  16158349.2054   16158353.5704
  18522465.012   -29065966.95849 -22635776.77749  18522466.7234   18522473.6534
  18383029.751     3018186.76149   2360743.98549  18383031.8684   18383036.9874
  17277144.459   -31135522.55549 -23631010.63949  17277147.0784   17277152.4774
 96  5  9  1 14 29.9860000  0  7 26 23 22  6 20 16 17
  19205956.153   -15054884.26149 -11261632.66849  19205959.0394   19205965.6954
  18555599.695   -15781679.84549 -12269486.84349  18555601.5974   18555608.6944
  19902633.462    -9264760.46749  -6930156.51949  19902635.0994   19902639.9684
  16154869.888   -40772068.47849 -31752307.94049  16154872.2414   16154876.7274
  18537645.218   -28986194.03449 -22573616.12049  18537646.9814   18537654.4544
  18395108.414     3081663.67749   2410206.51249  18395111.0824   18395116.5304
  17265360.103   -31197449.65449 -23679265.50149  17265362.5144   17265367.9034
 96  5  9  1 14 59.9860000  0  7 26 23 22  6 20 16 17
  19189591.351   -15140890.20749 -11328650.21249  19189592.0004   19189597.8874
  18534944.673   -15890223.60749 -12354066.34349  18534946.5724   18534952.8614
  19886606.399    -9348980.58449  -6995782.55849  19886608.8924   19886614.1794
  16151473.607   -40789916.27049 -31766215.30949  16151475.8894   16151480.1914
  18552878.682   -28906144.04049 -22511239.57449  18552879.8194   18552887.3194
  18407256.570     3145493.95349   2459944.37449  18407257.4244   18407262.8814
  17253628.221   -31259101.92249 -23727306.21649  17253630.5254   17253636.1384
 96  5  9  1 15 29.9860000  0  7 26 23 22  6 20 16 17
  19173278.113   -15226610.32949 -11395445.05249  19173281.0524   19173286.8794
  18514343.956   -15998483.45549 -12438424.60549  18514345.5284   18514352.0244
  19870658.957    -9432788.01549  -7061087.01749  19870661.1604   19870665.5574
  16148159.352   -40807333.74249 -31779787.36949  16148161.3294   16148166.0314
  18568162.341   -28825825.49649 -22448653.76349  18568164.1734   18568171.5604
  18419463.908     3209648.38849   2509934.83149  18419465.6294   18419471.3684
  17241944.666   -31320498.42049 -23775147.63149  17241947.0514   17241952.5474
 96  5  9  1 15 59.9860000  0  7 26 23 22  6 20 16 17
  19157018.333   -15312053.13749 -11462023.77649  19157022.2304   19157027.7934
  18493796.245   -16106459.90349 -12522562.03149  18493798.4964   18493804.6044
  19854787.671    -9516192.92349  -7126077.83349  19854788.9144   19854795.1694
  16144928.927   -40824308.23349 -31793014.24649  16144931.3974   16144935.5024
  18583492.855   -28745268.44649 -22385882.11749  18583493.6954   18583500.3864
  18431731.638     3274116.63149   2560169.80549  18431733.3524   18431738.8664
  17230304.344   -31381668.61049 -23822812.70049  17230306.7044   17230312.4194
 96  5  9  1 16 29.9860000  0  7 26 23 22  6 20 16 17
  19140818.092   -15397193.43549 -11528366.78849  19140820.2754   19140825.7774
  18473304.329   -16214145.74349 -12606473.01649  18473306.5434   18473313.2734
  19838997.706    -9599166.42249  -7190732.48849  19838999.9294   19839005.4634
  16141787.847   -40840816.21949 -31805877.61749  16141790.1494   16141794.4274
  18598865.864   -28664479.36149 -22322929.65249  18598867.9424   18598874.0614
  18444060.353     3338906.30249   2610655.24849  18444062.8134   18444068.3354
  17218709.371   -31442600.83949 -23870292.34449  17218711.5614   17218717.4144
 96  5  9  1 16 59.9860000  0  7 26 23 22  6 20 16 17
  19124672.400   -15482033.94449 -11594476.20949  19124675.1284   19124681.4114
  18452862.773   -16321566.30249 -12690177.28149  18452864.6774   18452871.2854
  19823289.743    -9681714.61349  -7255055.72549  19823290.8824   19823296.9224
  16138732.133   -40856872.10649 -31818388.70749  16138734.7414   16138739.0704
  18614278.320   -28583482.30949 -22259815.14149  18614280.8824   18614287.6764
  18456450.972     3404016.06649   2661390.11849  18456452.1744   18456458.1964
  17207157.349   -31503304.03849 -23917593.51949  17207160.3424   17207166.1174
 96  5  9  1 17 29.9860000  0  7 26 23 22  6 20 16 17
  19108584.033   -15566581.77449 -11660357.56349  19108586.0434   19108592.0434
  18432471.258   -16428726.24149 -12773678.47549  18432472.9644   18432478.8804
  19807662.096    -9763839.29749  -7319048.96949  19807663.6284   19807669.5714
  16135760.171   -40872490.71149 -31830559.05649  16135762.3474   16135766.6954
  18629726.983   -28502303.06749 -22196558.65549  18629728.9474   18629735.8314
  18468898.541     3469433.83549   2712364.99149  18468901.0554   18468906.7394
  17195647.761   -31563790.11349 -23964725.50549  17195650.3094   17195655.7754
 96  5  9  1 17 59.9860000  0  7 26 23 22  6 20 16 17
  19092555.064   -15650819.49049 -11725997.26449  19092556.8224   19092562.6694
  18412130.605   -16535611.93649 -12856965.97649  18412132.9604   18412139.4384
  19792115.382    -9845534.11449  -7382707.25349  19792117.1554   19792124.5134
  16132868.777   -40887685.24849 -31842398.96849  16132871.0894   16132875.5414
  18645207.944   -28420947.62049 -22133164.87649  18645210.4394   18645217.4354
  18481406.226     3535162.41549   2763582.04849  18481409.0004   18481414.5684
  17184180.226   -31624052.36149 -24011683.08049  17184182.5014   17184188.4364
 96  5  9  1 18 29.9860000  0  7 26 23 22  6 20 16 17
  19076584.125   -15734735.56749 -11791386.34749  19076588.1364   19076593.5774
  18391846.945   -16642203.60149 -12940024.35749  18391849.4914   18391855.9464
  19776652.200    -9926794.91949  -7446027.33849  19776653.5674   19776660.8844
  16130056.685   -40902461.34549 -31853912.82149  16130059.1694   16130063.8554
  18660723.985   -28339412.92449 -22069631.42449  18660726.5844   18660732.8374
  18493974.781     3601207.93149   2815046.07249  18493976.7164   18493982.1044
  17172759.008   -31684072.52549 -24058452.01449  17172761.2474   17172766.8754
 96  5  9  1 18 59.9860000  0  7 26 23 22  6 20 16 17
  19060678.804   -15818328.53449 -11856523.64549  19060680.6364   19060686.4424
  18371622.250   -16748484.69849 -13022840.73549  18371624.7724   18371631.4894
  19761272.016   -10007618.25149  -7509006.56049  19761273.2854   19761279.0014
  16127325.273   -40916816.98949 -31865099.04949  16127327.5794   16127332.1164
  18676275.167   -28257687.65149 -22005949.46849  18676277.7284   18676285.3234
  18506606.100     3667585.32049   2866768.69749  18506608.2224   18506613.5394
  17161383.071   -31743851.62649 -24105033.10649  17161385.6964   17161391.3124
 96  5  9  1 19 29.9860000  0  7 26 23 22  6 20 16 17
  19044829.944   -15901604.94149 -11921414.27949  19044833.5324   19044839.2304
  18351458.670   -16854450.14949 -13105411.16249  18351460.1084   18351466.4254
  19745971.734   -10088019.92949  -7571657.19149  19745974.7094   19745980.4374
  16124672.355   -40930757.33749 -31875961.66849  16124674.8604   16124679.3234
  18691863.631   -28175768.31149 -21942116.30249  18691866.6074   18691873.4474
  18519295.970     3734268.64149   2918729.71249  18519297.5384   18519303.2174
  17150052.720   -31803394.28349 -24151429.95849  17150054.8694   17150060.7884
 96  5  9  1 19 59.9860000  0  7 26 23 22  6 20 16 17
  19029042.837   -15984569.29749 -11986061.76149  19029045.7444   19029051.8344
  18331353.276   -16960101.39749 -13187736.75549  18331355.6454   18331361.7304
  19730751.247   -10168005.56549  -7633983.65049  19730752.9804   19730759.9124
  16122099.495   -40944281.02249 -31886499.61149  16122101.4804   16122105.6524
  18707490.667   -28093655.64949 -21878132.49249  18707492.1014   18707499.5774
  18532045.134     3801267.92949   2970936.93449  18532046.8764   18532052.7524
  17138768.160   -31862695.05449 -24197638.32749  17138770.2104   17138776.0814
 96  5  9  1 20 29.9860000  0  7 26 23 22  6 20 16 17
  19013311.324   -16067238.08949 -12050478.92949  19013313.8914   19013320.3584
  18311307.483   -17065442.50849 -13269820.68049  18311309.7054   18311316.1454
  19715615.031   -10247548.86149  -7695965.41849  19715616.5724   19715622.3994
  16119609.947   -40957362.65649 -31896693.10249  16119612.0764   16119616.4594
  18723155.583   -28011337.94849 -21813988.91049  18723156.9114   18723163.8244
  18544858.489     3868602.03149   3023405.05249  18544860.0544   18544866.0794
  17127531.206   -31921746.86449 -24243652.69949  17127533.2484   17127538.6524
 96  5  9  1 20 59.9860000  0  7 26 23 22  6 20 16 17
  18997637.190   -16149608.20749 -12114663.36249  18997639.4184   18997644.6914
  18291318.774   -17170485.23249 -13351672.09649  18291320.5374   18291326.9094
  19700563.213   -10326645.34649  -7757599.04049  19700565.1094   19700571.0744
  16117205.579   -40969997.87649 -31906538.73549  16117207.6954   16117212.0924
  18738860.862   -27928812.35649 -21749683.34149  18738861.0814   18738868.2294
  18557732.446     3936254.60149   3076121.32749  18557733.9574   18557739.8034
  17116340.916   -31980550.92849 -24289474.02049  17116343.0114   17116348.7024
 96  5  9  1 21 29.9860000  0  7 26 23 22  6 20 16 17
  18982020.442   -16231666.07349 -12178604.48749  18982025.3694   18982030.8014
  18271389.055   -17275217.00049 -13433281.21049  18271390.6914   18271397.0864
  19685602.419   -10405269.18549  -7818864.35049  19685602.6264   19685609.5364
  16114889.213   -40982170.67349 -31916024.04249  16114891.3294   16114895.6124
  18754602.026   -27846083.33449 -21685219.25549  18754603.5184   18754611.0084
  18570667.640     4004225.22649   3129085.43649  18570668.4854   18570673.8504
  17105202.599   -32039084.23449 -24335084.36049  17105204.7444   17105210.1064
 96  5  9  1 21 59.9860000  0  7 26 23 22  6 20 16 17
  18966466.466   -16313417.04449 -12242306.47049  18966468.6674   18966473.6844
  18251515.399   -17379651.61949 -13514658.77849  18251517.4164   18251523.6704
  19670733.723   -10483406.21649  -7879750.34849  19670735.6434   19670740.0774
  16112662.604   -40993870.38049 -31925140.70749  16112664.8234   16112668.9944
  18770378.260   -27763176.47149 -21620616.58949  18770380.9434   18770387.6974
  18583664.833     4072530.40149   3182310.23249  18583666.6484   18583672.1984
  17094116.264   -32097343.70349 -24380481.31949  17094118.4584   17094123.9164
 96  5  9  1 22 29.9860000  0  7 26 23 22  6 20 16 17
  18950976.956   -16394818.73849 -12305736.29249  18950977.6254   18950983.9804
  18231704.542   -17483765.03049 -13595786.06449  18231705.2884   18231711.7894
  19655958.504   -10561041.11149  -7940245.04849  19655960.4164   19655965.8764
  16110531.393   -41005069.37049 -31933867.20049  16110533.6124   16110538.0614
  18786192.917   -27680073.31549 -21555860.97849  18786194.7074   18786202.3144
  18596725.606     4141163.20949   3235790.31949  18596726.9924   18596732.9544
  17083083.213   -32155323.26749 -24425660.17249  17083085.0764   17083090.6914
 96  5  9  1 22 59.9860000  0  7 26 23 22  6 20 16 17
  18935558.164   -16475845.80049 -12368874.19649  18935558.7494   18935564.5604
  18211955.206   -17587543.27249 -13676652.17249  18211956.5654   18211963.4384
  19641279.480   -10638185.88649  -8000357.87149  19641280.1164   19641286.7754
  16108491.812   -41015789.63949 -31942220.66849  16108493.9644   16108498.0844
  18802044.396   -27596773.52949 -21490952.14449  18802046.4154   18802053.5654
  18609843.228     4210099.14149   3289506.61149  18609845.5224   18609850.6574
  17072101.826   -32213028.94549 -24470625.60649  17072104.1154   17072109.5854
 96  5  9  1 23 29.9860000  0  7 26 23 22  6 20 16 17
  18920207.187   -16556505.76349 -12431726.04149  18920209.9694   18920215.7554
  18192269.416   -17690993.33049 -13757262.55149  18192270.6964   18192277.7754
  19626689.569   -10714854.89149  -8060099.94149  19626691.2824   19626698.0114
  16106541.655   -41026037.01749 -31950205.64849  16106543.6674   16106548.1224
  18817932.672   -27513283.00049 -21425894.67949  18817934.0074   18817940.6474
  18623019.667     4279342.11749   3343462.16149  18623021.8344   18623027.1554
  17061168.781   -32270484.32649 -24515396.00349  17061170.6524   17061175.9194
 96  5  9  1 23 59.9860000  0  7 26 23 22  6 20 16 17
  18904926.934   -16636801.48949 -12494294.08249  18904929.9634   18904935.7314
  18172643.977   -17794126.99149 -13837626.38949  18172644.9364   18172651.6424
  19612184.421   -10791080.08649  -8119496.18349  19612185.6584   19612190.9564
  16104675.886   -41035842.04649 -31957845.93749  16104677.7664   16104682.3524
  18833857.864   -27429591.61249 -21360680.70749  18833859.8914   18833866.4924
  18636250.819     4348866.91949   3397637.31449  18636251.8654   18636257.7544
  17050277.010   -32327718.63949 -24559994.14449  17050279.1774   17050284.8084
 96  5  9  1 24 29.9860000  0  7 26 23 22  6 20 16 17
  18889719.979   -16716718.65849 -12556567.13849  18889721.8644   18889727.6574
  18153080.088   -17896931.53249 -13917733.77349  18153082.0404   18153088.3884
  19597764.446   -10866865.67649  -8178549.90549  19597764.2804   19597769.2094
  16102892.932   -41045212.57449 -31965147.65749  16102894.8244   16102899.2074
  18849826.494   -27345679.52949 -21295294.75749  18849827.4724   18849835.1304
  18649532.140     4418660.46949   3452021.87649  18649533.5204   18649538.7644
  17039425.922   -32384742.06749 -24604427.95549  17039428.0714   17039433.5784
 96  5  9  1 24 59.9860000  0  7 26 23 22  6 20 16 17
  18874580.587   -16796274.14749 -12618558.36449  18874582.7384   18874589.0574
  18133579.859   -17999409.56049 -13997586.72149  18133581.2634   18133587.8644
  19583426.916   -10942202.09549  -8237253.58549  19583427.9154   19583434.8464
  16101193.068   -41054145.81949 -31972108.63349  16101194.8864   16101199.2814
  18865834.498   -27261559.02949 -21229746.40949  18865835.0184   18865843.2924
  18662870.360     4488754.48649   3506640.57849  18662871.9014   18662877.3054
  17028619.152   -32441530.64449 -24648678.76949  17028621.4004   17028626.8554
 96  5  9  1 25 29.9860000  0  7 26 23 22  6 20 16 17
  18859504.869   -16875494.80649 -12680288.67049  18859507.9064   18859513.5964
  18114136.919   -18101578.27049 -14077198.64949  18114138.7994   18114145.2424
  19569172.485   -11017109.79549  -8295623.19349  19569173.5134   19569179.7284
  16099574.129   -41062650.20949 -31978735.44249  16099576.3464   16099581.0944
  18881873.245   -27177267.71249 -21164064.95249  18881875.9284   18881883.4264
  18676265.060     4559142.97949   3561488.73449  18676266.0044   18676271.7534
  17017856.867   -32498088.87049 -24692750.08549  17017858.8194   17017864.2564
 96  5  9  1 25 59.9860000  0  7 26 23 22  6 20 16 17
  18844499.208   -16954353.98449 -12741737.32949  18844501.2984   18844506.8164
  18094760.079   -18203409.92049 -14156547.93449  18094760.9814   18094767.6844
  19555005.527   -11091556.30949  -8353633.45849  19555006.6394   19555012.5634
  16098041.626   -41070703.33749 -31985010.62549  16098043.9854   16098048.4404
  18897948.262   -27092797.88049 -21098244.38949  18897950.3104   18897957.1064
  18689717.712     4629840.57049   3616577.74349  18689719.5304   18689725.2904
  17007146.458   -32554372.06449 -24736607.10249  17007148.6874   17007153.9604
 96  5  9  1 26 29.9860000  0  7 26 23 22  6 20 16 17
  18829556.395   -17032869.13349 -12802917.90249  18829561.3434   18829566.1324
  18075444.412   -18304910.99649 -14235639.62949  18075446.0034   18075451.9294
  19540927.098   -11165540.95049  -8411283.81149  19540928.8734   19540934.4104
  16096597.310   -41078294.88949 -31990926.12749  16096599.2024   16096603.6224
  18914049.098   -27008190.66449 -21032316.79049  18914050.4054   18914057.2564
  18703231.855     4700857.35649   3671915.48449  18703233.6274   18703239.6544
  16996489.400   -32610374.30849 -24780245.19449  16996491.6224   16996497.0834
 96  5  9  1 26 59.9860000  0  7 26 23 22  6 20 16 17
  18814686.100   -17111019.24249 -12863814.02649  18814689.3504   18814694.6004
  18056196.744   -18406062.34449 -14314458.81349  18056197.7034   18056203.8264
  19526941.081   -11239039.64349  -8468555.50049  19526943.3584   19526947.8594
  16095242.875   -41085412.24349 -31996472.12749  16095244.9534   16095249.5054
  18930175.333   -26923444.93549 -20966281.24249  18930176.8884   18930184.3204
  18716805.826     4772193.57949   3727502.13049  18716808.3744   18716813.5974
  16985889.057   -32666079.48049 -24823651.80349  16985890.9654   16985896.6164
 96  5  9  1 27 29.9860000  0  7 26 23 22  6 20 16 17
  18799886.396   -17188798.53849 -12924421.20049  18799888.5264   18799892.9044
  18037013.893   -18506865.17749 -14393006.42649  18037015.5294   18037021.8564
  19513044.637   -11312063.13049  -8525456.90449  19513045.9594   19513052.5554
  16093975.780   -41092069.74849 -32001659.79549  16093978.0444   16093982.6234
  18946328.102   -26838565.07849 -20900141.18649  18946328.6484   18946336.2304
  18730433.119     4843800.20249   3783299.48249  18730434.7424   18730440.4444
  16975338.343   -32721523.33949 -24866854.78849  16975340.5774   16975345.7044
 96  5  9  1 27 59.9860000  0  7 26 23 22  6 20 16 17
  18785161.720   -17266176.44049 -12984715.60349  18785162.9224   18785168.9734
  18017899.994   -18607307.23449 -14471272.91649  18017902.1054   18017908.4484
  19499244.787   -11384586.83349  -8581968.86249  19499245.4694   19499251.4834
  16092799.620   -41098250.56249 -32006476.02249  16092801.6804   16092806.4094
  18962509.847   -26753526.58749 -20833877.51949  18962511.6344   18962519.3314
  18744111.834     4915683.74249   3839312.61749  18744113.8824   18744119.6664
  16964837.559   -32776706.47749 -24909854.61849  16964839.7074   16964845.1174
 96  5  9  1 28 29.9860000  0  7 26 23 22  6 20 16 17
  18770511.307   -17343162.88049 -13044704.98049  18770512.9994   18770518.9324
  17998852.079   -18707405.18349 -14549271.26449  17998853.8344   17998860.0244
  19485535.115   -11456623.30349  -8638101.15049  19485538.6894   19485542.9664
  16091712.047   -41103967.06549 -32010930.45149  16091714.0534   16091718.6614
  18978719.652   -26668342.54749 -20767500.44149  18978720.6224   18978728.4724
  18757838.981     4987819.85349   3895522.55949  18757840.8704   18757846.1774
  16954378.455   -32831667.12249 -24952681.07849  16954380.6664   16954386.1324
 96  5  9  1 28 59.9850000  0  7 26 23 22  6 20 16 17
  18755937.839   -17419742.49249 -13104377.34149  18755940.7234   18755945.9004
  17979869.661   -18807155.46849 -14626998.71949  17979871.9014   17979878.2914
  19471922.421   -11528162.71449  -8693846.11549  19471924.5374   19471930.0484
  16090713.168   -41109217.55049 -32015021.75149  16090715.0754   16090719.4624
  18994958.385   -26583010.55649 -20701008.06949  18994958.9984   18994966.4534
  18771612.048     5060188.87049   3951913.97949  18771612.3014   18771618.0024
  16943961.270   -32886410.19949 -24995338.00349  16943963.4694   16943968.8774
 96  5  9  1 29 29.9850000  0  7 26 23 22  6 20 16 17
  18741439.182   -17495936.86649 -13163749.52849  18741440.6674   18741446.8184
  17960950.245   -18906581.95649 -14704473.86449  17960951.7064   17960958.1924
  19458401.654   -11599215.25149  -8749211.73349  19458402.9624   19458409.1554
  16089802.086   -41114002.85449 -32018750.57249  16089804.5034   16089809.0344
  19011223.324   -26497532.86549 -20634402.17049  19011225.5084   19011233.3644
  18785429.410     5132806.54649   4008499.17449  18785430.5154   18785436.2774
  16933584.200   -32940944.19849 -25037832.01249  16933585.7534   16933591.5164
 96  5  9  1 29 59.9850000  0  7 26 23 22  6 20 16 17
  18727012.705   -17571749.12749 -13222823.96349  18727014.0274   18727019.9524
  17942088.583   -19005698.95149 -14781707.84149  17942090.2564   17942096.5834
  19444974.650   -11669772.33549  -8804191.25149  19444976.5084   19444982.1054
  16088980.453   -41118322.46349 -32022116.51349  16088982.4454   16088986.7374
  19027516.393   -26411917.18349 -20567688.75149  19027517.2004   19027524.8434
  18799298.210     5205691.50349   4065292.62649  18799300.1944   18799306.0884
  16923246.894   -32995265.42649 -25080160.22349  16923248.8714   16923254.4574
 96  5  9  1 30 29.9850000  0  7 26 23 22  6 20 16 17
  18712656.879   -17647183.45949 -13281603.90349  18712659.7394   18712665.1354
  17923289.431   -19104490.69849 -14858688.38349  17923290.8624   17923296.9944
  19431644.178   -11739831.93649  -8858783.13049  19431644.2574   19431650.2494
  16088249.575   -41122163.89649 -32025109.85249  16088251.3744   16088255.7434
  19043835.849   -26326158.78649 -20500864.12249  19043836.6984   19043844.6534
  18813221.312     5278853.64849   4122302.07649  18813222.8914   18813228.5854
  16912953.228   -33049358.65149 -25122310.77849  16912955.4634   16912961.0894
 96  5  9  1 30 59.9850000  0  7 26 23 22  6 20 16 17
  18698372.750   -17722250.80449 -13340097.87749  18698375.8804   18698380.4294
  17904551.861   -19202957.44849 -14935415.67549  17904553.2754   17904559.6224
  19418402.834   -11809410.51349  -8913000.18449  19418403.9424   19418410.6464
  16087606.550   -41125541.53049 -32027741.77949  16087608.7984   16087613.3194
  19060180.117   -26240270.18049 -20433938.03749  19060181.4584   19060188.0074
  18827194.626     5352284.11149   4179520.60649  18827196.5964   18827202.3594
  16902702.260   -33103228.07749 -25164286.94049  16902704.4634   16902709.8274
 96  5  9  1 31 29.9850000  0  7 26 23 22  6 20 16 17
  18684162.893   -17796927.38349 -13398287.36849  18684164.6244   18684170.3704
  17885878.759   -19301083.84849 -15011877.76849  17885880.3494   17885886.5014
  19405255.285   -11878506.19349  -8966840.96249  19405254.9664   19405261.8174
  16087052.522   -41128454.15749 -32030011.36949  16087054.4584   16087059.0034
  19076554.740   -26154224.47349 -20366889.53649  19076554.9784   19076562.9174
  18841222.190     5426001.42149   4236962.65849  18841224.0384   18841230.1364
  16892495.593   -33156865.05549 -25206081.96849  16892497.4714   16892502.9844
 96  5  9  1 31 59.9850000  0  7 26 23 22  6 20 16 17
  18670027.895   -17871206.83849 -13456167.41049  18670029.6884   18670034.7814
  17867273.704   -19398853.63149 -15088061.97149  17867275.4664   17867281.7394
  19392194.936   -11947129.91849  -9020313.98449  19392196.3624   19392202.5564
  16086586.056   -41130904.86749 -32031921.02449  16086588.0564   16086592.5504
  19092956.034   -26068033.07949 -20299727.50249  19092956.5474   19092963.1954
  18855299.813     5499983.13249   4294610.72649  18855302.8824   18855307.7114
  16882332.636   -33210271.87349 -25247697.65149  16882334.5864   16882340.4214
 96  5  9  1 32 29.9850000  0  7 26 23 22  6 20 16 17
  18655964.898   -17945104.38049 -13513749.84249  18655967.4824   18655972.5084
  17848735.902   -19496269.91049 -15163970.72149  17848737.6254   17848743.8164
  19379221.709   -12015310.18549  -9073441.45349  19379222.8364   19379228.9984
  16086204.164   -41132913.40749 -32033486.13049  16086205.6214   16086210.3764
  19109380.314   -25981725.45249 -20232474.91549  19109380.7974   19109387.5554
  18869422.529     5574191.39049   4352435.32949  18869423.5264   18869429.5084
  16872211.936   -33263455.75949 -25289139.62849  16872214.0894   16872219.5894
 96  5  9  1 32 59.9850000  0  7 26 23 22  6 20 16 17
  18641981.906   -18018585.81049 -13571008.05049  18641984.8734   18641988.8254
  17830268.654   -19593316.31949 -15239591.25149  17830270.3364   17830276.6084
  19366337.146   -12083012.59749  -9126196.56849  19366339.2724   19366344.9224
  16085907.128   -41134471.68649 -32034700.38349  16085909.2434   16085913.6514
  19125827.161   -25895288.88749 -20165121.84949  19125829.0484   19125836.5194
  18883589.491     5648638.87849   4410446.35049  18883590.5814   18883596.8484
  16862139.035   -33316389.36149 -25330386.57449  16862141.0174   16862146.3414
 96  5  9  1 33 29.9850000  0  7 26 23 22  6 20 16 17
  18628073.391   -18091671.52549 -13627957.90549  18628075.8424   18628081.4394
  17811868.062   -19690011.47249 -15314938.08449  17811869.9314   17811875.9944
  19353543.579   -12150243.85349  -9178584.55749  19353544.7414   19353550.7174
  16085692.596   -41135601.98049 -32035581.14149  16085694.4584   16085698.7854
  19142295.823   -25808749.48649 -20097688.65249  19142296.7854   19142305.1184
  18897797.684     5723300.92049   4468624.55449  18897798.1814   18897804.8914
  16852112.826   -33369078.62149 -25371443.12649  16852114.5444   16852120.0074
 96  5  9  1 33 59.9850000  0  7 26 23 22  6 20 16 17
  18614245.557   -18164340.96249 -13684583.39949  18614247.1454   18614252.8984
  17793540.561   -19786324.88849 -15389987.46149  17793542.0064   17793548.0664
  19340848.233   -12216962.29549  -9230572.94349  19340849.4644   19340856.2114
  16085566.615   -41136264.57649 -32036097.46349  16085568.2144   16085572.6104
  19158786.225   -25722090.22249 -20030162.06749  19158788.3074   19158795.7944
  18912051.755     5798206.66349   4526992.65149  18912052.5794   18912057.6454
  16842140.587   -33421482.50649 -25412277.31449  16842142.3454   16842148.0134
 96  5  9  1 34 29.9850000  0  7 26 23 22  6 20 16 17
  18600495.255   -18236598.48549 -13740887.90949  18600497.2734   18600503.0094
  17775280.234   -19882280.75449 -15464758.22549  17775282.2144   17775288.2084
  19328247.718   -12283178.22649  -9282169.77149  19328248.6974   19328254.9874
  16085526.450   -41136475.62449 -32036261.92849  16085528.1374   16085532.7984
  19175298.356   -25635316.43549 -19962546.24249  19175300.0284   19175308.5034
  18926350.472     5873354.26249   4585549.20649  18926352.3544   18926358.4034
  16832221.375   -33473609.65249 -25452895.85449  16832222.9234   16832228.4844
 96  5  9  1 34 59.9850000  0  7 26 23 22  6 20 16 17
  18586825.495   -18308434.86449 -13796864.25449  18586827.6474   18586832.9194
  17757088.533   -19977877.03649 -15539248.79549  17757090.6264   17757096.7284
  19315744.544   -12348886.03949  -9333370.65949  19315745.3874   19315751.2204
  16085572.140   -41136235.24049 -32036074.63049  16085573.8204   16085578.5654
  19191833.009   -25548421.40649 -19894835.92749  19191835.9314   19191844.1494
  18940697.759     5948744.36349   4644294.72149  18940698.3064   18940704.5984
  16822352.829   -33525466.98349 -25493304.15049  16822354.7274   16822360.4514
 96  5  9  1 35 29.9850000  0  7 26 23 22  6 20 16 17
  18573235.424   -18379852.97849 -13852514.68549  18573237.1294   18573242.1934
  17738965.017   -20073120.54449 -15613464.48149  17738966.4134   17738972.4084
  19303334.092   -12414102.17549  -9384188.42749  19303334.5954   19303340.1794
  16085707.279   -41135526.57849 -32035522.43549  16085708.6564   16085713.2714
  19208391.944   -25461410.71649 -19827035.49949  19208393.6264   19208401.0834
  18955089.100     6024374.66549   4703227.41349  18955090.9714   18955096.6714
  16812534.011   -33577066.61849 -25533511.64149  16812535.7234   16812541.4304
 96  5  9  1 35 59.9850000  0  7 26 23 22  6 20 16 17
  18559724.849   -18450850.56349 -13907837.43149  18559727.3374   18559731.4364
  17720905.693   -20168022.78649 -15687414.24249  17720907.1124   17720913.2154
  19291015.297   -12478835.37649  -9434629.87549  19291015.7444   19291022.4044
  16085933.758   -41134335.41549 -32034594.26649  16085935.5844   16085939.8724
  19224969.254   -25374287.07349 -19759147.05549  19224973.4544   19224981.2794
  18969527.530     6100244.59849   4762346.82449  18969528.1114   18969534.2774
  16802760.959   -33628422.01949 -25573528.82149  16802763.1504   16802768.6674
 96  5  9  1 36 29.9850000  0  7 26 23 22  6 20 16 17
  18546295.303   -18521425.55749 -13962830.89049  18546297.1074   18546302.0494
  17702913.393   -20262573.98549 -15761090.46449  17702914.5024   17702920.8774
  19278789.043   -12543084.02449  -9484693.75449  19278790.2274   19278795.8374
  16086252.593   -41132659.65749 -32033288.49249  16086254.1154   16086258.9734
  19241571.779   -25287051.66349 -19691171.52749  19241573.6394   19241580.8864
  18984006.939     6176340.37149   4821642.20949  18984008.1604   18984014.5684
  16793034.940   -33679534.81649 -25613356.95749  16793036.5124   16793042.3314
 96  5  9  1 36 59.9850000  0  7 26 23 22  6 20 16 17
  18532946.422   -18591572.46449 -14017490.77349  18532947.9794   18532952.4934
  17684991.161   -20356755.24249 -15834478.41249  17684992.5634   17684998.6054
  19266659.775   -12606826.63849  -9534363.32649  19266660.4814   19266666.3344
  16086667.398   -41130477.70449 -32031588.27949  16086669.5244   16086673.8464
  19258192.223   -25199712.89649 -19623115.45749  19258193.7384   19258201.9554
  18998532.574     6252672.70349   4881121.92449  18998534.4284   18998540.0604
  16783354.118   -33730405.87549 -25652996.73349  16783356.5274   16783361.8844
 96  5  9  1 37 29.9850000  0  7 26 23 22  6 20 16 17
  18519676.031   -18661305.13449 -14071827.86449  18519679.0674   18519683.1754
  17667137.025   -20450577.98049 -15907587.00149  17667138.4284   17667144.6114
  19254624.352   -12670069.25049  -9583643.27749  19254626.2964   19254631.5194
  16087179.624   -41127785.09849 -32029490.15349  16087181.5934   16087186.3984
  19274832.278   -25112275.52549 -19554982.55149  19274832.0544   19274840.4544
  19013103.746     6329237.75149   4940782.98449  19013104.0234   19013109.8664
  16773717.939   -33781044.91049 -25692455.70249  16773720.1034   16773725.8144
 96  5  9  1 37 59.9850000  0  7 26 23 22  6 20 16 17
  18506489.894   -18730600.01549 -14125823.82649  18506491.6464   18506496.8234
  17649358.037   -20544007.41849 -15980389.12149  17649359.5204   17649365.6444
  19242690.647   -12732787.29049  -9632514.48249  19242690.9684   19242696.9584
  16087790.992   -41124577.68149 -32026990.88049  16087792.4994   16087796.8194
  19291491.544   -25024722.94749 -19486759.87449  19291494.1894   19291501.1784
  19027720.653     6406051.65349   5000637.95149  19027720.9074   19027727.2984
  16764129.287   -33831432.69549 -25731718.89149  16764131.4334   16764136.9484
 96  5  9  1 38 29.9850000  0  7 26 23 22  6 20 16 17
  18493390.362   -18799437.49949 -14179463.36849  18493392.7084   18493397.5604
  17631658.837   -20637023.72149 -16052869.32749  17631659.0924   17631665.3354
  19230856.029   -12794970.34549  -9680968.81049  19230859.1234   19230863.1364
  16088498.798   -41120853.19549 -32024088.69649  16088501.1494   16088505.7534
  19308177.155   -24937041.41949 -19418436.73349  19308177.8934   19308186.8504
  19042389.300     6483136.53949   5060704.07249  19042390.4414   19042396.2674
  16754592.176   -33881553.96849 -25770774.40749  16754593.8634   16754599.0944
 96  5  9  1 38 59.9850000  0  7 26 23 22  6 20 16 17
  18480374.273   -18867834.22249 -14232759.46749  18480377.4424   18480382.4934
  17614029.702   -20729659.74949 -16125053.21249  17614031.2324   17614037.2344
  19219122.118   -12856641.21249  -9729024.03249  19219122.2364   19219129.3094
  16089301.464   -41116639.87149 -32020805.60249  16089302.9934   16089307.6144
  19324880.706   -24849262.39649 -19350037.59849  19324882.3044   19324891.4424
  19057105.880     6560471.60349   5120965.13649  19057106.7334   19057113.0204
  16745099.899   -33931435.46449 -25809643.08949  16745101.5224   16745106.9834
 96  5  9  1 39 29.9850000  0  7 26 23 22  6 20 16 17
  18467444.100   -18935787.09849 -14285709.71449  18467445.6444   18467451.2544
  17596474.553   -20821913.15749 -16196938.95549  17596476.0444   17596481.9404
  19207485.097   -12917798.33749  -9776678.94549  19207485.3784   19207490.6084
  16090192.996   -41111954.15249 -32017154.40549  16090194.4204   16090199.1194
  19341606.639   -24761373.93449 -19281553.20749  19341607.8844   19341615.8584
  19071866.116     6638044.26649   5181411.35049  19071868.1304   19071874.3884
  16735656.769   -33981060.45749 -25848311.89249  16735658.3534   16735663.6404
 96  5  9  1 39 59.9850000  0  7 26 23 22  6 20 16 17
  18454597.387   -19003301.14149 -14338318.01549  18454598.3614   18454603.7904
  17578990.240   -20913797.20749 -16268536.88149  17578990.7014   17578996.8874
  19195944.000   -12978446.54049  -9823937.28949  19195944.3504   19195949.1694
  16091168.880   -41106826.57949 -32013158.90749  16091170.3924   16091174.9454
  19358346.250   -24673407.71549 -19213008.22149  19358346.6434   19358354.2284
  19086670.345     6715834.17149   5242026.82949  19086671.7034   19086676.7144
  16726260.042   -34030440.69649 -25886789.98349  16726261.5754   16726266.9444
 96  5  9  1 40 29.9850000  0  7 26 23 22  6 20 16 17
  18441834.200   -19070371.36249 -14390580.47149  18441835.7574   18441841.2304
  17561573.867   -21005316.68149 -16339850.72749  17561575.1694   17561581.4504
  19184503.749   -13038562.98849  -9870781.26549  19184504.2334   19184510.2084
  16092232.270   -41101237.72649 -32008803.96549  16092234.0274   16092238.6664
  19375100.716   -24585362.40449 -19144401.62849  19375101.4344   19375109.0354
  19101515.228     6793843.63849   5302813.41349  19101516.0174   19101521.6674
  16716910.918   -34079571.42249 -25925073.64549  16716912.5724   16716917.6314
 96  5  9  1 40 59.9850000  0  7 26 23 22  6 20 16 17
  18429159.591   -19136974.22149 -14442478.75049  18429161.1684   18429166.6044
  17544233.558   -21096444.15549 -16410859.11749  17544234.4444   17544240.1084
  19173172.434   -13098111.63949  -9917182.81049  19173171.8254   19173178.1824
  16093389.291   -41095157.97049 -32004066.50749  16093390.9654   16093395.5194
  19391872.541   -24497227.95749 -19075725.56349  19391872.6094   19391880.5494
  19116400.420     6872068.52649   5363767.85049  19116401.5664   19116407.4524
  16707613.359   -34128430.47749 -25963145.61649  16707614.8454   16707619.7924
 96  5  9  1 41 29.9850000  0  7 26 23 22  6 20 16 17
  18416572.889   -19203117.36749 -14494018.81449  18416575.1844   18416579.5464
  17526964.817   -21187188.17749 -16481568.69349  17526966.1774   17526972.5134
  19161945.195   -13157110.56349  -9963155.99349  19161945.4634   19161951.1464
  16094638.184   -41088595.50549 -31998952.90949  16094639.8944   16094644.3314
  19408658.112   -24409020.95249 -19006992.96249  19408657.8324   19408665.4384
  19131322.952     6950488.02249   5424873.92749  19131324.2754   19131329.9314
  16698364.181   -34177035.72149 -26001019.81249  16698365.2954   16698370.6024
 96  5  9  1 41 59.9850000  0  7 26 23 22  6 20 16 17
  18404080.319   -19268767.65249 -14545174.83049  18404081.8504   18404086.7474
  17509774.218   -21277526.38649 -16551962.06049  17509775.3374   17509781.3274
  19150825.323   -13215539.97849 -10008685.40249  19150826.1514   19150831.7554
  16095986.456   -41081509.91749 -31993431.69449  16095987.8704   16095992.6414
  19425458.368   -24320721.60849 -18938188.41949  19425461.7064   19425469.1424
  19146289.765     7029131.77449   5486154.75949  19146290.4534   19146295.7694
  16689165.695   -34225373.08849 -26038685.27349  16689167.0654   16689172.2774
 96  5  9  1 42 29.9850000  0  7 26 23 22  6 20 16 17
  18391678.006   -19333938.90549 -14595957.56949  18391679.8404   18391685.0244
  17492658.556   -21367470.98149 -16622048.71449  17492659.5594   17492665.1704
  19139810.102   -13273423.79849 -10053789.67849  19139812.2074   19139817.0914
  16097435.299   -41073895.93649 -31987498.74349  16097436.6874   16097441.2804
  19442278.488   -24232339.52349 -18869319.38949  19442278.8324   19442288.0864
  19161294.337     7107986.91549   5547600.30349  19161295.8974   19161301.5824
  16680016.480   -34273453.67549 -26076150.64849  16680017.7884   16680022.9634
 96  5  9  1 42 59.9850000  0  7 26 23 22  6 20 16 17
  18379362.700   -19398658.30349 -14646388.21149  18379364.9384   18379369.0574
  17475614.400   -21457038.09249 -16691841.22549  17475615.2914   17475621.3814
  19128889.969   -13330811.60349 -10098507.44349  19128891.2954   19128896.9364
  16098976.689   -41065795.53749 -31981186.74949  16098978.3314   16098982.8264
  19459109.521   -24143890.78349 -18800398.43749  19459111.3414   19459120.0234
  19176338.476     7187036.54949   5609197.41049  19176338.3124   19176343.9524
  16670909.830   -34321308.13349 -26113439.81549  16670911.3514   16670916.5994
 96  5  9  1 43 29.9850000  0  7 26 23 22  6 20 16 17
  18367135.783   -19462912.57849 -14696456.43349  18367137.5324   18367142.9144
  17458643.091   -21546222.20349 -16761335.29349  17458644.2464   17458650.0254
  19118064.820   -13387699.75249 -10142835.86449  19118065.8144   19118071.6854
  16100610.110   -41057211.41449 -31974497.83649  16100611.6394   16100616.5804
  19475957.427   -24055354.31949 -18731409.12849  19475959.6124   19475967.2014
  19191420.913     7266305.06449   5670965.05249  19191422.5414   19191428.5684
  16661848.005   -34368928.52849 -26150546.60049  16661849.3734   16661854.7844
 96  5  9  1 43 59.9850000  0  7 26 23 22  6 20 16 17
  18354998.672   -19526690.53349 -14746153.48949  18355000.5284   18355005.7384
  17441751.126   -21634990.45349 -16830505.31049  17441752.1134   17441757.9174
  19107343.090   -13444047.84049 -10186743.45549  19107343.5564   19107348.6774
  16102342.625   -41048109.23749 -31967405.24549  16102344.0074   16102348.7934
  19492827.024   -23966701.34349 -18662329.01749  19492829.6794   19492837.2974
  19206555.119     7345829.31149   5732931.99049  19206555.4074   19206561.7644
  16652835.886   -34416287.58649 -26187449.74349  16652837.1514   16652842.5004
 96  5  9  1 44 29.9850000  0  7 26 23 22  6 20 16 17
  18342951.279   -19590002.29349 -14795487.28149  18342952.6404   18342958.0474
  17424940.118   -21723335.77749 -16899345.77349  17424940.6034   17424946.3384
  19096723.860   -13499845.62549 -10230222.24049  19096725.3034   19096730.5614
  16104173.240   -41038487.55849 -31959907.85249  16104174.8694   16104179.5804
  19509720.743   -23877934.68049 -18593160.32349  19509721.5874   19509729.5864
  19221733.633     7425599.08449   5795090.24149  19221735.1764   19221740.9694
  16643871.456   -34463396.69849 -26224158.12249  16643872.8214   16643878.0024
 96  5  9  1 44 59.9850000  0  7 26 23 22  6 20 16 17
  18330990.943   -19652854.61549 -14844463.06949  18330992.6694   18330997.8614
  17408206.592   -21811269.34649 -16967865.39249  17408207.3524   17408213.0324
  19086210.796   -13555096.10649 -10273274.55849  19086210.1574   19086217.4494
  16106098.174   -41028374.50949 -31952027.57749  16106099.2904   16106104.0534
  19526631.706   -23789069.76849 -18523915.06949  19526631.7144   19526639.5914
  19236957.377     7505588.39149   5857419.54649  19236956.8274   19236961.8654
  16634952.280   -34510268.64949 -26260681.70449  16634953.4294   16634958.6154
 96  5  9  1 45 29.9850000  0  7 26 23 22  6 20 16 17
  18319118.801   -19715245.38149 -14893079.20549  18319119.4444   18319124.8494
  17391549.853   -21898799.79849 -17036070.88549  17391550.6234   17391556.4424
  19075804.696   -13609779.51449 -10315885.00449  19075805.4964   19075810.4114
  16108118.974   -41017752.06049 -31943750.36149  16108120.6194   16108125.6014
  19543556.287   -23700128.31449 -18454610.17249  19543557.2884   19543565.6214
  19252214.909     7585776.99049   5919904.14649  19252216.2994   19252221.5684
  16626080.328   -34556888.07149 -26297008.51149  16626081.9504   16626086.7854
 96  5  9  1 45 59.9850000  0  7 26 23 22  6 20 16 17
  18307332.826   -19777180.55349 -14941340.33849  18307333.7004   18307339.4834
  17374968.102   -21985935.91449 -17103969.10649  17374969.2874   17374974.9434
  19065503.390   -13663911.87049 -10358066.05549  19065504.2554   19065510.3104
  16110238.275   -41006619.81549 -31935075.90249  16110239.3334   16110243.7744
  19560491.351   -23611131.20549 -18385261.91149  19560492.3674   19560500.4694
  19267510.826     7666147.49949   5982530.49549  19267510.5174   19267516.1834
  16617254.913   -34603266.38049 -26333147.43749  16617256.0894   16617261.2304
 96  5  9  1 46 29.9850000  0  8 21 26 23 22  6 20 16 17
  20685311.322    -5330930.62659  -3844021.93059  20685314.5394   20685324.3574
  18295639.667   -19838624.85549 -14989218.97549  18295641.4304   18295646.4074
  17358460.780   -22072684.49049 -17171565.34149  17358461.6204   17358467.5914
  19055303.820   -13717510.29349 -10399831.04549  19055305.1124   19055310.2244
  16112450.319   -40994991.74449 -31926015.08649  16112451.9724   16112456.7924
  19577437.314   -23522080.00549 -18315871.49149  19577438.2304   19577447.0314
  19282836.257     7746693.63049   6045293.69349  19282837.2334   19282843.1464
  16608479.078   -34649384.45549 -26369083.58449  16608480.3174   16608485.4084
 96  5  9  1 46 59.9850000  0  8 21 26 23 22  6 20 16 17
  20663045.050    -5447956.81149  -3935211.01249  20663044.2834   20663053.8654
  18284046.477   -19899547.88249 -15036691.41349  18284048.2854   18284053.1804
  17342028.138   -22159036.34749 -17238852.44849  17342029.2824   17342034.7714
  19045207.477   -13770573.98349 -10441179.37449  19045206.9984   19045213.0184
  16114757.622   -40982868.36649 -31916568.31349  16114759.2434   16114763.7634
  19594393.149   -23432972.22049 -18246436.98049  19594395.6254   19594402.7674
  19298202.052     7827433.17349   6108207.59449  19298202.3454   19298207.3844
  16599759.334   -34695204.75249 -26404787.69249  16599760.8474   16599765.9964
 96  5  9  1 47 29.9850000  0  8 21 26 23 22  6 20 16 17
  20640802.385    -5564831.70749  -4026282.20649  20640803.5664   20640813.7284
  18272549.134   -19959969.02249 -15083772.76449  18272549.9174   18272555.5724
  17325669.425   -22245001.90749 -17305838.55249  17325670.7064   17325675.9944
  19035204.442   -13823129.98049 -10482132.09849  19035206.5144   19035211.2034
  16117156.738   -40970258.64549 -31906742.57349  16117158.2494   16117163.1954
  19611356.405   -23343841.29549 -18176984.45149  19611356.9284   19611364.6184
  19313598.861     7908353.66349   6171262.49949  19313600.7074   19313606.1704
  16591091.364   -34740754.64349 -26440281.09849  16591092.9344   16591098.2184
 96  5  9  1 47 59.9850000  0  8 21 26 23 22  6 20 16 17
  20618599.613    -5681513.29149  -4117202.76249  20618600.1764   20618609.1064
  18261154.088   -20019845.72049 -15130429.88649  18261156.1594   18261160.9454
  17309394.335   -22330528.87749 -17372482.89649  17309395.2784   17309400.8624
  19025306.453   -13875154.02549 -10522670.30749  19025306.4354   19025311.5044
  16119652.972   -40957141.93849 -31896521.77749  16119654.5014   16119659.2474
  19628325.177   -23254654.45449 -18107488.33749  19628328.4524   19628337.7914
  19329041.738     7989500.93949   6234494.10549  19329042.4584   19329047.7954
  16582480.187   -34786010.63149 -26475545.48649  16582481.0284   16582486.1204
 96  5  9  1 48 29.9850000  0  8 21 26 23 22  6 20 16 17
  20596424.251    -5798038.06649  -4208001.14349  20596426.3814   20596436.4914
  18249859.417   -20079196.63349 -15176677.30449  18249862.1074   18249866.1514
  17293200.739   -22415627.38549 -17438793.38349  17293201.4974   17293207.3534
  19015506.486   -13926648.21349 -10562795.65249  19015508.0444   19015512.8524
  16122243.437   -40943530.29549 -31885915.31049  16122244.8894   16122249.6544
  19645305.812   -23165430.44849 -18037963.27649  19645306.7414   19645314.9084
  19344524.629     8070864.81849   6297894.50649  19344525.1874   19344530.9714
  16573923.572   -34830970.16849 -26510578.88049  16573925.4984   16573930.5374
 96  5  9  1 48 59.9850000  0  8 21 26 23 22  6 20 16 17
  20574274.934    -5914431.12449  -4298696.87949  20574277.3974   20574286.6014
  18238662.481   -20138043.80649 -15222532.19549  18238663.8194   18238668.3254
  17277089.752   -22500288.01949 -17504762.67049  17277091.1184   17277096.6574
  19005809.392   -13977603.97749 -10602501.43849  19005810.2534   19005816.4134
  16124929.711   -40929413.25949 -31874915.03349  16124931.1824   16124935.7144
  19662291.065   -23076181.53849 -17968418.80149  19662290.0874   19662299.8294
  19360046.755     8152438.75549   6361458.57949  19360049.1224   19360054.6904
  16565420.581   -34875656.12049 -26545399.08949  16565422.1144   16565427.2964
 96  5  9  1 49 29.9850000  0  8 21 26 23 22  6 20 16 17
  20552151.161    -6030695.56249  -4389292.39449  20552153.2374   20552162.8254
  18227561.285   -20196385.36849 -15267993.10349  18227561.9134   18227566.6554
  17261063.299   -22584507.08549 -17570387.87249  17261064.7274   17261070.3314
  18996217.371   -14028011.53649 -10641780.05049  18996218.3014   18996224.0074
  16127715.364   -40914775.85149 -31863509.28249  16127716.5524   16127721.2724
  19679281.664   -22986894.77849 -17898844.82849  19679280.9604   19679289.9334
  19375611.877     8234227.60649   6425190.13349  19375612.2434   19375617.4764
  16556966.370   -34920084.93049 -26580018.93549  16556967.3964   16556972.7884
 96  5  9  1 49 59.9850000  0  8 21 26 23 22  6 20 16 17
  20530049.772    -6146841.43649  -4479795.52049  20530051.0194   20530059.1724
  18216554.622   -20254215.47549 -15313055.48149  18216556.8194   18216562.3334
  17245116.908   -22668305.56449 -17635685.35349  17245118.3284   17245123.8204
  18986729.588   -14077871.24849 -10680631.77349  18986730.6544   18986735.5914
  16130599.323   -40899619.98349 -31851699.54749  16130600.5394   16130605.1974
  19696280.966   -22897554.53649 -17829229.19249  19696282.6984   19696290.5314
  19391214.359     8316222.85049   6489082.50149  19391215.2714   19391221.1714
  16548561.823   -34964249.89949 -26614433.18549  16548563.3344   16548568.5384
 96  5  9  1 50 29.9850000  0  8 21 26 23 22  6 20 16 17
  20507968.541    -6262876.97249  -4570212.66849  20507969.5324   20507977.7924
  18205646.769   -20311538.04649 -15357722.37249  18205648.3244   18205653.4934
  17229246.543   -22751705.84649 -17700672.54749  17229247.8144   17229253.3784
  18977345.529   -14127190.21349 -10719062.13949  18977345.5394   18977350.9074
  16133579.967   -40883955.13749 -31839493.19449  16133581.8444   16133586.3394
  19713293.888   -22808153.81749 -17759566.42649  19713294.3364   19713303.0794
  19406852.726     8398401.99249   6553118.16849  19406853.2334   19406859.0494
  16540205.164   -35008165.91549 -26648653.44649  16540206.2314   16540211.4464
 96  5  9  1 50 59.9850000  0  8 21 26 23 22  6 20 16 17
  20485917.946    -6378754.06749  -4660506.36049  20485918.5454   20485928.4044
  18194841.250   -20368320.21949 -15401968.17549  18194843.3414   18194847.5684
  17213458.806   -22834672.54849 -17765321.88949  17213459.8974   17213465.2424
  18968067.602   -14175940.72549 -10757049.55649  18968068.3344   18968073.7724
  16136662.390   -40867759.43649 -31826873.18449  16136663.5564   16136668.0674
  19730324.573   -22718663.06349 -17689833.50649  19730324.8064   19730332.7294
  19422528.744     8480777.59649   6617306.92849  19422528.9204   19422534.9084
  16531895.937   -35051830.38149 -26682677.69449  16531897.2904   16531902.4414
 96  5  9  1 51 29.9850000  0  8 21 26 23 22  6 20 16 17
  20463899.375    -6494458.41349  -4750665.42749  20463900.6704   20463910.0634
  18184136.920   -20424572.05649 -15445800.73249  18184139.4304   18184143.4814
  17197752.490   -22917211.73149 -17829638.11249  17197752.8964   17197758.4084
  18958897.811   -14224129.88449 -10794599.54749  18958898.8314   18958904.5684
  16139842.872   -40851042.91349 -31813847.33149  16139844.5954   16139849.2234
  19747370.056   -22629083.65149 -17620031.49749  19747371.1994   19747379.0524
  19438237.489     8563331.84549   6681634.88849  19438239.1644   19438244.6124
  16523634.371   -35095241.99649 -26716504.91749  16523636.3904   16523641.4754
 96  5  9  1 51 59.9850000  0  8 21 26 23 22  6 20 16 17
  20441917.883    -6609975.50149  -4840678.58149  20441918.6734   20441926.1244
  18173534.065   -20480296.39449 -15489222.24349  18173534.7174   18173539.6974
  17182128.195   -22999313.72249 -17893613.66349  17182129.4824   17182134.8674
  18949837.912   -14271740.73549 -10831698.91349  18949838.4964   18949844.7994
  16143122.896   -40833810.83549 -31800419.75049  16143123.8884   16143128.3324
  19764432.535   -22539418.82849 -17550162.92649  19764434.3684   19764442.2154
  19453979.392     8646053.60249   6746093.37549  19453979.7994   19453986.0704
  16515424.606   -35138386.99649 -26750124.38949  16515426.1284   16515431.1334
 96  5  9  1 52 29.9850000  0  8 21 26 23 22  6 20 16 17
  20419971.302    -6725312.44449  -4930551.36449  20419970.9394   20419979.3344
  18163024.857   -20535524.22849 -15532256.87749  18163025.4864   18163030.7704
  17166589.244   -23080972.42749 -17957243.79749  17166590.2734   17166595.7854
  18940888.568   -14318767.37049 -10868343.04549  18940888.6994   18940894.8214
  16146497.411   -40816075.54549 -31786600.06749  16146498.7564   16146503.4554
  19781506.965   -22449693.70349 -17480247.38349  19781506.9684   19781516.7544
  19469750.845     8728928.32949   6810671.06549  19469751.4264   19469756.6874
  16507261.991   -35181282.84949 -26783549.72149  16507263.1604   16507268.2114
 96  5  9  1 52 59.9850000  0  8 21 26 23 22  6 20 16 17
  20398050.827    -6840487.06049  -5020297.65549  20398052.8204   20398061.6384
  18152603.054   -20590283.40049 -15574926.31149  18152604.9304   18152609.5984
  17151131.935   -23162201.29249 -18020538.97949  17151132.9504   17151138.5764
  18932052.053   -14365207.28349 -10904529.99849  18932052.0394   18932058.6524
  16149969.459   -40797829.69349 -31772382.54249  16149970.7114   16149975.5344
  19798586.913   -22359941.95449 -17410311.08149  19798587.2084   19798596.0324
  19485547.207     8811943.50849   6875358.19549  19485547.5794   19485553.7874
  16499145.983   -35223932.71249 -26816783.37049  16499147.0484   16499152.3014
 96  5  9  1 53 29.9850000  0  8 21 26 23 22  6 20 16 17
  20376162.127    -6955521.05749  -5109934.37249  20376163.4724   20376172.5524
  18142271.093   -20644578.26549 -15617233.95149  18142273.1864   18142278.2014
  17135753.153   -23243019.55849 -18083514.21449  17135753.8774   17135759.5314
  18923323.544   -14411073.58049 -10940269.97049  18923323.9164   18923329.9684
  16153538.110   -40779077.56249 -31757770.51449  16153539.2264   16153543.8794
  19815669.675   -22270176.83449 -17340364.35649  19815669.3924   19815676.7804
  19501371.468     8895101.27349   6940156.41649  19501372.4554   19501379.1074
  16491077.577   -35266331.11249 -26849821.07649  16491078.8514   16491084.2514
 96  5  9  1 53 59.9850000  0  8 21 26 23 22  6 20 16 17
  20354302.623    -7070398.17949  -5199448.84849  20354301.8034   20354312.1634
  18132037.312   -20698354.83649 -15659137.72649  18132039.4174   18132044.9114
  17120455.866   -23323404.92549 -18146152.12049  17120457.0344   17120462.6354
  18914710.233   -14456338.01549 -10975540.96649  18914710.5074   18914715.7514
  16157208.772   -40759784.97049 -31742737.33849  16157210.6144   16157215.1724
  19832756.137   -22180374.14649 -17270388.36449  19832756.6404   19832766.4624
  19517232.563     8978443.49949   7005098.39549  19517232.1194   19517237.8764
  16483062.155   -35308452.94349 -26882643.27549  16483063.5014   16483068.5884
 96  5  9  1 54 29.9850000  0  8 21 26 23 22  6 20 16 17
  20332467.712    -7185139.17849  -5288857.23149  20332468.4494   20332477.0624
  18121904.619   -20751606.29249 -15700632.32549  18121906.2034   18121911.4404
  17105240.794   -23403360.08449 -18208454.79749  17105241.9864   17105247.6844
  18906203.660   -14501041.22549 -11010374.64249  18906203.8844   18906208.9404
  16160981.384   -40739962.33749 -31727291.14749  16160982.3324   16160986.8974
  19849848.497   -22090558.48649 -17200402.25949  19849848.9864   19849857.9924
  19533127.327     9061974.25049   7070187.27149  19533127.5214   19533132.4594
  16475096.782   -35350312.97649 -26915261.47749  16475097.7044   16475102.9424
 96  5  9  1 54 59.9850000  0  8 21 26 23 22  6 20 16 17
  20310660.503    -7299726.67349  -5378146.01449  20310662.6054   20310670.7554
  18111881.035   -20804276.84149 -15741674.27249  18111882.9414   18111888.4764
  17090110.041   -23482871.91249 -18270412.02649  17090111.4524   17090116.8854
  18897800.013   -14545195.92449 -11044780.90249  18897801.2964   18897807.3644
  16164854.104   -40719607.91049 -31711430.57449  16164855.6214   16164860.2984
  19866940.689   -22000729.06449 -17130405.42949  19866943.2104   19866952.6394
  19549060.163     9145711.42849   7135436.99449  19549061.7834   19549067.4454
  16467183.707   -35391893.54649 -26947661.91149  16467185.1884   16467190.3034
 96  5  9  1 55 29.9850000  0  8 21 26 23 22  6 20 16 17
  20288880.636    -7414174.15649  -5467325.68749  20288883.3444   20288891.6744
  18101968.359   -20856371.24749 -15782267.27449  18101970.3774   18101975.0424
  17075060.152   -23561962.21049 -18332040.78949  17075060.9344   17075066.6094
  18889492.581   -14588850.83649 -11078797.71449  18889494.0954   18889500.1584
  16168818.937   -40698775.71649 -31695197.72349  16168820.3484   16168824.9614
  19884036.283   -21910906.71849 -17060414.11949  19884035.6514   19884045.9304
  19565030.438     9229628.21449   7200826.67349  19565030.5194   19565037.1484
  16459318.107   -35433227.26749 -26979869.99949  16459319.4404   16459324.8344
 96  5  9  1 55 59.9850000  0  9 21 26 23 22  6 28 20 16 17
  20267132.380    -7528470.06249  -5556387.25149  20267133.4464   20267142.1374
  18092164.832   -20907886.81949 -15822409.22049  18092166.6884   18092171.2314
  17060092.030   -23640617.25649 -18393330.38549  17060093.3054   17060098.8794
  18881285.146   -14631987.00249 -11112410.30449  18881285.1554   18881291.4174
  16172873.077   -40677469.76749 -31678595.70549  16172874.5094   16172879.1954
  20309269.691    -5976518.61019  -4632528.34819  20309271.263    20309276.787
  19901125.421   -21821096.00449 -16990431.88349  19901126.5364   19901135.6184
  19581034.416     9313723.46549   7266355.42749  19581033.8234   19581039.7534
  16451500.859   -35474306.63949 -27011879.89449  16451502.6434   16451507.8734
 96  5  9  1 56 29.9850000  0  9 21 26 23 22  6 28 20 16 17
  20245414.991    -7642588.24949  -5645310.33949  20245417.7974   20245425.6804
  18082472.850   -20958817.08049 -15862095.08349  18082475.0864   18082480.1274
  17045210.643   -23718817.96249 -18454265.96249  17045212.0064   17045217.7764
  18873181.772   -14674568.80749 -11145590.95049  18873181.9984   18873187.7794
  16177019.212   -40655681.80249 -31661618.09349  16177020.6884   16177025.4214
  20286555.920    -6095880.382 9  -4725537.487 9  20286557.699    20286562.851
  19918215.275   -21731280.76649 -16920446.11549  19918217.1714   19918226.8784
  19597070.106     9398000.83549   7332026.08249  19597070.7564   19597076.5574
  16443736.071   -35515111.70749 -27043676.04549  16443737.4004   16443742.6704
 96  5  9  1 56 59.9850000  0  9 21 26 23 22  6 28 20 16 17
  20223733.783    -7756528.94549  -5734095.11649  20223735.2864   20223743.7884
  18072888.107   -21009184.07249 -15901342.04449  18072890.1994   18072895.2584
  17030412.851   -23796581.77749 -18514861.11149  17030414.1814   17030419.8734
  18865188.589   -14716576.79949 -11178324.45249  18865188.5004   18865193.8584
  16181256.729   -40633410.69349 -31644263.99949  16181258.7914   16181263.3474
  20263850.188    -6215203.452 9  -4818516.471 9  20263850.963    20263856.136
  19935312.038   -21641450.21049 -16850448.41349  19935312.5694   19935321.6834
  19613136.175     9482433.15149   7397817.47449  19613138.1894   19613144.2754
  16436022.027   -35555648.92349 -27075263.48349  16436023.5774   16436028.6884
 96  5  9  1 57 29.9850000  0  9 21 26 23 22  6 28 20 16 17
  20202081.092    -7870313.03949  -5822757.87449  20202082.2954   20202091.6034
  18063402.087   -21059034.44149 -15940186.45049  18063404.4054   18063408.8994
  17015696.360   -23873917.87849 -18575122.97349  17015697.6914   17015703.5034
  18857305.873   -14757996.82249 -11210599.80349  18857307.4424   18857311.8004
  16185586.364   -40610660.36849 -31626536.49449  16185588.0084   16185592.5944
  20241149.265    -6334496.107 9  -4911471.746 9  20241150.556    20241155.344
  19952409.260   -21551605.05949 -16780439.31949  19952409.0334   19952417.7954
  19629230.645     9567003.37949   7463716.33249  19629231.5944   19629237.8724
  16428356.884   -35595928.44849 -27106650.12449  16428358.5734   16428363.7684
 96  5  9  1 57 59.9850000  0  9 21 26 23 22  6 28 20 16 17
  20180456.157    -7983958.51049  -5911312.60549  20180456.9714   20180465.0754
  18054011.991   -21108380.64149 -15978637.99949  18054014.2994   18054018.7934
  17001059.959   -23950832.92749 -18635056.74149  17001061.1214   17001066.5804
  18849536.616   -14798824.22449 -11242413.36449  18849537.5464   18849543.2684
  16190009.993   -40587416.88749 -31608424.70849  16190010.9674   16190015.7044
  20218454.183    -6453757.175 9  -5004402.405 9  20218455.676    20218460.689
  19969506.330   -21461753.17249 -16710424.99049  19969507.1004   19969516.3764
  19645349.053     9651699.75449   7529713.48749  19645348.8184   19645354.9324
  16420740.629   -35635954.59549 -27137839.32649  16420741.7814   16420746.7834
 96  5  9  1 58 29.9850000  0  9 21 26 23 22  6 28 20 16 17
  20158857.624    -8097455.35649  -5999751.52849  20158858.8794   20158867.9114
  18044718.520   -21157222.04349 -16016696.20149  18044720.0844   18044724.6504
  16986503.541   -24027327.19749 -18694662.62049  16986504.5714   16986510.2614
  18841876.611   -14839077.74849 -11273779.76149  18841877.1614   18841883.1544
  16194528.511   -40563670.09749 -31589920.73849  16194529.8634   16194534.6584
  20195768.142    -6572975.356 9  -5097299.654 9  20195768.927    20195774.419
  19986606.938   -21371890.52149 -16640402.26849  19986608.9014   19986617.2564
  19661488.391     9736519.35449   7595806.65449  19661489.4024   19661494.5624
  16413170.962   -35675733.11649 -27168835.57149  16413172.1604   16413177.2744
 96  5  9  1 58 59.9850000  0  9 21 26 23 22  6 28 20 16 17
  20137287.935    -8210803.59349  -6088074.64449  20137288.3444   20137298.4984
  18035518.694   -21205564.68549 -16054365.77049  18035520.6884   18035524.8904
  16972026.965   -24103402.32549 -18753941.90249  16972028.2254   16972033.5924
  18834320.879   -14878782.06749 -11304718.20249  18834322.0864   18834328.5224
  16199144.269   -40539414.48749 -31571020.27849  16199145.6684   16199150.3474
  20173090.472    -6692148.364 9  -5190161.696 9  20173091.492    20173095.864
  20003706.051   -21282029.21249 -16570380.59349  20003708.2664   20003717.9544
  19677653.056     9821469.26149   7662001.36649  19677654.1794   19677659.5424
  16405648.214   -35715264.48149 -27199639.22349  16405649.6414   16405654.9434
 96  5  9  1 59 29.9850000  0  9 21 26 23 22  6 28 20 16 17
  20115741.545    -8324029.23449  -6176302.24749  20115743.2414   20115751.4264
  18026411.510   -21253421.01949 -16091656.38349  18026413.7114   18026418.0444
  16957625.135   -24179083.35149 -18812914.09449  16957626.3124   16957632.0124
  18826864.495   -14917967.42249 -11335252.26049  18826865.2374   18826870.6654
  16203851.223   -40514676.19249 -31551743.70549  16203853.0744   16203857.6084
  20150417.391    -6811296.877 9  -5283004.655 9  20150417.567    20150423.482
  20020800.408   -21192209.12249 -16500391.03149  20020800.5954   20020809.6754
  19693841.819     9906536.87649   7728287.79249  19693842.2744   19693847.5724
  16398168.100   -35754569.91549 -27230266.82649  16398169.8864   16398175.0604
 96  5  9  1 59 59.9850000  0  9 21 26 23 22  6 28 20 16 17
  20094223.625    -8437106.25749  -6264414.03149  20094224.4274   20094233.3594
  18017402.002   -21300769.31249 -16128551.11849  18017403.1754   18017408.1464
  16943299.330   -24254365.05249 -18871575.11149  16943300.6224   16943306.2754
  18819506.434   -14956637.04349 -11365384.44549  18819506.8504   18819512.6074
  16208652.935   -40489444.95649 -31532083.01649  16208654.6984   16208659.4204
  20127750.437    -6930409.634 9  -5375819.752 9  20127751.477    20127756.491
  20037887.175   -21102424.84149 -16430429.36149  20037885.3444   20037894.4194
  19710053.247     9991731.63249   7794673.29349  19710054.1584   19710060.3934
  16390731.975   -35793648.94249 -27260718.00649  16390733.4184   16390738.7874
 96  5  9  2  0 29.9850000  0  9 21 26 23 22  6 28 20 16 17
  20072740.149    -8550008.18649  -6352389.38249  20072739.6904   20072749.2824
  18008490.009   -21347599.33249 -16165042.00849  18008492.1544   18008497.2494
  16929053.224   -24329229.47949 -18929910.99449  16929054.5704   16929060.0794
  18812246.681   -14994782.04449 -11395107.83949  18812248.1454   18812252.9964
  16213547.596   -40463720.76749 -31512038.21449  16213549.7734   16213554.7234
  20105091.558    -7049482.421 9  -5468603.707 9  20105092.500    20105097.177
  20054963.544   -21012675.22949 -16360494.72849  20054965.4854   20054974.4164
  19726289.221    10077054.37449   7861158.51249  19726290.8754   19726296.4124
  16383338.998   -35832498.53649 -27290990.41049  16383340.7094   16383345.7574
 96  5  9  2  0 59.9850000  0  9 21 26 23 22  6 28 20 16 17
  20051289.724    -8662726.76249  -6440221.85449  20051290.6304   20051298.9634
  17999682.955   -21393885.39849 -16201109.02249  17999683.9984   17999689.0214
  16914887.809   -24403667.25049 -18987914.41749  16914889.3514   16914894.9654
  18805094.115   -15032374.73849 -11424400.87049  18805094.5254   18805099.8664
  16218540.291   -40437488.12649 -31491597.20949  16218541.5354   16218546.3704
  20082442.534    -7168507.208 9  -5561350.258 9  20082442.738    20082448.660
  20072038.221   -20922948.11849 -16290577.62149  20072040.8094   20072049.3464
  19742552.657    10162515.52949   7927751.59449  19742553.5694   19742559.7674
  16375993.421   -35871100.28449 -27321069.68649  16375994.9074   16376000.1564
 96  5  9  2  1 29.9850000  0  9 21 26 23 22  6 28 20 16 17
  20029873.022    -8775266.30649  -6527914.81749  20029874.3444   20029883.0514
  17990977.892   -21439628.01649 -16236752.58649  17990979.3684   17990984.2714
  16900804.278   -24477678.92549 -19045585.81049  16900805.5624   16900810.9004
  18798045.884   -15069415.13949 -11453263.54049  18798045.1594   18798050.9004
  16223625.813   -40410761.79049 -31470771.50349  16223627.2184   16223632.1304
  20059801.322    -7287489.839 9  -5654063.974 9  20059801.062    20059805.966
  20089109.154   -20833246.36449 -16220680.27949  20089110.0344   20089117.7724
  19758838.139    10248093.43249   7994435.64349  19758838.7064   19758844.1934
  16368692.394   -35909467.60649 -27350966.29249  16368693.9134   16368699.1414
 96  5  9  2  1 59.9850000  0  9 21 26 23 22  6 28 20 16 17
  20008494.113    -8887609.47049  -6615454.76949  20008495.7334   20008505.5714
  17982379.539   -21484814.01549 -16271962.43149  17982380.9854   17982385.7084
  16886804.800   -24551247.78049 -19102912.15049  16886805.9224   16886811.1954
  18791102.318   -15105901.44249 -11481694.44849  18791103.0504   18791108.5234
  16228807.805   -40383532.60549 -31449553.97949  16228808.8434   16228813.8564
  20037169.132    -7406421.479 9  -5746737.955 9  20037169.959    20037174.603
  20106174.599   -20743569.51749 -16150802.34049  20106174.1854   20106183.4184
  19775143.998    10333782.12449   8061206.03249  19775144.4034   19775150.8904
  16361436.074   -35947599.46549 -27380679.41649  16361437.6414   16361442.9744
 96  5  9  2  2 29.9850000  0  9 21 26 23 22  6 28 20 16 17
  19987147.940    -8999786.61249  -6702865.36749  19987149.5334   19987157.3914
  17973886.881   -21529444.40949 -16306739.33349  17973888.1204   17973892.3204
  16872886.727   -24624387.36549 -19159904.00649  16872887.8774   16872893.2524
  18784260.732   -15141855.15449 -11509710.35049  18784261.1764   18784266.2094
  16234081.974   -40355813.68949 -31427954.84149  16234083.6014   16234088.5544
  20014543.863    -7525316.628 9  -5839383.476 9  20014544.601    20014549.374
  20123229.076   -20653943.97149 -16080964.39749  20123229.7734   20123239.2044
  19791466.086    10419555.46249   8128042.37149  19791466.3354   19791472.1714
  16354224.103   -35985499.56949 -27410211.95749  16354225.5304   16354230.6844
 96  5  9  2  2 59.9850000  0  9 21 26 23 22  6 28 20 16 17
  19965827.282    -9111821.06849  -6790164.76949  19965829.8944   19965838.1514
  17965499.218   -21573521.25549 -16341084.89649  17965500.6384   17965504.9544
  16859047.725   -24697110.83549 -19216571.60849  16859049.1294   16859054.4824
  18777518.655   -15177281.98149 -11537315.69149  18777519.7344   18777525.0294
  16239448.405   -40327613.70349 -31405980.84849  16239450.0344   16239454.7724
  19991925.160    -7644174.899 9  -5932000.279 9  19991926.172    19991931.393
  20140275.593   -20564371.03249 -16011167.41649  20140275.2274   20140284.7064
  19807804.243    10505415.39449   8194946.19149  19807805.0114   19807812.0794
  16347055.339   -36023171.80049 -27439566.93649  16347056.7804   16347062.0034
 96  5  9  2  3 29.9850000  0  9 21 26 23 22  6 28 20 16 17
  19944537.616    -9223697.97749  -6877341.40649  19944541.3434   19944548.9154
  17957219.524   -21617029.32349 -16374987.25649  17957221.5384   17957225.8404
  16845293.460   -24769388.21349 -19272891.60449  16845294.8774   16845300.2624
  18770881.681   -15212159.10849 -11564492.69349  18770882.9634   18770888.1694
  16244908.894   -40298917.58849 -31383620.26049  16244910.4054   16244915.5984
  19969319.044    -7762969.953 9  -6024567.802 9  19969319.983    19969325.965
  20157311.870   -20474823.63449 -15941390.36849  20157316.0404   20157323.7914
  19824161.881    10591375.07749   8261927.73349  19824162.7444   19824168.7674
  16339932.409   -36060605.18349 -27468735.79149  16339933.5364   16339938.6464
 96  5  9  2  3 59.9850000  0  9 21 26 23 22  6 28 20 16 17
  19923270.917    -9335466.73049  -6964433.79349  19923271.7114   19923279.6044
  17949041.240   -21660007.80949 -16408476.95449  17949042.8334   17949047.1824
  16831615.793   -24841266.83349 -19328900.89249  16831616.8544   16831622.1534
  18764343.178   -15246526.20849 -11591272.26349  18764342.8284   18764348.9854
  16250457.133   -40269763.83649 -31360903.06649  16250458.4054   16250463.3864
  19946717.332    -7881741.818 9  -6117117.275 9  19946718.030    19946723.324
  20174341.135   -20385347.50649 -15871668.82949  20174342.0414   20174351.2864
  19840532.653    10677405.74649   8328964.60249  19840534.6654   19840539.6024
  16332847.500   -36097835.60049 -27497746.49549  16332848.8424   16332854.1894
 96  5  9  2  4 29.9850000  0  9 21 26 23 22  6 28 20 16 17
  19902029.060    -9447090.03249  -7051412.82349  19902030.9114   19902038.4554
  17940970.583   -21702416.53149 -16441522.67849  17940972.3894   17940976.9934
  16818020.429   -24912710.81749 -19384571.49749  16818021.3154   16818026.6304
  18757910.283   -15280326.71449 -11617610.33749  18757911.0354   18757916.6584
  16256098.627   -40240119.63849 -31337803.71549  16256099.6314   16256104.4554
  19924129.412    -8000448.283 9  -6209615.764 9  19924128.745    19924135.506
  20191365.105   -20295890.90449 -15801962.50749  20191365.1354   20191375.2014
  19856924.163    10763549.78949   8396089.81549  19856926.8794   19856933.0574
  16325810.153   -36134817.32849 -27526563.41349  16325811.4524   16325816.4634
 96  5  9  2  4 59.9850000  0  9 21 26 23 22  6 28 20 16 17
  19880814.829    -9558574.81449  -7138283.93149  19880814.4264   19880822.1954
  17933003.404   -21744285.53449 -16474147.85949  17933005.3824   17933009.8574
  16804503.820   -24983737.87449 -19439917.23149  16804505.1864   16804510.4614
  18751586.295   -15313562.18649 -11643508.12449  18751585.8184   18751592.9004
  16261828.949   -40210006.25949 -31314338.77049  16261829.9834   16261835.0364
  19901549.047    -8119105.207 9  -6302075.679 9  19901549.325    19901554.511
  20208381.769   -20206473.20749 -15732286.50649  20208381.2164   20208389.4704
  19873338.717    10849801.45249   8463298.88349  19873340.6874   19873344.4864
  16318815.314   -36171574.37449 -27555205.25349  16318816.8094   16318821.9604
 96  5  9  2  5 29.9850000  0  9 21 26 23 22  6 28 20 16 17
  19859629.120    -9669909.19049  -7225037.82949  19859629.0474   19859637.2104
  17925137.500   -21785619.73249 -16506356.29549  17925139.6854   17925143.9124
  16791067.035   -25054352.81749 -19494941.82849  16791067.9354   16791073.1224
  18745368.110   -15346236.24549 -11668968.43549  18745368.6974   18745374.8284
  16267648.678   -40179421.96149 -31290506.87849  16267650.2424   16267654.9624
  19878979.802    -8237713.783 9  -6394497.895 9  19878978.905    19878984.402
  20225384.485   -20117111.91449 -15662654.44149  20225386.2454   20225395.3024
  19889771.908    10936160.62749   8530591.73549  19889773.0944   19889778.6614
  16311865.064   -36208099.02449 -27583666.00749  16311866.2894   16311871.1874
 96  5  9  2  5 59.9850000  0  9 21 26 23 22  6 28 20 16 17
  19838477.568    -9781060.64649  -7311649.20849  19838477.6814   19838486.4004
  17917379.159   -21826392.32349 -16538127.11149  17917380.5554   17917384.9774
  16777709.525   -25124547.58149 -19549639.01349  16777710.1224   16777715.5634
  18739259.164   -15378341.40949 -11693985.45549  18739259.1344   18739265.4314
  16273563.029   -40148345.39549 -31266291.39449  16273563.7794   16273568.4144
  19856420.504    -8356257.100 9  -6486869.274 9  19856420.627    19856426.163
  20242379.179   -20027806.68549 -15593066.06449  20242379.5124   20242389.0614
  19906226.815    11022636.32949   8597975.37449  19906229.4574   19906235.6274
  16304965.220   -36244359.14949 -27611920.63949  16304966.2234   16304971.1244
 96  5  9  2  6 29.9850000  0  9 21 26 23 22  6 28 20 16 17
  19817357.832    -9892038.48249  -7398125.29649  19817358.5194   19817366.0384
  17909723.667   -21866621.71049 -16569474.65049  17909724.7344   17909729.9664
  16764429.141   -25194333.99949 -19604018.00849  16764430.1284   16764435.6854
  18733254.498   -15409895.51149 -11718573.07849  18733255.3884   18733260.9564
  16279566.706   -40116793.81949 -31241705.77049  16279567.6454   16279572.7424
  19833871.426    -8474752.343 9  -6579203.177 9  19833871.885    19833877.261
  20259360.818   -19938579.22349 -15523538.30049  20259358.6584   20259369.7154
  19922699.112    11109201.12649   8665428.46249  19922701.4904   19922707.9454
  16298110.294   -36280379.29249 -27639988.27449  16298111.8984   16298116.7324
 96  5  9  2  6 59.9850000  0  9 21 26 23 22  6 28 20 16 17
  19796272.759   -10002840.75349  -7484464.60549  19796273.2924   19796281.5844
  17902168.800   -21906321.55749 -16600409.57549  17902170.7334   17902175.2274
  16751228.492   -25263704.86549 -19658073.19749  16751229.3874   16751234.8024
  18727352.766   -15440910.25349 -11742740.41149  18727353.3784   18727358.7724
  16285664.175   -40084751.22549 -31216737.53449  16285665.4474   16285670.3034
  19811332.696    -8593194.685 9  -6671495.864 9  19811333.482    19811338.685
  20276323.207   -19849439.76649 -15454079.09649  20276323.2414   20276332.2804
  19939191.416    11195856.82949   8732952.37349  19939192.9824   19939198.4294
  16291301.161   -36316160.31449 -27667869.58249  16291302.7444   16291307.7744
 96  5  9  2  7 29.9850000  0  9 21 26 23 22  6 28 20 16 17
  19775223.177   -10113455.21149  -7570657.53749  19775224.6894   19775231.8534
  17894717.863   -21945476.76349 -16630920.09249  17894719.1344   17894723.7214
  16738108.866   -25332649.20749 -19711796.02149  16738109.7054   16738115.1004
  18721550.267   -15471395.67449 -11766495.28449  18721551.3784   18721557.4394
  16291856.602   -40052205.14249 -31191376.96649  16291858.6324   16291863.4914
  19788806.683    -8711573.446 9  -6763739.013 9  19788807.124    19788812.025
  20293271.096   -19760372.62449 -15384676.25549  20293270.8214   20293280.3724
  19955696.510    11282592.95049   8800538.93649  19955697.0154   19955703.0564
  16284539.296   -36351696.49349 -27695560.10449  16284540.6714   16284545.3244
 96  5  9  2  7 59.9850000  0  9 21 26 23 22  6 28 20 16 17
  19754207.857   -10223886.96049  -7656708.12049  19754209.3174   19754217.6214
  17887370.690   -21984089.53349 -16661007.92949  17887371.5654   17887376.3254
  16725071.995   -25401156.95049 -19765178.63749  16725073.1134   16725078.4614
  18715850.842   -15501351.71849 -11789837.66149  18715851.4684   18715857.3224
  16298147.183   -40019154.03949 -31165622.88049  16298148.1964   16298153.3664
  19766291.875    -8829891.672 9  -6855934.990 9  19766291.722    19766296.556
  20310205.187   -19671378.98849 -15315330.68849  20310207.3854   20310215.1794
  19972216.045    11369406.50049   8868185.85949  19972217.7024   19972223.8274
  16277820.606   -36387003.52549 -27723072.06849  16277821.7494   16277826.8704
 96  5  9  2  8 29.9850000  0  9 21 26 23 22  6 28 20 16 17
  19733229.316   -10334132.78549  -7742613.83849  19733230.0334   19733237.8744
  17880125.574   -22022158.66849 -16690672.16349  17880127.6524   17880131.9424
  16712122.435   -25469207.34549 -19818204.89149  16712123.5234   16712128.6874
  18710253.681   -15530767.82449 -11812759.30949  18710253.3314   18710259.2994
  16304533.565   -39985592.97749 -31139471.42449  16304534.6284   16304539.7894
  19743789.383    -8948137.582 9  -6948074.620 9  19743790.253    19743794.959
  20327130.964   -19582444.23849 -15246031.01849  20327130.5794   20327140.1274
  19988755.332    11456319.24149   8935910.05649  19988756.6944   19988762.8254
  16271144.212   -36422086.64749 -27750409.55849  16271145.6784   16271150.6444
 96  5  9  2  8 59.9850000  0  9 21 26 23 22  6 28 20 16 17
  19712281.407   -10444213.30049  -7828390.72449  19712283.2674   19712290.9574
  17872981.493   -22059698.06749 -16719923.61849  17872983.3824   17872988.6604
  16699254.168   -25536829.04149 -19870897.09049  16699255.6624   16699260.7284
  18704755.643   -15559664.25249 -11835275.99649  18704755.2444   18704760.7394
  16311012.475   -39951547.78649 -31112942.72949  16311013.4504   16311018.2894
  19721298.735    -9066331.677 9  -7040173.889 9  19721299.261    19721303.670
  20344035.265   -19493597.93249 -15176800.26649  20344037.8084   20344047.6994
  20005308.402    11543300.72049   9003687.83749  20005307.5094   20005314.8934
  16264507.570   -36456964.14449 -27777586.82349  16264508.8744   16264513.7364
 96  5  9  2  9 29.9850000  0  8 21 26 23 22  6 28 16 17
  19691374.983   -10554088.97349  -7914008.01649  19691373.6204   19691383.0084
  17865949.914   -22096656.46949 -16748722.33749  17865950.6874   17865955.0594
  16686472.245   -25604001.16249 -19923238.97149  16686473.1094   16686478.4304
  18699360.642   -15588009.69249 -11857363.36149  18699361.0414   18699366.9944
  16317584.915   -39917008.47949 -31086029.00449  16317585.8704   16317590.9984
  19698821.187    -9184446.991 9  -7132211.762 9  19698822.054    19698826.556
  20021878.466    11630377.41949   9071539.79749  20021878.0974   20021885.1414
  16257916.365   -36491602.48849 -27804577.73849  16257917.4574   16257922.4534
 96  5  9  2  9 59.9850000  0  8 21 26 23 22  6 28 16 17
  19670500.043   -10663779.48249  -7999481.00549  19670501.0984   19670508.2874
  17859025.318   -22133043.73249 -16777076.02349  17859026.4034   17859031.3794
  16673771.411   -25670745.75549 -19975247.71649  16673772.0814   16673777.4034
  18694072.067   -15615803.04549 -11879020.51649  18694072.1164   18694077.6734
  16324245.951   -39882003.26049 -31058752.24049  16324247.2524   16324252.4974
  19676357.185    -9302496.864 9  -7224198.626 9  19676357.329    19676362.392
  20038463.855    11717530.48449   9139451.27049  20038463.9834   20038469.4374
  16251368.857   -36526007.98049 -27831387.20749  16251370.0424   16251375.0874
 96  5  9  2 10 29.9850000  0  8 21 26 23 22  6 28 16 17
  19649661.910   -10773285.32249  -8084810.11949  19649662.6254   19649669.4354
  17852209.454   -22168857.50449 -16804982.83249  17852211.3794   17852216.0734
  16661147.898   -25737082.32349 -20026938.51649  16661148.5624   16661153.6674
  18688886.132   -15643051.44549 -11900253.04949  18688886.6134   18688892.0414
  16330992.141   -39846554.66549 -31031129.98349  16330993.0164   16330997.9344
  19653905.387    -9420482.982 9  -7316135.832 9  19653905.756    19653911.094
  20055058.831    11804735.47449   9207403.18949  20055058.3594   20055064.8854
  16244865.670   -36560182.84649 -27858016.96249  16244866.7124   16244872.0494
 96  5  9  2 10 59.9850000  0  8 21 26 23 22  6 28 16 17
  19628859.278   -10882595.46849  -8169986.74049  19628860.9554   19628868.4374
  17845505.293   -22204091.37849 -16832437.76449  17845506.7714   17845511.2274
  16648601.662   -25803013.58649 -20078313.49049  16648602.1484   16648607.5594
  18683804.096   -15669748.32749 -11921055.81149  18683805.8794   18683812.1314
  16337822.949   -39810654.27949 -31003155.67049  16337824.5914   16337829.4834
  19631466.905    -9538397.641 9  -7408017.359 9  19631467.561    19631472.190
  20071661.114    11891987.56849   9275391.82149  20071662.3414   20071667.0964
  16238408.837   -36594115.18849 -27884457.73849  16238409.6154   16238414.6824
 96  5  9  2 11 29.9850000  0  8 21 26 23 22  6 28 16 17
  19608098.974   -10991700.84449  -8255003.80949  19608099.6474   19608106.3964
  17838912.696   -22238736.78449 -16859434.15049  17838913.8714   17838918.3254
  16636135.124   -25868523.35149 -20129360.03049  16636135.9944   16636141.4934
  18678830.701   -15695890.74549 -11941426.52749  18678831.8084   18678837.6754
  16344742.888   -39774293.59249 -30974822.68749  16344743.6684   16344748.6494
  19609044.994    -9656227.571 9  -7499832.855 9  19609044.849    19609049.515
  20088276.563    11979301.56649   9343428.68649  20088277.2734   20088283.1004
  16231999.466   -36627795.66649 -27910702.26449  16232000.6754   16232005.6054
 96  5  9  2 11 59.9850000  0  8 21 26 23 22  6 28 16 17
  19587371.856   -11100622.96949  -8339878.07949  19587371.8624   19587379.0894
  17832425.545   -22272822.78949 -16885994.63849  17832427.5614   17832431.9554
  16623749.939   -25933609.83149 -20180076.73649  16623750.4714   16623755.9764
  18673960.606   -15721489.96349 -11961373.98749  18673960.1454   18673966.0164
  16351749.583   -39737473.07849 -30946131.40049  16351750.6104   16351755.5494
  19586636.770    -9773977.654 9  -7591586.130 9  19586637.474    19586642.750
  20104901.502    12066662.25249   9411501.92749  20104901.4124   20104907.0544
  16225634.124   -36661244.49549 -27936766.28849  16225635.2834   16225640.3434
 96  5  9  2 12 29.9850000  0  8 21 26 23 22  6 28 16 17
  19566677.752   -11209363.47949  -8424610.83349  19566679.3054   19566687.0064
  17826043.459   -22306364.17749 -16912130.74249  17826044.6694   17826048.5514
  16611446.707   -25998264.14149 -20230456.68449  16611447.2694   16611452.7414
  18669189.864   -15746560.61449 -11980909.56649  18669189.9904   18669195.6694
  16358843.915   -39700189.33749 -30917079.15949  16358845.3024   16358850.4974
  19564246.204    -9891648.111 9  -7683277.370 9  19564246.690    19564251.033
  20121535.655    12154081.26049   9479620.62049  20121536.3664   20121542.6614
  16219311.771   -36694469.29149 -27962655.73649  16219312.7374   16219317.9364
 96  5  9  2 12 59.9850000  0  8 21 26 23 22  6 28 16 17
  19546018.156   -11317936.77749  -8509213.29949  19546017.8404   19546025.9294
  17819760.214   -22339378.76649 -16937856.36849  17819762.5174   17819766.8204
  16599224.109   -26062492.49749 -20280504.72449  16599225.1114   16599230.4234
  18664517.652   -15771112.73949 -12000041.11249  18664517.4174   18664522.7714
  16366026.929   -39662444.11349 -30887667.32149  16366028.2354   16366033.2634
  19541867.325   -10009248.409 9  -7774913.956 9  19541866.720    19541872.508
  20138183.493    12241563.83849   9547788.83549  20138184.3594   20138189.9324
  16213031.916   -36727469.43349 -27988370.12949  16213033.1544   16213038.3694
 96  5  9  2 13 29.9850000  0  8 21 26 23 22  6 28 16 17
  19525386.762   -11426348.03749  -8593689.50049  19525388.5784   19525395.8384
  17813580.480   -22371855.45149 -16963162.84549  17813581.9204   17813586.4164
  16587086.158   -26126277.78049 -20330207.50849  16587086.9634   16587092.4134
  18659946.550   -15795133.15949 -12018758.32349  18659946.6784   18659952.4614
  16373297.167   -39624240.70849 -30857898.45649  16373297.9334   16373302.9744
  19519502.812   -10126770.454 9  -7866489.532 9  19519503.124    19519508.575
  20154844.538    12329120.31649   9616014.65549  20154845.6194   20154851.4254
  16206797.232   -36760235.39049 -28013902.03849  16206798.2144   16206803.1574
 96  5  9  2 13 59.9850000  0  8 21 26 23 22  6 28 16 17
  19504790.751   -11534585.67549  -8678030.42249  19504791.3884   19504798.3174
  17807506.245   -22403777.51949 -16988037.14449  17807507.6134   17807511.8524
  16575037.202   -26189597.51749 -20379547.53249  16575037.6714   16575043.0114
  18655482.299   -15818590.41949 -12037036.73649  18655482.3964   18655488.5264
  16380657.003   -39585558.75749 -30827756.69249  16380658.7114   16380664.0324
  19497158.441   -10244192.566 9  -7957987.276 9  19497159.428    19497163.121
  20171523.335    12416766.83949   9684310.62749  20171523.3234   20171530.6454
  16200610.749   -36792743.68249 -28039233.17049  16200612.0254   16200617.0474
 96  5  9  2 14 29.9850000  0  8 21 26 23 22  6 28 16 17
  19484223.437   -11642664.11049  -8762247.27649  19484225.2624   19484231.7424
  17801538.748   -22435137.30549 -17012473.31749  17801539.7554   17801544.3404
  16563073.298   -26252467.22849 -20428536.88549  16563074.0434   16563079.1754
  18651124.096   -15841492.02949 -12054882.15949  18651124.9524   18651131.0044
  16388106.484   -39546416.10649 -30797255.94949  16388107.4314   16388112.6914
  19474829.525   -10361527.081 9  -8049416.740 9  19474829.862    19474834.755
  20188217.435    12504499.46349   9752673.69649  20188219.3694   20188224.9864
  16194471.097   -36825006.80349 -28064373.26249  16194472.6164   16194477.5574
 96  5  9  2 14 59.9850000  0  8 21 26 23 22  6 28 16 17
  19463686.287   -11750586.75449  -8846342.74349  19463686.7494   19463695.3744
  17795677.107   -22465932.61849 -17036469.63849  17795679.4394   17795683.6004
  16551193.578   -26314896.39349 -20477182.95749  16551194.2604   16551199.4374
  18646873.134   -15863837.74649 -12072294.42549  18646873.0464   18646878.6604
  16395644.072   -39506808.68149 -30766393.04049  16395644.5624   16395649.8444
  19452517.639   -10478778.385 9  -8140781.370 9  19452519.396    19452522.725
  20204925.321    12592292.86149   9821084.11349  20204925.2334   20204932.1394
  16188375.940   -36857039.08349 -28089333.47349  16188376.8904   16188382.2184
 96  5  9  2 15 29.9850000  0  8 21 26 23 22  6 28 16 17
  19443180.908   -11858343.40649  -8930308.87449  19443181.5944   19443189.2654
  17789929.053   -22496147.05049 -17060013.32149  17789930.0824   17789934.6574
  16539400.311   -26376867.08649 -20525471.77749  16539401.1784   16539406.6814
  18642727.065   -15885623.37749 -12089270.27149  18642726.3714   18642732.7234
  16403273.088   -39466715.47249 -30735151.60349  16403274.2584   16403279.1644
  19430223.852   -10595934.692 9  -8232071.974 9  19430223.795    19430228.678
  20221640.261    12680131.81049   9889530.02749  20221640.7174   20221646.8164
  16182322.323   -36888852.69249 -28114123.29349  16182323.0734   16182328.3814
 96  5  9  2 15 59.9850000  0  8 21 26 23 22  6 28 16 17
  19422710.118   -11965918.67249  -9014133.66349  19422710.1504   19422717.8494
  17784288.543   -22525783.54149 -17083106.65849  17784290.6264   17784294.0664
  16527691.905   -26438396.07449 -20573416.41149  16527692.6894   16527697.9724
  18638683.695   -15906864.45249 -12105821.78149  18638684.8424   18638690.4234
  16410995.910   -39426129.87849 -30703526.48249  16410997.2064   16411002.2444
  19407946.842   -10712995.911 9  -8323288.479 9  19407948.875    19407952.980
  20238362.635    12768009.05349   9958005.78449  20238363.6714   20238369.1664
  16176307.758   -36920457.24949 -28138750.21649  16176308.7214   16176313.7944
 96  5  9  2 16 29.9840000  0  7 21 26 23 22  6 28 17
  19402278.961   -12073289.84249  -9097799.40649  19402279.1764   19402286.0244
  17778759.487   -22554838.02249 -17105746.48349  17778761.6144   17778765.9924
  16516064.815   -26499497.24349 -20621027.67849  16516065.4884   16516070.7254
  18634744.693   -15927571.76549 -12121957.36649  18634744.7644   18634749.2494
  16418815.047   -39385041.50649 -30671509.59349  16418815.9944   16418821.2084
  19385691.904   -10829955.422 9  -8414425.742 9  19385691.308    19385696.117
  16170332.692   -36951857.87149 -28163218.22549  16170333.5964   16170338.7204
 96  5  9  2 16 59.9840000  0  7 21 26 23 22  6 28 17
  19381884.669   -12180459.65449  -9181308.26949  19381885.4794   19381891.8984
  17773339.533   -22583326.52049 -17127945.28849  17773340.2544   17773344.3264
  16504515.527   -26560187.37549 -20668318.65949  16504516.6164   16504521.5854
  18630903.533   -15947756.12749 -12137685.46249  18630904.0984   18630908.8844
  16426729.032   -39343456.73049 -30639105.89449  16426729.4284   16426734.5664
  19363451.049   -10946826.676 9  -8505494.214 9  19363452.079    19363456.624
  16164395.939   -36983057.55749 -28187529.66549  16164396.3654   16164401.3964
 96  5  9  2 17 29.9840000  0  7 21 26 23 22  6 28 17
  19361530.076   -12287417.19749  -9264651.71849  19361530.8634   19361538.8544
  17768027.448   -22611235.27349 -17149692.33949  17768029.0934   17768033.4884
  16493046.975   -26620456.37749 -20715281.48349  16493047.6934   16493052.7224
  18627164.278   -15967405.33049 -12152996.54849  18627164.3234   18627170.0664
  16434735.397   -39301381.58349 -30606320.08049  16434736.0214   16434741.1304
  19341231.545   -11063592.954 9  -8596480.899 9  19341231.504    19341236.510
  16158501.116   -37014032.91249 -28211666.29949  16158501.9264   16158506.7594
 96  5  9  2 17 59.9840000  0  7 21 26 23 22  6 28 17
  19341217.130   -12394165.68249  -9347832.27749  19341218.3144   19341225.5634
  17762826.713   -22638567.34349 -17170990.03049  17762828.4294   17762832.5704
  16481656.899   -26680312.18349 -20761922.33949  16481657.4514   16481662.5904
  18623526.912   -15986519.45649 -12167890.69849  18623527.3794   18623532.8144
  16442829.780   -39258842.18949 -30573172.51949  16442830.9384   16442836.0304
  19319030.887   -11180255.070 9  -8687386.413 9  19319032.049    19319036.659
  16152651.635   -37044773.37149 -28235619.90049  16152652.5054   16152657.1594
 96  5  9  2 18 29.9840000  0  7 21 26 23 22  6 28 17
  19320938.674   -12500721.96249  -9430863.05749  19320940.5074   19320949.2574
  17757736.901   -22665318.79349 -17191835.29149  17757737.5544   17757742.0754
  16470345.675   -26739750.48449 -20808237.86749  16470346.6924   16470351.7384
  18619992.459   -16005098.88649 -12182368.20049  18619991.7284   18619996.8114
  16451009.908   -39215850.55149 -30539672.55949  16451012.2004   16451016.9984
  19296849.275   -11296818.789 9  -8778215.248 9  19296850.507    19296854.938
  16146845.516   -37075282.94649 -28259393.59149  16146846.5714   16146851.3374
 96  5  9  2 18 59.9840000  0  7 21 26 23 22  6 28 17
  19300701.670   -12607079.18849  -9513738.72749  19300702.1314   19300708.3544
  17752759.195   -22691473.47949 -17212215.53349  17752760.6414   17752765.1054
  16459120.336   -26798742.13649 -20854205.35449  16459120.9574   16459126.1104
  18616559.900   -16023133.85449 -12196421.45449  18616559.6024   18616565.5184
  16459276.472   -39172413.37649 -30505825.42449  16459277.7634   16459282.9024
  19274690.044   -11413269.066 9  -8868955.688 9  19274690.590    19274695.640
  16141087.712   -37105539.37949 -28282970.02349  16141088.8234   16141093.9594
 96  5  9  2 19 29.9840000  0  7 21 26 23 22  6 28 17
  19280499.485   -12713231.78149  -9596454.94549  19280502.2204   19280508.5904
  17747896.685   -22717025.00849 -17232125.79749  17747898.2344   17747902.2044
  16447979.823   -26857286.13949 -20899824.02349  16447980.4374   16447985.3734
  18613228.806   -16040634.09549 -12210058.02449  18613229.3304   18613234.7444
  16467628.484   -39128529.44949 -30471630.17749  16467628.7304   16467633.9634
  19252552.159   -11529601.024 9  -8959603.923 9  19252553.640    19252558.104
  16135379.838   -37135536.10449 -28306344.08949  16135380.8964   16135385.6474
 96  5  9  2 19 59.9840000  0  7 21 26 23 22  6 28 17
  19260343.554   -12819160.10449  -9678996.41649  19260344.2864   19260351.2654
  17743150.746   -22741963.86849 -17251558.65249  17743152.1184   17743156.9694
  16436922.776   -26915389.87349 -20945099.62649  16436923.6574   16436928.6234
  18609999.139   -16057608.44849 -12223284.81849  18609999.4274   18610005.8434
  16476063.709   -39084198.33449 -30437086.46949  16476064.4854   16476069.5294
  19230438.405   -11645812.156 9  -9050158.004 9  19230439.312    19230444.047
  16129721.460   -37165272.43249 -28329515.24649  16129722.2414   16129727.0034
 96  5  9  2 20 29.9840000  0  7 21 26 23 22  6 28 17
  19240227.833   -12924871.11849  -9761368.54549  19240227.3724   19240235.5734
  17738520.476   -22766303.87949 -17270524.87049  17738520.5794   17738524.8044
  16425948.028   -26973063.14949 -20990039.80849  16425948.7304   16425953.9584
  18606866.865   -16074063.91349 -12236107.28949  18606867.9144   18606873.4424
  16484586.142   -39039412.56949 -30402188.49249  16484586.7434   16484592.2914
  19208347.191   -11761910.995 9  -9140624.591 9  19208346.155    19208351.415
  16124110.311   -37194755.99249 -28352489.44349  16124111.5614   16124116.3594
 96  5  9  2 20 59.9840000  0  7 21 26 23 22  6 28 17
  19220151.231   -13030365.61849  -9843571.95449  19220152.5224   19220160.2614
  17733997.814   -22790066.67249 -17289041.30649  17733998.9984   17734003.2614
  16415054.116   -27030310.49549 -21034648.09849  16415055.0224   16415060.0754
  18603834.495   -16090009.19349 -12248532.20149  18603834.0314   18603839.4144
  16493192.691   -38994181.90449 -30366943.83749  16493194.0764   16493199.0694
  19186273.724   -11877902.334 9  -9231007.419 9  19186273.835    19186279.252
  16118545.857   -37223999.13449 -28375276.30249  16118546.8854   16118551.7014
 96  5  9  2 21 29.9840000  0  7 21 26 23 22  6 28 17
  19200121.097   -13135626.45449  -9925593.29149  19200121.6694   19200129.0664
  17729588.083   -22813238.21449 -17307097.02849  17729589.4064   17729593.4544
  16404244.482   -27087117.47449 -21078913.24249  16404244.8354   16404250.1594
  18600903.256   -16105407.91349 -12260531.22749  18600904.0014   18600909.1254
  16501889.820   -38948478.54549 -30331330.84949  16501891.0944   16501896.2194
  19164226.586   -11993764.284 9  -9321289.413 9  19164226.297    19164231.651
  16113027.268   -37252998.35949 -28397873.08949  16113028.3664   16113033.1764
 96  5  9  2 21 59.9840000  0  7 21 26 23 22  6 28 17
  19180131.911   -13240668.18449 -10007443.90749  19180132.7044   19180139.7834
  17725288.059   -22835834.47549 -17324704.48849  17725289.7354   17725293.6804
  16393518.288   -27143483.18549 -21122834.54449  16393519.0224   16393524.0074
  18598080.374   -16120248.66449 -12272095.48049  18598079.4634   18598085.6684
  16510679.159   -38902295.14949 -30295343.82349  16510679.6824   16510684.7484
  19142202.448   -12109496.556 9  -9411470.356 9  19142203.255    19142208.014
  16107552.549   -37281769.80849 -28420292.39849  16107553.2664   16107558.1714
 96  5  9  2 22 29.9840000  0  7 21 26 23 22  6 28 17
  19160185.150   -13345493.20549 -10089125.65449  19160185.2514   19160193.1014
  17721096.549   -22857864.53249 -17341870.74249  17721097.2054   17721101.5994
  16382879.906   -27199389.40549 -21166397.79849  16382880.1934   16382885.4154
  18595363.270   -16134519.86649 -12283215.91949  18595363.8674   18595369.6694
  16519561.537   -38855617.87749 -30258971.95549  16519562.3644   16519567.1414
  19120205.948   -12225089.695 9  -9501542.892 9  19120205.910    19120210.947
  16102119.411   -37310319.49749 -28442538.89849  16102120.3694   16102125.3934
 96  5  9  2 22 59.9840000  0  7 21 26 23 22  6 28 17
  19140279.684   -13450100.06149 -10170637.40049  19140279.7174   19140286.5964
  17717009.370   -22879336.37949 -17358602.03449  17717011.0844   17717015.4054
  16372324.759   -27254855.84049 -21209618.36349  16372325.2014   16372330.4854
  18592753.600   -16148236.17249 -12293903.98149  18592753.6374   18592759.2834
  16528532.887   -38808473.36549 -30222236.00349  16528533.5254   16528538.4444
  19098234.241   -12340553.212 9  -9591514.427 9  19098234.094    19098238.848
  16096726.464   -37338662.20749 -28464624.11549  16096727.1904   16096731.8374
 96  5  9  2 23 29.9840000  0  7 21 26 23 22  6 28 17
  19120415.066   -13554483.37149 -10251974.93849  19120415.9444   19120422.9634
  17713033.390   -22900232.58549 -17374884.76949  17713034.6544   17713039.1974
  16361854.019   -27309881.20749 -21252495.23949  16361854.1794   16361859.3954
  18590248.760   -16161397.86649 -12304159.86749  18590249.6714   18590254.6904
  16537594.896   -38760850.84249 -30185127.56549  16537595.7404   16537600.7274
  19076288.631   -12455875.011 9  -9681375.523 9  19076288.980    19076294.237
  16091376.354   -37366775.65449 -28486530.68749  16091377.2254   16091382.0364
 96  5  9  2 23 59.9840000  0  7 21 26 23 22  6 28 17
  19100591.158   -13658661.78849 -10333152.83049  19100591.8524   19100598.0234
  17709164.147   -22920566.42049 -17390729.29549  17709165.2114   17709169.9264
  16351464.989   -27364472.97649 -21295034.24749  16351465.8454   16351470.7024
  18587842.447   -16174043.50949 -12314013.64149  18587842.7234   18587847.7254
  16546744.336   -38712769.10649 -30147661.29749  16546745.4824   16546750.6144
  19054369.007   -12571071.233 9  -9771138.777 9  19054368.079    19054373.476
  16086070.197   -37394661.61349 -28508259.99949  16086070.7444   16086075.5254
 96  5  9  2 24 29.9840000  0  7 21 26 23 22  6 28 17
  19080808.374   -13762620.27849 -10414159.35249  19080808.8414   19080816.2134
  17705408.548   -22940303.78649 -17406109.03849  17705409.4974   17705413.9514
  16341163.358   -27418607.79149 -21337217.18849  16341164.3294   16341169.2164
  18585536.514   -16186164.33449 -12323458.46649  18585536.1834   18585541.8914
  16555984.236   -38664216.82149 -30109828.37349  16555984.7114   16555989.5604
  19032473.024   -12686125.700 9  -9860791.565 9  19032474.151    19032478.658
  16080812.867   -37422287.07549 -28529786.32349  16080813.7714   16080818.4744
 96  5  9  2 24 59.9840000  0  7 21 26 23 22  6 28 17
  19061067.095   -13866356.70149 -10494992.83549  19061068.0154   19061075.1924
  17701772.385   -22959412.25249 -17420998.73449  17701773.4834   17701777.5014
  16330953.130   -27472264.97549 -21379027.94949  16330953.5194   16330958.7184
  18583332.598   -16197738.26049 -12332477.13449  18583334.0064   18583339.4344
  16565315.744   -38615180.14249 -30071618.00549  16565315.9554   16565321.2414
  19010610.906   -12801017.900 9  -9950317.916 9  19010610.716    19010615.235
  16075610.175   -37449628.21349 -28551091.09749  16075610.8094   16075615.6634
 96  5  9  2 25 29.9840000  0  7 21 26 23 22  6 28 17
  19041363.045   -13969904.37649 -10575679.23649  19041364.1544   19041371.3964
  17698253.591   -22977900.38349 -17435405.06049  17698254.9494   17698258.9314
  16320833.331   -27525443.48949 -21420465.72349  16320833.9854   16320839.2534
  18581233.210   -16208774.11749 -12341076.52649  18581234.0264   18581239.2024
  16574736.154   -38565670.38649 -30033039.00549  16574737.4584   16574742.4454
  18988775.846   -12915759.197 9 -10039726.671 9  18988776.506    18988780.917
  16070458.141   -37476701.50649 -28572187.15849  16070459.1614   16070463.9924
 96  5  9  2 25 59.9840000  0  7 21 26 23 22  6 28 17
  19021694.793   -14073259.45249 -10656215.55549  19021696.0994   19021703.2724
  17694855.356   -22995762.62949 -17449323.67749  17694855.7274   17694860.0074
  16310804.133   -27578147.89949 -21461534.06149  16310804.7314   16310809.8274
  18579238.167   -16219259.78249 -12349247.19249  18579238.8924   18579244.3284
  16584248.470   -38515683.66449 -29994088.35749  16584249.4864   16584254.9844
  18966968.442   -13030353.381 9 -10129020.792 9  18966969.388    18966974.086
  16065354.528   -37503521.12849 -28593085.55349  16065355.5104   16065360.4914
 96  5  9  2 26 29.9840000  0  7 21 26 23 22  6 28 17
  19002066.311   -14176416.68049 -10736597.72149  19002066.2774   19002072.7574
  17691574.290   -23013000.42949 -17462755.70349  17691575.8294   17691579.6304
  16300860.236   -27630402.32349 -21502251.76649  16300861.1084   16300866.0874
  18577348.493   -16229190.10649 -12356985.12349  18577348.7034   18577353.9364
  16593848.832   -38465237.31149 -29954779.55049  16593849.2414   16593854.3914
  18945189.344   -13144805.500 9 -10218204.220 9  18945189.854    18945194.453
  16060296.740   -37530100.66349 -28613796.86749  16060297.4634   16060302.2534
 96  5  9  2 26 59.9840000  0  7 21 26 23 22  6 28 17
  18982476.200   -14279358.79349 -10816812.25849  18982477.0504   18982483.6004
  17688411.244   -23029627.21149 -17475711.61349  17688411.9604   17688416.1984
  16290999.214   -27682222.64649 -21542631.20649  16290999.9324   16291005.0364
  18575564.021   -16238570.87049 -12364294.82649  18575563.9344   18575569.8584
  16603532.937   -38414343.40049 -29915121.99049  16603534.3234   16603539.2934
  18923437.140   -13259115.206 9 -10307276.678 9  18923437.697    18923441.629
  16055283.295   -37556446.31949 -28634325.93549  16055284.3294   16055289.0394
 96  5  9  2 27 29.9840000  0  7 21 26 23 22  6 28 17
  18962933.527   -14382052.48849 -10896833.24149  18962935.1004   18962941.5154
  17685365.184   -23045631.91049 -17488182.79049  17685366.0004   17685370.6054
  16281220.940   -27733610.67149 -21582673.79549  16281221.1584   16281225.9224
  18573883.275   -16247400.64949 -12371175.18349  18573883.3334   18573889.0624
  16613305.250   -38362991.29249 -29875107.39049  16613306.1034   16613311.0684
  18901713.998   -13373268.681 9 -10396227.398 9  18901714.771    18901718.936
  16050317.891   -37582540.84849 -28654659.32349  16050318.4484   16050323.4114
 96  5  9  2 27 59.9840000  0  7 21 26 23 22  6 28 17
  18943439.153   -14484504.06849 -10976665.54549  18943438.9804   18943446.2594
  17682433.361   -23061038.46049 -17500187.87449  17682434.5934   17682438.7434
  16271518.725   -27784593.85049 -21622400.92049  16271519.2434   16271524.2954
  18572302.434   -16255708.98949 -12377649.22949  18572302.6704   18572308.3224
  16623160.319   -38311199.32549 -29834750.04349  16623161.9424   16623167.2974
  18880018.946   -13487277.512 9 -10485065.424 9  18880019.555    18880023.771
  16045396.616   -37608399.83449 -28674809.17049  16045397.7344   16045402.5764
 96  5  9  2 28 29.9840000  0  7 21 26 23 22  6 28 17
  18923989.687   -14586700.55949 -11056299.08749  18923991.4554   18923998.0144
  17679612.141   -23075859.81949 -17511736.96249  17679613.7914   17679618.2134
  16261896.914   -27835157.05849 -21661800.79649  16261897.4644   16261902.5584
  18570821.460   -16263492.19749 -12383714.06949  18570821.0784   18570826.5574
  16633099.482   -38258973.03949 -29794054.25849  16633100.2064   16633105.2384
  18858355.440   -13601125.266 9 -10573777.932 9  18858355.090    18858359.217
  16040522.426   -37634014.71349 -28694768.80249  16040523.1074   16040528.1254
 96  5  9  2 28 59.9840000  0  7 21 26 23 22  6 28 17
  18904591.953   -14688640.93949 -11135733.05349  18904592.5414   18904599.5214
  17676904.604   -23090095.03749 -17522829.31649  17676904.9574   17676909.2634
  16252359.279   -27885279.00749 -21700856.82849  16252359.6974   16252364.6964
  18569439.922   -16270748.87149 -12389368.63449  18569440.4904   18569446.0774
  16643124.035   -38206296.46349 -29753007.60649  16643124.0454   16643129.4264
  18836722.887   -13714802.431 9 -10662357.512 9  18836723.104    18836726.990
  16035694.221   -37659388.79149 -28714540.79549  16035694.8694   16035699.7144
 96  5  9  2 29 29.9840000  0  7 21 26 23 22  6 28 17
  18885237.772   -14790349.72249 -11214986.58549  18885237.4984   18885243.8874
  17674303.572   -23103759.37049 -17533476.82949  17674305.0324   17674309.2394
  16242904.107   -27934962.99249 -21739571.59449  16242904.8774   16242910.1764
  18568157.529   -16277491.63649 -12394622.75149  18568157.0584   18568162.1624
  16653231.190   -38153183.03849 -29711620.54749  16653231.5094   16653236.3624
  18815120.658   -13828319.041 9 -10750811.992 9  18815121.439    18815125.465
  16030907.191   -37684544.24749 -28734142.44049  16030907.8624   16030912.5474
 96  5  9  2 29 59.9840000  0  7 21 26 23 22  6 28 17
  18865926.078   -14891826.31049 -11294059.15449  18865927.1334   18865934.1304
  17671809.788   -23116862.43249 -17543686.98149  17671811.3004   17671815.0744
  16233536.240   -27984194.43849 -21777933.73149  16233536.5804   16233541.6604
  18566972.813   -16283710.95649 -12399468.98949  18566973.8444   18566978.8284
  16663420.864   -38099630.23249 -29669891.10749  16663421.9804   16663427.4414
  18793550.906   -13941669.274 9 -10839136.821 9  18793551.385    18793555.205
  16026163.056   -37709474.40049 -28753568.51849  16026163.8554   16026168.5834
 96  5  9  2 30 29.9840000  0  7 21 26 23 22  6 28 17
  18846661.597   -14993064.53449 -11372945.98149  18846662.0464   18846669.5194
  17669427.974   -23129381.48849 -17553442.06249  17669428.7514   17669432.9974
  16224256.558   -28032958.72549 -21815931.85049  16224256.9674   16224261.9874
  18565893.969   -16289389.25449 -12403893.65949  18565893.9394   18565899.6014
  16673697.851   -38045622.37649 -29627807.08749  16673699.6774   16673704.6354
  18772014.902   -14054841.206 9 -10927322.720 9  18772015.385    18772019.505
  16021466.457   -37734156.39249 -28772801.22749  16021467.0354   16021471.8934
 96  5  9  2 30 59.9840000  0  7 21 26 23 22  6 28 17
  18827442.441   -15094063.38649 -11451646.28749  18827442.4294   18827449.1614
  17667162.852   -23141283.92849 -17562716.66249  17667163.9754   17667168.5794
  16215067.854   -28081244.87849 -21853557.39849  16215068.5174   16215073.3304
  18564917.104   -16294520.66049 -12407892.16449  18564916.5404   18564922.9164
  16684066.584   -37991136.48649 -29585350.56249  16684067.9194   16684072.8254
  18750516.590   -14167820.976 9 -11015358.882 9  18750516.222    18750520.088
  16016822.658   -37758560.03549 -28791817.04249  16016823.1864   16016827.5454
 96  5  9  2 31 29.9840000  0  7 21 26 23 22  6 28 17
  18808266.717   -15194827.73549 -11530163.88249  18808268.0914   18808275.0784
  17665015.411   -23152574.29549 -17571514.31749  17665015.3474   17665019.8684
  16205967.647   -28129067.84349 -21890822.02149  16205967.9744   16205972.8964
  18564044.424   -16299108.78849 -12411467.34249  18564043.4324   18564049.9894
  16694524.452   -37936183.14749 -29542529.79949  16694525.0434   16694529.8914
  18729052.995   -14280610.297 9 -11103246.638 9  18729053.173    18729057.408
  16012230.615   -37782689.91049 -28810619.52549  16012231.4574   16012235.9754
 96  5  9  2 31 59.9840000  0  7 21 26 23 22  6 28 17
  18789136.041   -15295362.76449 -11608502.77949  18789136.2984   18789144.0194
  17662985.043   -23163239.04349 -17579824.48849  17662986.1144   17662990.3224
  16196953.824   -28176435.61449 -21927731.94649  16196954.1024   16196959.0594
  18563274.646   -16303153.19649 -12414618.83649  18563273.9994   18563280.3704
  16705071.100   -37880757.32349 -29499340.86549  16705072.3374   16705077.6464
  18707626.352   -14393208.516 9 -11190985.487 9  18707626.558    18707630.759
  16007691.268   -37806543.89349 -28829207.03449  16007692.1304   16007696.7884
 96  5  9  2 32 29.9840000  0  7 21 26 23 22  6 28 17
  18770044.019   -15395688.06449 -11686678.25049  18770045.3454   18770052.1294
  17661072.022   -23173291.62349 -17587657.64649  17661073.0134   17661077.3034
  16188021.262   -28223376.27749 -21964309.05949  16188021.6484   16188026.3764
  18562603.716   -16306679.16949 -12417366.36249  18562603.1774   18562609.9444
  16715704.677   -37824881.17749 -29455801.02849  16715705.1494   16715710.3974
  18686231.208   -14505640.264 9 -11278594.615 9  18686231.191    18686235.591
  16003196.255   -37830167.39849 -28847614.94949  16003196.5944   16003201.1764
 96  5  9  2 32 59.9840000  0  7 21 26 23 22  6 28 17
  18751001.311   -15495764.94949 -11764660.14549  18751001.0504   18751007.9154
  17659278.482   -23182717.76249 -17595002.65749  17659279.2204   17659283.5224
  16179175.345   -28269862.47149 -22000532.04249  16179175.5444   16179180.3014
  18562034.216   -16309668.70649 -12419695.87049  18562034.3044   18562040.4504
  16726425.982   -37768541.70049 -29411900.15549  16726426.1614   16726431.2214
  18664872.891   -14617880.692 9 -11366054.659 9  18664872.426    18664876.819
  15998744.136   -37853562.22249 -28865844.67249  15998744.6244   15998749.5514
 96  5  9  2 33 29.9840000  0  7 21 26 23 22  6 28 17
  18732005.478   -15595585.09849 -11842441.99549  18732005.7944   18732012.6224
  17657603.165   -23191522.79749 -17601863.69949  17657603.8624   17657608.0194
  16170415.299   -28315895.35649 -22036401.79349  16170415.5394   16170420.7294
  18561566.696   -16312126.77349 -12421611.26149  18561566.5694   18561572.8404
  16737232.382   -37711753.37249 -29367649.52349  16737232.6154   16737237.8424
  18643549.182   -14729934.624 9 -11453369.394 9  18643549.476    18643554.104
  15994332.005   -37876747.05749 -28883910.76649  15994332.8714   15994337.7444
 96  5  9  2 33 59.9840000  0  7 21 26 23 22  6 28 17
  18713063.565   -15695126.46749 -11920006.61649  18713063.5874   18713070.1664
  17656048.952   -23199684.81649 -17608223.69349  17656050.5634   17656053.8784
  16161747.269   -28361446.02349 -22071895.79049  16161747.6484   16161752.7454
  18561202.864   -16314039.29949 -12423101.55349  18561202.4254   18561208.5574
  16748127.001   -37654500.12949 -29323036.62849  16748127.7594   16748132.6094
  18622265.322   -14841781.008 9 -11540522.396 9  18622265.606    18622269.922
  15989967.311   -37899685.29349 -28901784.70749  15989967.8474   15989972.6144
 96  5  9  2 34 29.9840000  0  7 21 26 23 22  6 28 17
  18694170.431   -15794409.68849 -11997370.09149  18694171.7064   18694177.5944
  17654611.162   -23207246.58449 -17614115.95349  17654611.3764   17654615.6164
  16153163.933   -28406552.93149 -22107044.00749  16153164.3014   16153169.4664
  18560935.007   -16315448.53749 -12424199.68449  18560934.8774   18560939.5544
  16759102.164   -37596828.50949 -29278097.72049  16759102.1514   16759107.2814
  18601014.750   -14953451.425 9 -11627538.273 9  18601015.313    18601020.117
  15985642.305   -37922413.06849 -28919494.65849  15985643.1524   15985647.8074
 96  5  9  2 34 59.9840000  0  7 21 26 23 22  6 28 17
  18675324.501   -15893445.75649 -12074540.97649  18675324.6494   18675331.2034
  17653284.807   -23214212.53449 -17619543.94249  17653285.8654   17653290.1524
  16144662.215   -28451229.15149 -22141856.61949  16144662.5914   16144667.4484
  18560760.750   -16316364.98049 -12424913.81949  18560760.4914   18560765.4994
  16770152.939   -37538754.71949 -29232845.43549  16770153.1244   16770158.4134
  18579798.343   -15064945.465 9 -11714416.729 9  18579798.941    18579803.512
  15981360.989   -37944910.27649 -28937024.94049  15981361.7324   15981366.3724
 96  5  9  2 35 29.9840000  0  7 21 26 23 22  6 28 17
  18656523.997   -15992240.48049 -12151523.77649  18656524.8914   18656531.2244
  17652075.026   -23220569.25049 -17624497.21249  17652076.2764   17652080.6554
  16136240.849   -28495479.94249 -22176337.73349  16136241.9414   16136246.9974
  18560681.708   -16316779.90349 -12425237.15549  18560681.2854   18560686.3244
  16781282.744   -37480263.99749 -29187268.27349  16781283.5674   16781288.9044
  18558619.502   -15176248.836 9 -11801146.621 9  18558618.650    18558622.988
  15977129.180   -37967149.66649 -28954354.33049  15977129.6714   15977134.3934
 96  5  9  2 35 59.9840000  0  7 21 26 23 22  6 28 17
  18637769.248   -16090800.08749 -12228323.36849  18637769.7654   18637776.1024
  17650980.104   -23226324.49449 -17628981.79949  17650980.7084   17650985.1674
  16127899.481   -28539318.12449 -22210497.32949  16127899.6034   16127904.7774
  18560698.180   -16316687.62749 -12425165.27149  18560698.4704   18560704.5974
  16792495.195   -37421344.92949 -29141357.33949  16792495.6554   16792500.5204
  18537475.455   -15287353.754 9 -11887721.856 9  18537475.651    18537480.438
  15972946.577   -37989130.88249 -28971482.54349  15972946.8244   15972951.4554
 96  5  9  2 36 29.9840000  0  7 21 26 23 22  6 28 17
  18619059.329   -16189124.75849 -12304939.91249  18619058.4614   18619065.5044
  17649998.985   -23231480.80849 -17632999.68549  17650000.2064   17650004.1224
  16119635.431   -28582745.67849 -22244336.95649  16119635.7654   16119640.4664
  18560812.791   -16316085.64149 -12424696.20949  18560813.1794   18560819.4154
  16803790.024   -37361988.47249 -29095105.57149  16803790.7304   16803795.6414
  18516371.887   -15398257.039 9 -11974139.991 9  18516371.824    18516376.437
  15968810.327   -38010864.37849 -28988417.72949  15968811.2134   15968815.6744
 96  5  9  2 36 59.9840000  0  7 21 26 23 22  6 28 17
  18600388.980   -16287232.00849 -12381387.04049  18600389.5374   18600395.9354
  17649128.963   -23236050.68049 -17636560.60949  17649129.7304   17649134.4674
  16111451.551   -28625752.61049 -22277848.82349  16111451.9454   16111456.6274
  18561023.432   -16314978.33749 -12423833.39349  18561023.8254   18561029.9114
  16815169.600   -37302188.58949 -29048508.28049  16815170.3054   16815175.0984
  18495305.015   -15508966.248 9 -12060406.898 9  18495304.307    18495309.062
  15964719.986   -38032357.61549 -29005165.70349  15964721.0944   15964725.7694
 96  5  9  2 37 29.9840000  0  7 21 26 23 22  6 28 17
  18581761.784   -16385116.70949 -12457660.75349  18581762.5494   18581769.3454
  17648368.104   -23240047.51049 -17639675.00549  17648369.5624   17648373.5984
  16103350.511   -28668321.99849 -22311019.74949  16103351.1894   16103355.8434
  18561331.886   -16313360.20249 -12422572.52749  18561331.9524   18561338.0584
  16826636.595   -37241930.65349 -29001554.06349  16826637.0964   16826641.9004
  18474273.202   -15619480.171 9 -12146521.627 9  18474274.209    18474279.218
  15960674.910   -38053617.60649 -29021731.92449  15960675.3924   15960679.7844
 96  5  9  2 37 59.9840000  0  7 21 26 23 22  6 28 17
  18563183.879   -16482747.60849 -12533736.70849  18563184.0624   18563190.5594
  17647720.512   -23243454.06849 -17642329.44849  17647721.3124   17647725.1134
  16095340.868   -28710413.41049 -22343818.22349  16095341.2784   16095346.3584
  18561742.371   -16311204.57349 -12420892.84149  18561742.3174   18561748.4954
  16838192.936   -37181197.89949 -28954229.85949  16838194.0584   16838198.6264
  18453284.762   -15729780.272 9 -12232469.754 9  18453284.982    18453289.312
  15956677.431   -38074625.61649 -29038101.79949  15956677.7454   15956682.3054
 96  5  9  2 38 29.9840000  0  7 21 26 23 22  6 28 17
  18544657.771   -16580102.24249 -12609597.40649  18544657.5714   18544664.4464
  17647187.792   -23246253.78049 -17644511.03449  17647188.5084   17647192.4604
  16087426.965   -28752001.67649 -22376224.63749  16087427.0994   16087432.2114
  18562256.012   -16308505.44449 -12418789.64549  18562255.9854   18562262.4664
  16849841.186   -37119986.77449 -28906532.89249  16849842.2694   16849847.2214
  18432337.218   -15839859.032 9 -12318245.400 9  18432337.711    18432342.108
  15952730.801   -38095365.74349 -29054262.93749  15952730.9444   15952735.8454
 96  5  9  2 38 59.9840000  0  7 21 26 23 22  6 28 17
  18526179.659   -16677204.59149 -12685261.50749  18526180.2124   18526186.5954
  17646765.200   -23248473.05049 -17646240.31949  17646766.4834   17646770.1664
  16079602.424   -28793118.41449 -22408263.62849  16079603.1174   16079607.7904
  18562866.511   -16305296.64549 -12416289.30549  18562866.2244   18562872.6034
  16861573.714   -37058332.47449 -28858490.60749  16861574.9804   16861579.7214
  18411429.063   -15949735.807 9 -12403863.670 9  18411428.923    18411433.372
  15948830.245   -38115860.45249 -29070232.83749  15948831.1024   15948835.7084
 96  5  9  2 39 29.9840000  0  7 21 26 23 22  6 28 17
  18507753.978   -16774037.01049 -12760715.28349  18507753.2374   18507759.9744
  17646459.738   -23250082.04149 -17647494.06249  17646460.4294   17646464.2894
  16071868.362   -28833763.03149 -22439934.72949  16071868.7154   16071873.4824
  18563574.715   -16301573.09249 -12413387.86549  18563575.0754   18563580.8914
  16873388.806   -36996249.20549 -28810114.05749  16873389.1084   16873393.8434
  18390561.227   -16059394.958 9 -12489312.348 9  18390561.393    18390566.004
  15944979.926   -38136094.21949 -29085999.40549  15944980.6844   15944985.2474
 96  5  9  2 39 59.9840000  0  8  3 21 26 23 22  6 28 17
  20021875.038    -5332096.53959  -4126761.18659  20021875.3714   20021880.0684
  18489375.491   -16870610.56049 -12835967.33649  18489376.0474   18489382.4664
  17646270.310   -23251073.94749 -17648266.96049  17646271.0614   17646275.4964
  16064219.743   -28873956.52549 -22471254.30449  16064220.0304   16064224.8984
  18564377.926   -16297354.56549 -12410100.72649  18564378.0204   18564383.5484
  16885278.835   -36933760.62549 -28761421.67849  16885280.2504   16885285.0264
  18369734.786   -16168840.249 9 -12574594.382 9  18369734.796    18369739.295
  15941176.633   -38156082.31949 -29101574.54449  15941177.0414   15941181.4324
 96  5  9  2 40 29.9840000  0  8  3 21 26 23 22  6 28 17
  19998952.843    -5452550.95449  -4220621.73949  19998953.0874   19998959.4264
  18471047.653   -16966919.58249 -12911013.27349  18471048.6054   18471055.1354
  17646200.265   -23251441.63949 -17648553.44849  17646201.4274   17646205.4894
  16056655.867   -28913707.84349 -22502229.32949  16056655.7554   16056660.5394
  18565275.214   -16292638.53149 -12406425.91749  18565275.1914   18565281.4744
  16897247.008   -36870870.34249 -28712416.27849  16897248.0314   16897252.8504
  18348952.399   -16278054.639 9 -12659696.490 9  18348951.820    18348956.477
  15937420.531   -38175821.69049 -29116955.87149  15937421.1164   15937425.4344
 96  5  9  2 40 59.9840000  0  8  3 21 26 23 22  6 28 17
  19976050.954    -5572898.80549  -4314399.24349  19976051.8274   19976057.1784
  18452767.271   -17062985.72249 -12985869.95549  18452768.2184   18452774.5134
  17646245.860   -23251202.02549 -17648366.72549  17646246.7534   17646250.8654
  16049169.923   -28953044.95949 -22532881.60349  16049170.0944   16049174.7094
  18566265.645   -16287435.28149 -12402371.46049  18566265.2124   18566270.9454
  16909286.868   -36807601.09649 -28663115.59849  16909287.5374   16909292.7574
  18328212.468   -16387043.488 9 -12744622.852 9  18328212.178    18328216.156
  15933709.527   -38195323.15949 -29132151.81949  15933709.9624   15933714.4814
 96  5  9  2 41 29.9840000  0  8  3 21 26 23 22  6 28 17
  19953165.368    -5693163.56849  -4408112.00649  19953164.9674   19953171.3594
  18434531.639   -17158812.27249 -13060539.93649  18434532.7844   18434539.6354
  17646406.778   -23250360.35449 -17647710.85749  17646407.0744   17646411.1354
  16041760.955   -28991976.43349 -22563217.79049  16041761.4244   16041766.5154
  18567351.136   -16281730.87749 -12397926.49149  18567351.4624   18567356.8034
  16921399.164   -36743949.04149 -28613516.62849  16921400.0944   16921405.2484
  18307514.707   -16495809.118 9 -12829375.260 9  18307514.723    18307519.028
  15930043.743   -38214586.31949 -29147162.07349  15930044.2204   15930049.0684
 96  5  9  2 41 59.9840000  0  8  3 21 26 23 22  6 28 17
  19930295.313    -5813346.18549  -4501760.75049  19930295.6694   19930302.1544
  18416341.494   -17254403.92749 -13135026.88949  18416342.4434   18416348.8334
  17646675.640   -23248941.20349 -17646605.01049  17646676.8704   17646680.8554
  16034426.793   -29030520.71149 -22593252.26249  16034426.8624   16034431.8494
  18568532.497   -16275525.83449 -12393091.41149  18568531.3454   18568536.9194
  16933587.156   -36679900.79549 -28563608.92949  16933587.9954   16933593.2104
  18286858.816   -16604355.981 9 -12913957.202 9  18286859.003    18286863.165
  15926421.114   -38233622.61049 -29161995.53949  15926421.5894   15926426.2514
 96  5  9  2 42 29.9840000  0  8  3 21 26 23 22  6 28 17
  19907442.230    -5933435.57649  -4595336.86449  19907443.1634   19907448.6464
  18398198.703   -17349744.52149 -13209318.21649  18398199.2324   18398205.9034
  17647060.544   -23246921.71849 -17645031.36349  17647061.4274   17647065.4644
  16027166.713   -29068669.69449 -22622978.71749  16027167.3364   16027172.2304
  18569811.475   -16268804.75749 -12387854.22849  18569810.8014   18569816.6404
  16945855.743   -36615437.28049 -28513377.63549  16945854.9834   16945860.1384
  18266246.726   -16712671.994 9 -12998359.259 9  18266247.059    18266251.308
  15922847.212   -38252404.32749 -29176630.64249  15922847.7414   15922852.0374
 96  5  9  2 42 59.9840000  0  8  3 21 26 23 22  6 28 17
  19884609.187    -6053427.05349  -4688836.69649  19884609.9084   19884614.1944
  18380105.003   -17444826.76449 -13283408.21949  18380106.0754   18380112.4024
  17647563.055   -23244280.26749 -17642973.07149  17647563.8934   17647567.7494
  16019988.364   -29106393.28849 -22652373.69849  16019988.4804   16019993.4634
  18571188.200   -16261563.33349 -12382211.58649  18571188.6174   18571195.0084
  16958205.259   -36550529.75949 -28462800.36549  16958206.2974   16958211.8184
  18245681.109   -16820747.779 9 -13082574.107 9  18245680.858    18245685.025
  15919325.664   -38270908.83049 -29191049.73149  15919326.4674   15919330.7514
 96  5  9  2 43 29.9840000  0  8  3 21 26 23 22  6 28 17
  19861790.538    -6173341.55649  -4782276.52749  19861790.9714   19861796.2394
  18362055.948   -17539672.28349 -13357313.77049  18362057.0974   18362063.8104
  17648179.045   -23241042.87249 -17640450.40049  17648179.8364   17648184.1134
  16012890.197   -29143696.50449 -22681441.11249  16012890.0844   16012895.0354
  18572659.316   -16253840.28749 -12376193.64649  18572657.9464   18572664.5994
  16970640.077   -36485191.21749 -28411887.24249  16970639.9494   16970645.0474
  18225155.553   -16928610.198 9 -13166622.708 9  18225155.161    18225159.406
  15915851.463   -38289166.59749 -29205276.55349  15915851.9284   15915856.3644
 96  5  9  2 43 59.9840000  0  8  3 21 26 23 22  6 28 17
  19838995.272    -6293130.20749  -4875618.30649  19838996.0374   19839000.7324
  18344061.047   -17634247.13049 -13431008.40149  18344060.8454   18344067.0334
  17648917.591   -23237161.82349 -17637426.18549  17648918.8044   17648922.6424
  16005880.626   -29180530.15949 -22710142.63949  16005880.8474   16005885.7484
  18574224.410   -16245613.01149 -12369782.80849  18574223.6294   18574230.9724
  16983160.582   -36419393.84749 -28360616.58149  16983160.9594   16983165.9894
  18204677.400   -17036220.300 9 -13250474.685 9  18204677.711    18204681.969
  15912431.393   -38307140.77749 -29219282.40249  15912431.7044   15912436.1404
 96  5  9  2 44 29.9840000  0  8  3 21 26 23 22  6 28 17
  19816222.426    -6412805.11049  -4968871.47449  19816222.0874   19816228.3104
  18326111.075   -17728565.81149 -13504503.41749  18326111.8654   18326118.1724
  17649776.846   -23232648.76049 -17633909.49549  17649777.5434   17649781.0254
  15998963.683   -29216878.97249 -22738466.36949  15998963.8874   15998968.8534
  18575884.669   -16236889.40749 -12362985.22049  18575883.7934   18575890.2604
  16995764.071   -36353160.15249 -28309005.92049  16995764.9854   16995770.2144
  18184246.434   -17143584.552 9 -13334135.098 9  18184246.849    18184250.961
  15909063.941   -38324835.69949 -29233070.64449  15909064.1324   15909068.7494
 96  5  9  2 44 59.9840000  0  8  3 21 26 23 22  6 28 17
  19793469.222    -6532373.02149  -5062041.24449  19793470.0594   19793475.4474
  18308211.383   -17822632.63749 -13577802.18249  18308211.5874   18308218.1054
  17650748.254   -23227539.50649 -17629928.24749  17650749.5094   17650753.7194
  15992140.024   -29252736.84949 -22766407.54549  15992140.2344   15992145.1534
  18577637.652   -16227675.30049 -12355805.42849  18577637.9184   18577643.8704
  17008447.607   -36286510.15849 -28257070.87449  17008448.2254   17008453.3144
  18163862.273   -17250707.675 9 -13417607.626 9  18163862.158    18163866.190
  15905743.618   -38342283.35249 -29246666.20949  15905743.9704   15905748.8434
 96  5  9  2 45 29.9840000  0  8  3 21 26 23 22  6 28 17
  19770738.866    -6651822.52249  -5155118.78149  19770740.0864   19770743.3054
  18290362.084   -17916429.90349 -13650890.89449  18290362.6574   18290368.8564
  17651835.375   -23221830.97549 -17625480.02149  17651836.0374   17651839.9074
  15985405.734   -29288126.61349 -22793983.95949  15985405.8434   15985410.6204
  18579487.329   -16217956.22549 -12348232.15149  18579486.9094   18579493.1904
  17021205.945   -36219464.32049 -28204827.37949  17021206.6134   17021211.4154
  18143524.637   -17357581.916 9 -13500886.212 9  18143524.414    18143528.638
  15902469.674   -38359489.12749 -29260073.30149  15902469.9754   15902474.6704
 96  5  9  2 45 59.9840000  0  8  3 21 26 23 22  6 28 17
  19748027.409    -6771171.04349  -5248117.62349  19748027.6384   19748032.6454
  18272562.561   -18009966.41249 -13723776.42049  18272563.1584   18272569.8334
  17653034.332   -23215529.56349 -17620569.81649  17653035.1854   17653038.9824
  15978754.109   -29323082.20449 -22821222.05749  15978754.0124   15978759.0574
  18581432.279   -16207737.82249 -12340269.80049  18581431.1994   18581438.0524
  17034031.191   -36152068.73549 -28152311.35749  17034031.1694   17034036.7834
  18123231.248   -17464224.119 9 -13583983.999 9  18123231.132    18123235.345
  15899238.117   -38376469.89849 -29273305.06249  15899238.7104   15899243.3914
 96  5  9  2 46 29.9840000  0  8  3 21 26 23 22  6 28 17
  19725340.286    -6890389.42249  -5341015.06049  19725341.7964   19725345.3804
  18254822.284   -18103193.72649 -13796421.01549  18254822.5504   18254829.0784
  17654351.698   -23208609.51549 -17615177.54949  17654351.7704   17654355.8164
  15972190.401   -29357571.50949 -22848096.81949  15972190.5814   15972195.6594
  18583476.487   -16196995.83649 -12331899.45549  18583475.5204   18583482.0914
  17046928.107   -36084291.98749 -28099498.32349  17046928.6154   17046934.2034
  18102988.509   -17570599.151 9 -13666873.609 9  18102988.559    18102993.045
  15896055.972   -38393192.29549 -29286335.49549  15896056.1974   15896061.0484
 96  5  9  2 46 59.9840000  0  8  3 21 26 23 22  6 28 17
  19702676.073    -7009493.23749  -5433823.22849  19702677.2314   19702682.3574
  18237137.244   -18196131.78849 -13868840.21449  18237137.4944   18237143.0474
  17655782.188   -23201089.39349 -17609317.69649  17655782.6654   17655786.6494
  15965708.859   -29391634.03349 -22874639.02149  15965708.9724   15965713.6364
  18585613.466   -16185765.72749 -12323148.75549  18585612.7604   18585618.5594
  17059896.964   -36016141.83249 -28046394.32949  17059897.2454   17059903.1714
  18082793.241   -17676727.054 9 -13749570.652 9  18082792.989    18082797.393
  15892918.976   -38409678.46149 -29299181.85049  15892919.3124   15892924.0904
 96  5  9  2 47 29.9840000  0  8  3 21 26 23 22  6 28 17
  19680036.132    -7128463.71349  -5526527.47849  19680038.0994   19680041.5024
  18219508.157   -18288774.54749 -13941029.31049  18219507.3064   18219514.3204
  17657329.243   -23192956.38549 -17602980.27949  17657330.9894   17657334.3954
  15959308.976   -29425267.63749 -22900847.00349  15959308.7414   15959313.4214
  18587842.340   -16174043.87749 -12314014.88049  18587843.5724   18587849.3434
  17072941.967   -35947589.47249 -27992976.91649  17072942.5894   17072947.6274
  18062647.626   -17782594.555 9 -13832064.793 9  18062646.978    18062651.557
  15889832.627   -38425896.60849 -29311819.35949  15889832.9814   15889837.7234
 96  5  9  2 47 59.9840000  0  8  3 21 26 23 22  6 28 17
  19657421.851    -7247304.45149  -5619130.64049  19657422.1124   19657427.8114
  18201932.142   -18381134.35349 -14012997.92249  18201932.1064   18201938.3844
  17658991.089   -23184225.90349 -17596177.29049  17658991.7914   17658995.1944
  15952993.257   -29458454.27249 -22926706.69949  15952993.2414   15952998.0924
  18590164.772   -16161849.12449 -12304512.51349  18590163.8254   18590169.8144
  17086070.096   -35878600.78949 -27939219.51949  17086070.8994   17086076.0454
  18042551.905   -17888198.288 9 -13914353.394 9  18042551.414    18042555.889
  15886797.522   -38441847.12649 -29324248.32349  15886797.8584   15886802.3504
 96  5  9  2 48 29.9840000  0  8  3 21 26 23 22  6 28 17
  19634827.322    -7366041.88549  -5711653.28049  19634828.4484   19634831.2294
  18184400.958   -18473264.15649 -14084787.32049  18184400.2134   18184406.6284
  17660753.348   -23174962.61949 -17588959.13349  17660754.4344   17660758.0744
  15946755.481   -29491234.91649 -22952250.03449  15946755.3904   15946760.0864
  18592565.103   -16149231.47549 -12294680.60649  18592565.0654   18592571.6134
  17099281.056   -35809177.61349 -27885123.56049  17099281.0884   17099286.4624
  18022500.531   -17993568.361 9 -13996459.935 9  18022500.290    18022504.677
  15883804.030   -38457577.00849 -29336505.36649  15883804.6434   15883809.1814
 96  5  9  2 48 59.9840000  0  8  3 21 26 23 22  6 28 17
  19612257.335    -7484645.59349  -5804071.71449  19612257.8544   19612263.2634
  18166914.800   -18565149.23749 -14156386.02149  18166915.1234   18166921.5344
  17662622.338   -23165144.84449 -17581308.89949  17662622.7534   17662626.8114
  15940595.269   -29523607.69249 -22977475.55249  15940595.0384   15940599.9644
  18595052.629   -16136160.92049 -12284495.79649  18595051.5464   18595058.5854
  17112578.855   -35739296.65749 -27830670.88549  17112579.4094   17112584.8744
  18002497.551   -18098681.335 9 -14078366.134 9  18002497.761    18002502.234
  15880855.455   -38473072.13449 -29348579.48649  15880855.7434   15880860.4124
 96  5  9  2 49 29.9840000  0  8  3 21 26 23 22  6 28 17
  19589713.870    -7603112.35449  -5896383.44349  19589714.9654   19589717.7184
  18149478.654   -18656780.94249 -14227787.28249  18149478.1514   18149484.4534
  17664595.952   -23154770.83149 -17573225.23949  17664596.9454   17664600.9804
  15934510.656   -29555580.79549 -23002389.64649  15934510.5894   15934515.4564
  18597625.780   -16122634.45449 -12273955.72649  18597626.3764   18597632.1384
  17125962.641   -35668965.33249 -27775867.27849  17125962.8234   17125968.1534
  17982545.609   -18203530.964 9 -14160067.131 9  17982545.448    17982549.785
  15877949.462   -38488343.61149 -29360479.33849  15877949.7134   15877954.3164
 96  5  9  2 49 59.9840000  0  8  3 21 26 23 22  6 28 17
  19567195.865    -7721441.49549  -5988587.91949  19567197.4784   19567202.3584
  18132090.094   -18748156.36049 -14298988.84349  18132090.0884   18132096.1534
  17666680.056   -23143819.91849 -17564692.04849  17666680.7334   17666685.0204
  15928503.992   -29587145.58349 -23026985.56749  15928504.3284   15928509.0534
  18600288.722   -16108642.06949 -12263052.60149  18600288.8614   18600295.0464
  17139428.081   -35598202.66649 -27720727.56049  17139428.3424   17139433.6744
  17962645.291   -18308107.380 9 -14241555.229 9  17962645.301    17962649.768
  15875085.199   -38503395.35149 -29372207.95749  15875085.6724   15875089.9244
 96  5  9  2 50 29.9840000  0  8  3 21 26 23 22  6 28 17
  19544703.248    -7839646.46249  -6080695.64649  19544703.5904   19544709.0344
  18114749.158   -18839282.64149 -14369996.27149  18114749.5864   18114755.5694
  17668875.288   -23132285.75249 -17555704.36549  17668875.6284   17668879.6034
  15922572.379   -29618316.03349 -23051274.20949  15922572.8144   15922577.5554
  18603040.915   -16094185.28849 -12251787.61349  18603039.5474   18603046.0234
  17152965.499   -35527063.83949 -27665294.73449  17152965.8994   17152971.1644
  17942794.817   -18412423.635 9 -14322840.601 9  17942794.560    17942798.908
  15872262.435   -38518229.16049 -29383766.76649  15872262.6134   15872267.0104
 96  5  9  2 50 59.9840000  0  8  3 21 26 23 22  6 28 17
  19522234.522    -7957718.08049  -6172699.42949  19522235.4044   19522240.4344
  18097459.229   -18930143.34449 -14440796.75949  18097459.0574   18097465.0064
  17671187.561   -23120132.42449 -17546234.22549  17671188.1204   17671192.0564
  15916721.991   -29649062.25349 -23075232.28649  15916721.7514   15916726.5704
  18605884.024   -16079242.79849 -12240144.14649  18605883.4664   18605889.1204
  17166571.957   -35455562.89849 -27609579.73949  17166571.9094   17166577.4334
  17922996.506   -18516465.668 9 -14403912.292 9  17922996.012    17923000.655
  15869486.465   -38532816.55449 -29395133.56249  15869486.7514   15869491.1554
 96  5  9  2 51 29.9840000  0  8  3 21 26 23 22  6 28 17
  19499793.004    -8075651.62249  -6264595.64449  19499793.9984   19499798.6924
  18080217.503   -19020748.96249 -14511398.47749  18080217.5504   18080223.3934
  17673620.446   -23107348.83949 -17536272.97049  17673621.0294   17673624.6574
  15910958.304   -29679350.80349 -23098833.73349  15910958.1224   15910962.9064
  18608818.448   -16063821.60249 -12228127.66149  18608817.8364   18608824.7234
  17180244.636   -35383710.04249 -27553590.51449  17180245.1144   17180250.6794
  17903250.995   -18620227.240 9 -14484765.434 9  17903250.768    17903255.386
  15866762.281   -38547132.79149 -29406289.06749  15866762.4964   15866766.9544
 96  5  9  2 51 59.9840000  0  8  3 21 26 23 22  6 28 17
  19477378.692    -8193438.83149  -6356377.83549  19477378.0984   19477383.5184
  18063025.118   -19111095.79349 -14581798.54949  18063025.1644   18063030.4624
  17676176.584   -23093915.44649 -17525805.37649  17676177.1194   17676181.1544
  15905287.221   -29709153.16349 -23122056.33249  15905286.8804   15905291.6314
  18611844.840   -16047916.10949 -12215733.80449  18611844.7704   18611851.5504
  17193983.749   -35311512.84349 -27497332.97149  17193983.9244   17193989.3884
  17883560.404   -18723701.723 9 -14565394.862 9  17883560.187    17883564.699
  15864094.580   -38561151.16649 -29417212.46949  15864095.2374   15864099.2724
 96  5  9  2 52 29.9840000  0  8  3 21 26 23 22  6 28 17
  19454994.784    -8311062.23549  -6448032.37849  19454995.9114   19455000.8444
  18045885.454   -19201161.52049 -14651979.57449  18045886.2824   18045891.8664
  17678854.379   -23079839.16949 -17514836.83049  17678855.9634   17678859.3944
  15899709.418   -29738463.34549 -23144895.42149  15899709.3674   15899714.0844
  18614963.912   -16031532.46549 -12202967.36049  18614962.9434   18614969.3794
  17207790.886   -35238951.75349 -27440791.87249  17207791.8864   17207797.4644
  17863926.062   -18826880.896 9 -14645794.183 9  17863925.702    17863930.295
  15861485.593   -38574862.88949 -29427896.92649  15861485.9184   15861490.2314
 96  5  9  2 52 59.9840000  0  8  3 21 26 23 22  6 28 17
  19432635.385    -8428561.49649  -6539590.17749  19432636.3944   19432641.4044
  18028793.059   -19290986.87049 -14721973.29349  18028792.6444   18028798.4744
  17681644.499   -23065181.10649 -17503414.94849  17681645.4094   17681649.0844
  15894216.089   -29767329.04349 -23167388.15249  15894216.4474   15894220.9874
  18618161.917   -16014718.87649 -12189865.89049  18618162.2804   18618168.3284
  17221665.645   -35166042.77649 -27383979.69649  17221666.1044   17221671.3264
  17844340.989   -18929800.981 9 -14725991.609 9  17844340.855    17844345.021
  15858925.448   -38588316.34049 -29438380.12649  15858925.5394   15858930.1664
 96  5  9  2 53 29.9840000  0  8  3 21 26 23 22  6 28 17
  19410303.254    -8545922.50749  -6631040.29249  19410302.7814   19410308.8264
  18011751.941   -19380536.20249 -14791751.93049  18011751.7874   18011757.6754
  17684544.877   -23049939.13949 -17491538.07949  17684545.8424   17684549.7294
  15888807.415   -29795752.35649 -23189536.17649  15888807.7184   15888811.9614
  18621446.325   -15997458.71949 -12176416.45049  18621446.9714   18621452.6004
  17235610.884   -35092760.95549 -27326876.98749  17235611.1294   17235616.3314
  17824810.011   -19032437.987 9 -14805968.457 9  17824809.472    17824813.801
  15856416.154   -38601503.01649 -29448655.44749  15856416.1134   15856420.3644
 96  5  9  2 53 59.9840000  0  8  3 21 26 23 22  6 28 17
  19387998.571    -8663129.28749  -6722370.20149  19388000.0264   19388004.7914
  17994771.035   -19469768.21849 -14861283.31349  17994771.4804   17994777.0964
  17687554.588   -23034122.14049 -17479213.13549  17687555.4704   17687559.5834
  15883481.582   -29823743.59049 -23211347.51149  15883481.1014   15883485.7864
  18624822.429   -15979719.98249 -12162594.08749  18624822.1654   18624828.4554
  17249631.518   -35019081.48549 -27269464.42049  17249631.9024   17249637.2204
  17805336.120   -19134773.993 9 -14885710.759 9  17805335.495    17805340.018
  15853953.719   -38614441.53149 -29458737.40049  15853954.1434   15853958.6684
 96  5  9  2 54 29.9840000  0  8  3 21 26 23 22  6 28 17
  19365722.647    -8780197.33249  -6813592.02849  19365721.8514   19365728.6364
  17977846.689   -19558709.45149 -14930588.10749  17977846.7634   17977852.4724
  17690665.800   -23017776.89349 -17466476.56949  17690666.0344   17690670.0624
  15878226.991   -29851353.66049 -23232861.82849  15878226.9354   15878231.5774
  18628284.829   -15961524.47849 -12148415.80349  18628285.1944   18628291.6194
  17263725.090   -34945016.05849 -27211751.11349  17263725.6664   17263731.2924
  17785914.580   -19236832.769 9 -14965237.036 9  17785914.464    17785918.800
  15851532.054   -38627169.60949 -29468655.37649  15851532.0704   15851536.4154
 96  5  9  2 54 59.9840000  0  8  3 21 26 23 22  6 28 17
  19343473.939    -8897108.97649  -6904691.98049  19343474.9944   19343480.2134
  17960977.018   -19647362.13349 -14999668.06449  17960976.4994   17960982.1164
  17693877.627   -23000893.36349 -17453320.56149  17693878.5554   17693882.9724
  15873046.896   -29878574.06249 -23254072.51149  15873047.2004   15873051.7484
  18631840.455   -15942848.96949 -12133863.48749  18631838.9074   18631844.8224
  17277893.793   -34870561.73949 -27153734.77849  17277894.1104   17277899.3684
  17766549.671   -19338597.830 9 -15044534.453 9  17766549.136    17766553.404
  15849153.093   -38639668.25549 -29478394.57149  15849153.7344   15849158.0444
 96  5  9  2 55 29.9840000  0  8  3 21 26 23 22  6 28 17
  19321258.987    -9013849.52149  -6995658.62849  19321259.2524   19321266.1744
  17944162.976   -19735717.48449 -15068516.33049  17944162.9344   17944168.6754
  17697197.045   -22983451.36249 -17439729.38049  17697197.5704   17697201.4964
  15867942.149   -29905401.47949 -23274976.97749  15867941.9764   15867946.6694
  18635484.639   -15923691.70549 -12118935.77049  18635483.7214   18635490.5654
  17292134.865   -34795727.38749 -27095422.31349  17292134.7054   17292139.8984
  17747241.487   -19440063.325 9 -15123598.438 9  17747240.709    17747245.150
  15846820.575   -38651927.82149 -29487947.47449  15846820.6084   15846825.3104
 96  5  9  2 55 59.9840000  0  8  3 21 26 23 22  6 28 17
  19299079.834    -9130403.77549  -7086480.11649  19299081.0054   19299084.1674
  17927404.204   -19823785.82349 -15137140.95349  17927404.0294   17927409.5794
  17700627.067   -22965429.12949 -17425686.06749  17700626.9154   17700631.3594
  15862914.462   -29931821.44949 -23295563.94349  15862914.5454   15862919.0734
  18639219.150   -15904064.09149 -12103641.54549  18639218.5164   18639225.6274
  17306446.104   -34720517.67449 -27036817.35649  17306446.9214   17306451.9944
  17727989.970   -19541228.326 9 -15202428.276 9  17727989.715    17727994.082
  15844535.222   -38663936.84649 -29497305.15049  15844535.4374   15844539.8494
 96  5  9  2 56 29.9840000  0  8  3 21 26 23 22  6 28 17
  19276931.314    -9246796.12749  -7177175.44049  19276931.1484   19276936.3494
  17910691.619   -19911608.92049 -15205574.48549  17910691.7814   17910697.7574
  17704165.052   -22946831.17049 -17411194.14849  17704166.3824   17704170.2554
  15857963.131   -29957840.09649 -23315838.19449  15857963.0784   15857967.7854
  18643035.849   -15884005.52349 -12088011.49749  18643035.3754   18643042.4344
  17320824.151   -34644960.89649 -26977941.96849  17320824.8214   17320829.8624
  17708792.457   -19642111.510 9 -15281038.521 9  17708792.445    17708796.569
  15842300.182   -38675682.43249 -29506457.55349  15842300.3914   15842304.6164
 96  5  9  2 56 59.9840000  0  8  3 21 26 23 22  6 28 17
  19254808.567    -9363048.61449  -7267761.78549  19254810.0564   19254814.2374
  17894024.791   -19999196.45249 -15273824.45049  17894024.4954   17894030.2704
  17707816.039   -22927650.25449 -17396247.96749  17707816.1914   17707820.3004
  15853088.979   -29983455.35949 -23335798.11649  15853088.7374   15853093.3714
  18646931.438   -15863534.47549 -12072060.03849  18646931.1904   18646937.4594
  17335264.139   -34569073.91149 -26918809.27249  17335264.9184   17335270.3354
  17689647.910   -19742717.302 9 -15359432.614 9  17689647.578    17689651.837
  15840113.726   -38687172.44249 -29515410.79849  15840113.6564   15840118.4094
 96  5  9  2 57 29.9840000  0  8  3 21 26 23 22  6 28 17
  19232717.964    -9479138.00849  -7358221.05249  19232717.7794   19232722.5424
  17877409.339   -20086509.04149 -15341860.17149  17877409.7604   17877415.0964
  17711585.100   -22907838.76949 -17380810.44449  17711586.1794   17711590.2074
  15848297.873   -30008630.21549 -23355414.87049  15848298.0334   15848302.9154
  18650911.465   -15842625.37749 -12055767.24849  18650911.0674   18650917.0454
  17349773.381   -34492826.99449 -26859396.09549  17349774.7374   17349780.0364
  17670561.450   -19843017.162 9 -15437588.327 9  17670561.178    17670565.360
  15837978.759   -38698391.64049 -29524153.02749  15837978.9954   15837983.3984
 96  5  9  2 57 59.9840000  0  8  3 21 26 23 22  6 28 17
  19210657.713    -9595064.05849  -7448553.02249  19210657.7364   19210663.8624
  17860844.429   -20173559.03049 -15409691.27249  17860844.3014   17860850.2764
  17715474.099   -22887407.26449 -17364889.78749  17715473.9844   17715478.2824
  15843592.379   -30033359.88149 -23374684.72149  15843592.3354   15843597.2174
  18654972.356   -15821282.77249 -12039136.67049  18654971.8184   18654977.9424
  17364350.388   -34416224.52149 -26799705.87849  17364351.9604   17364356.6864
  17651533.377   -19943012.149 9 -15515506.479 9  17651532.939    17651536.787
  15835892.268   -38709355.54249 -29532696.32149  15835892.5814   15835896.9684
 96  5  9  2 58 29.9840000  0  8  3 21 26 23 22  6 28 17
  19188629.767    -9710825.13949  -7538756.45349  19188629.4044   19188634.0824
  17844330.119   -20260343.33649 -15477315.34649  17844330.0474   17844335.6474
  17719478.035   -22866364.63449 -17348492.92449  17719478.6854   17719482.6264
  15838971.340   -30057643.21449 -23393606.77749  15838971.4824   15838975.8444
  18659118.079   -15799493.03949 -12022157.68549  18659118.0184   18659124.2384
  17378996.591   -34339260.24449 -26739733.75249  17378997.5354   17379002.6064
  17632564.126   -20042691.906 9 -15593178.996 9  17632564.236    17632568.566
  15833854.716   -38720063.45649 -29541040.14649  15833854.8314   15833859.4254
 96  5  9  2 58 59.9840000  0  8  3 21 26 23 22  6 28 17
  19166635.026    -9826405.96549  -7628819.42549  19166634.6014   19166640.9584
  17827869.145   -20346844.81949 -15544719.05249  17827869.1274   17827874.8464
  17723598.715   -22844709.06749 -17331618.44649  17723599.5474   17723603.3344
  15834433.711   -30081488.56449 -23412187.54949  15834433.7704   15834438.5644
  18663349.867   -15777256.04049 -12004830.16049  18663349.9954   18663355.5124
  17393712.104   -34261931.10349 -26679477.30449  17393712.5924   17393718.4234
  17613657.445   -20142048.049 9 -15670599.348 9  17613657.412    17613661.753
  15831861.656   -38730535.88149 -29549200.46949  15831862.0794   15831866.6074
 96  5  9  2 59 29.9840000  0  8  3 21 26 23 22  6 28 17
  19144676.864    -9941795.15249  -7718733.04649  19144677.5354   19144681.9964
  17811462.130   -20433064.37049 -15611903.06049  17811461.7054   17811467.6484
  17727831.437   -22822464.70749 -17314285.17649  17727832.6934   17727836.2244
  15829977.758   -30104905.28349 -23430434.32649  15829977.6154   15829982.2144
  18667665.208   -15754575.87749 -11987157.32549  18667664.7624   18667671.7094
  17408496.141   -34184241.87549 -26618940.25949  17408495.9154   17408502.0744
  17594811.876   -20241084.361 9 -15747770.484 9  17594811.625    17594815.512
  15829912.536   -38740778.18349 -29557181.48149  15829912.9074   15829917.6034
 96  5  9  2 59 59.9840000  0  8  3 21 26 23 22  6 28 17
  19122753.300   -10057006.70749  -7808508.25749  19122753.0914   19122758.4804
  17795102.698   -20519031.90149 -15678890.68049  17795102.8764   17795108.4974
  17732167.576   -22799682.01949 -17296532.41849  17732167.7584   17732171.5274
  15825594.091   -30127941.83649 -23448384.86749  15825593.8304   15825598.5944
  18672060.126   -15731484.51049 -11969164.06749  18672059.9604   18672066.5124
  17423344.611   -34106213.95749 -26558139.29949  17423344.4384   17423349.9374
  17576023.346   -20339818.803 9 -15824706.399 9  17576023.065    17576027.274
  15828005.896   -38750798.84349 -29564989.78149  15828005.9604   15828010.8794
 96  5  9  3  0 29.9840000  0  8  3 21 26 23 22  6 28 17
  19100866.437   -10172022.79749  -7898131.14549  19100866.0754   19100871.7784
  17778797.758   -20604713.04149 -15745655.14849  17778798.2024   17778803.8894
  17736606.314   -22776351.85949 -17278353.06749  17736607.4504   17736611.5724
  15821284.672   -30150586.41649 -23466029.97849  15821284.8604   15821289.3674
  18676535.427   -15707964.23649 -11950836.60349  18676535.1474   18676541.4464
  17438262.798   -34027816.92449 -26497050.71949  17438262.9414   17438268.2934
  17557296.902   -20438224.499 9 -15901386.145 9  17557297.036    17557301.094
  15826147.798   -38760563.10949 -29572598.29149  15826148.0254   15826152.4474
 96  5  9  3  0 59.9840000  0  8  3 21 26 23 22  6 28 17
  19079015.234   -10286849.19749  -7987606.23149  19079015.3814   19079021.2114
  17762546.975   -20690113.59849 -15812200.97849  17762546.8034   17762553.1484
  17741146.457   -22752496.19749 -17259764.22949  17741147.1304   17741151.3194
  15817045.956   -30172859.52949 -23483385.63349  15817046.2314   15817050.9274
  18681088.778   -15684037.18249 -11932192.16649  18681088.7414   18681094.3814
  17453249.892   -33949061.20649 -26435682.63549  17453250.3104   17453254.7234
  17538632.237   -20536312.788 9 -15977818.566 9  17538631.412    17538635.647
  15824334.664   -38770091.36949 -29580022.90249  15824334.6574   15824339.4514
 96  5  9  3  1 29.9840000  0  8  3 21 26 23 22  6 28 17
  19057198.469   -10401495.90349  -8076941.29949  19057199.4924   19057204.3504
  17746347.125   -20775242.71249 -15878535.29149  17746347.0584   17746353.5524
  17745784.469   -22728120.34849 -17240770.04949  17745785.3314   17745789.4644
  15812880.441   -30194752.36549 -23500444.96649  15812880.2174   15812884.8014
  18685722.129   -15659697.40349 -11913226.11449  18685719.9094   18685726.5724
  17468303.853   -33869946.27049 -26374034.63949  17468305.1024   17468310.3634
  17520026.222   -20634083.582 9 -16054003.582 9  17520026.223    17520030.486
  15822567.763   -38779375.64649 -29587257.39749  15822568.0804   15822572.8744
 96  5  9  3  1 59.9840000  0  8  3 21 26 23 22  6 28 17
  19035417.346   -10515958.09549  -8166132.56649  19035416.8524   19035421.6944
  17730202.462   -20860083.36549 -15944644.83849  17730202.8044   17730208.8254
  17750527.076   -22703198.68849 -17221350.56449  17750527.6524   17750531.3954
  15808791.415   -30216239.42949 -23517188.11549  15808791.3824   15808796.0214
  18690433.936   -15634934.52149 -11893930.37749  18690432.8644   18690438.6264
  17483429.366   -33790465.20549 -26312101.35249  17483429.9074   17483435.0214
  17501484.636   -20731520.222 9 -16129928.221 9  17501484.558    17501488.903
  15820852.267   -38788392.08749 -29594283.19049  15820852.3494   15820857.0364
 96  5  9  3  2 29.9840000  0  8  3 21 26 23 22  6 28 17
  19013666.717   -10630260.26249  -8255199.17749  19013667.4004   19013671.2094
  17714112.304   -20944638.48549 -16010531.89049  17714112.7704   17714117.8094
  17755374.933   -22677726.64749 -17201502.20749  17755375.3084   17755378.7824
  15804781.281   -30237313.20549 -23533609.21949  15804781.1464   15804785.7424
  18695223.974   -15609756.80849 -11874311.41149  18695223.9224   18695229.2844
  17498621.735   -33710632.42149 -26249893.98749  17498621.2934   17498626.8814
  17483005.095   -20828634.243 9 -16205601.467 9  17483004.541    17483008.718
  15819183.377   -38797162.18649 -29601117.03049  15819183.5854   15819188.3694
 96  5  9  3  2 59.9840000  0  8  3 21 26 23 22  6 28 17
  18991948.259   -10744387.58349  -8344129.53049  18991948.8834   18991954.6724
  17698077.987   -21028897.16249 -16076187.94749  17698078.5984   17698083.9804
  17760332.673   -22651668.97349 -17181197.51449  17760333.3914   17760337.2694
  15800853.089   -30257957.01449 -23549695.28149  15800852.6414   15800857.3084
  18700096.934   -15584148.31049 -11854356.76049  18700097.1114   18700103.5194
  17513879.734   -33630442.28249 -26187408.16549  17513880.8764   17513886.8054
  17464589.322   -20925407.938 9 -16281009.525 9  17464589.059    17464593.064
  15817564.030   -38805670.49549 -29607746.86949  15817564.4424   15817569.1394
 96  5  9  3  3 29.9840000  0  8  3 21 26 23 22  6 28 17
  18970260.090   -10858360.15249  -8432939.29249  18970260.7614   18970265.7724
  17682097.618   -21112877.55449 -16141627.15849  17682097.4884   17682102.7274
  17765400.794   -22625038.63949 -17160446.58949  17765401.2294   17765404.9534
  15797005.696   -30278173.22349 -23565448.15549  15797005.5834   15797010.0774
  18705049.310   -15558124.05149 -11834078.14649  18705049.7594   18705055.4984
  17529204.181   -33549915.43149 -26124659.95749  17529205.0504   17529209.5624
  17446236.276   -21021854.587 9 -16356162.742 9  17446235.814    17446239.981
  15815996.373   -38813910.64749 -29614167.76349  15815996.2734   15816000.9944
 96  5  9  3  3 59.9840000  0  8  3 21 26 23 22  6 28 17
  18948605.049   -10972161.71949  -8521615.82749  18948605.2934   18948610.0304
  17666171.010   -21196571.32949 -16206843.02949  17666171.2604   17666177.1044
  17770575.147   -22597843.97349 -17139255.92449  17770575.9394   17770579.9414
  15793237.519   -30297976.58049 -23580879.32449  15793237.3094   15793241.8514
  18710081.261   -15531688.32149 -11813478.90149  18710079.8844   18710085.8284
  17544591.787   -33469056.13849 -26061652.70349  17544591.7194   17544596.5184
  17427946.813   -21117968.008 9 -16431056.300 9  17427946.051    17427950.107
  15814481.290   -38821871.89949 -29620371.33049  15814481.3854   15814485.8504
 96  5  9  3  4 29.9840000  0  8  3 21 26 23 22  6 28 17
  18926983.560   -11085779.92149  -8610149.47949  18926984.2944   18926989.5904
  17650296.434   -21279991.10349 -16271845.39649  17650296.6354   17650302.5654
  17775854.844   -22570100.90549 -17117637.93849  17775855.3744   17775859.2514
  15789545.120   -30317380.27449 -23595999.07449  15789544.9214   15789549.5084
  18715186.305   -15504850.54149 -11792566.38149  18715187.1914   18715193.1374
  17560040.389   -33387870.76449 -25998391.36849  17560041.1104   17560045.8504
  17409720.267   -21213746.944 9 -16505689.226 9  17409719.871    17409724.079
  15813016.703   -38829568.99949 -29626369.06849  15813016.7644   15813021.3334
 96  5  9  3  4 59.9840000  0  8  3 21 26 23 22  6 28 17
  18905399.469   -11199205.87749  -8698533.33049  18905400.4264   18905405.6644
  17634469.785   -21363161.83249 -16336653.70249  17634470.0054   17634475.5864
  17781232.664   -22541842.31749 -17095618.24349  17781232.8244   17781237.0624
  15785925.032   -30336403.54149 -23610822.37749  15785924.9434   15785929.5194
  18720367.146   -15477632.65649 -11771357.66149  18720366.6094   18720372.2184
  17575549.335   -33306375.99749 -25934888.96349  17575548.3254   17575554.4334
  17391555.163   -21309204.430 9 -16580071.665 9  17391555.025    17391559.179
  15811600.165   -38837011.07149 -29632168.08249  15811600.3344   15811604.9294
 96  5  9  3  5 29.9840000  0  8  3 21 26 23 22  6 28 17
  18883860.637   -11312395.28449  -8786732.87149  18883860.9024   18883865.3414
  17618695.862   -21446055.85049 -16401246.38949  17618695.6284   17618701.5474
  17786711.472   -22513050.72349 -17073183.21549  17786711.5854   17786715.4264
  15782382.515   -30355019.61749 -23625328.39549  15782382.3324   15782386.7464
  18725625.268   -15450000.58749 -11749826.20549  18725624.1824   18725630.8354
  17591120.543   -33224542.15249 -25871122.33649  17591121.2714   17591127.1604
  17373457.304   -21404313.745 9 -16654182.807 9  17373456.221    17373460.209
  15810237.244   -38844173.58349 -29637749.25849  15810237.4684   15810241.8694
 96  5  9  3  5 59.9840000  0  8  3 21 26 23 22  6 28 17
  18862367.793   -11425339.92949  -8874741.65949  18862367.9964   18862373.3074
  17602974.217   -21528672.05649 -16465622.60649  17602974.0624   17602979.9594
  17792295.032   -22483709.21349 -17050319.68849  17792295.0124   17792299.0794
  15778914.786   -30373241.08249 -23639526.92249  15778914.7354   15778919.2994
  18730962.045   -15421953.77749 -11727971.58649  18730962.0514   18730967.9954
  17606756.576   -33142372.88849 -25807094.35149  17606757.4544   17606763.1164
  17355425.294   -21499070.764 9 -16728019.429 9  17355424.577    17355428.683
  15808924.788   -38851070.40749 -29643123.40349  15808925.1614   15808929.5524
 96  5  9  3  6 29.9840000  0  8  3 21 26 23 22  6 28 17
  18840918.738   -11538056.23349  -8962572.53549  18840918.5204   18840924.3554
  17587302.793   -21611025.79049 -16529794.30049  17587302.9014   17587308.7264
  17797985.375   -22453805.90849 -17027018.39949  17797985.5514   17797989.7224
  15775523.804   -30391062.39449 -23653413.64249  15775523.7804   15775528.1234
  18736378.981   -15393496.71849 -11705797.28349  18736377.0024   18736383.1664
  17622456.464   -33059873.86849 -25742809.39049  17622456.6774   17622462.9484
  17337458.949   -21593483.023 9 -16801587.413 9  17337458.449    17337462.483
  15807660.143   -38857718.35449 -29648303.61949  15807660.1464   15807664.4254
 96  5  9  3  6 59.9840000  0  8  3 21 26 23 22  6 28 17
  18819517.375   -11650516.70749  -9050204.04749  18819518.2744   18819523.7084
  17571689.386   -21693074.33949 -16593728.19349  17571688.9414   17571695.0724
  17803791.945   -22423290.42649 -17003240.09049  17803792.5854   17803796.1974
  15772213.237   -30408457.30849 -23666968.10649  15772213.1134   15772217.9324
  18741880.630   -15364578.68449 -11683263.78649  18741879.8314   18741886.5734
  17638224.909   -32977007.31849 -25678238.06549  17638225.9174   17638230.8964
  17319564.873   -21687517.571 9 -16874861.076 9  17319564.193    17319568.389
  15806449.183   -38864079.36749 -29653260.24949  15806449.6404   15806453.9184
 96  5  9  3  7 29.9840000  0  8  3 21 26 23 22  6 28 17
  18798157.898   -11762765.75349  -9137670.82049  18798157.3014   18798162.3314
  17556128.981   -21774846.59349 -16657446.78649  17556128.5224   17556134.2504
  17809711.550   -22392181.18349 -16978999.10849  17809712.3844   17809716.4394
  15768977.683   -30425461.54949 -23680218.15049  15768977.5494   15768982.1294
  18747462.903   -15335235.55449 -11660399.03849  18747463.3354   18747469.8294
  17654057.307   -32893816.19249 -25613413.82049  17654056.3284   17654062.1734
  17301737.208   -21781202.195 9 -16947862.074 9  17301736.537    17301740.861
  15805286.968   -38870188.21949 -29658020.39049  15805287.1244   15805291.5074
 96  5  9  3  7 59.9840000  0  8  3 21 26 23 22  6 28 17
  18776832.261   -11874834.63949  -9224997.17849  18776832.1724   18776836.2034
  17540617.543   -21856357.55649 -16720961.78149  17540617.4944   17540623.0374
  17815738.912   -22360508.38849 -16954318.99749  17815739.6274   17815743.3834
  15765811.696   -30442099.04049 -23693182.41649  15765811.3864   15765816.0124
  18753123.366   -15305499.42249 -11637228.06049  18753122.4124   18753128.4044
  17669941.000   -32810340.87949 -25548368.12849  17669941.0704   17669946.7374
  17283972.580   -21874555.769 9 -17020605.111 9  17283971.972    17283976.092
  15804167.634   -38876070.24749 -29662603.78449  15804167.7454   15804172.3284
 96  5  9  3  8 29.9840000  0  8  3 21 26 23 22  6 28 17
  18755540.990   -11986717.48049  -9312178.56649  18755540.9914   18755546.1474
  17525157.660   -21937598.09449 -16784266.04949  17525158.0564   17525163.4014
  17821870.460   -22328287.46649 -16929211.77549  17821871.0714   17821874.7344
  15762717.503   -30458358.73649 -23705852.28849  15762717.1104   15762721.9614
  18758855.308   -15275374.91649 -11613754.45649  18758854.5204   18758860.8164
  17685880.310   -32726577.84049 -25483098.23449  17685880.6934   17685886.0614
  17266271.605   -21967573.244 9 -17093086.249 9  17266271.439    17266275.459
  15803092.205   -38881723.21849 -29667008.69149  15803092.0204   15803096.6074
 96  5  9  3  8 59.9840000  0  8  3 21 26 23 22  6 28 17
  18734290.745   -12098385.02949  -9399192.19849  18734291.2864   18734296.9384
  17509754.048   -22018545.97549 -16847342.27649  17509753.9714   17509759.8114
  17828108.133   -22295510.40349 -16903671.19249  17828108.0604   17828111.7184
  15759696.693   -30474232.30149 -23718221.28249  15759696.5064   15759701.2454
  18764663.061   -15244857.56049 -11589974.73149  18764662.4524   18764668.2184
  17701877.856   -32642515.48849 -25417595.10849  17701877.6244   17701882.3244
  17248640.121   -22060228.403 9 -17165285.060 9  17248639.602    17248643.719
  15802064.468   -38887122.48549 -29671215.90449  15802064.5334   15802069.1464
 96  5  9  3  9 29.9840000  0  8  3 21 26 23 22  6 28 17
  18713081.823   -12209839.12949  -9486039.50349  18713081.7014   18713087.9404
  17494403.398   -22099214.97649 -16910201.19249  17494403.3844   17494408.9604
  17834447.578   -22262193.92949 -16877710.29549  17834448.1534   17834451.3944
  15756750.782   -30489712.88649 -23730284.06149  15756750.6544   15756755.2034
  18770540.875   -15213969.12349 -11565905.86149  18770539.7494   18770546.8644
  17717928.703   -32558169.25149 -25351870.76949  17717927.4504   17717932.8294
  17231078.520   -22152515.009 9 -17237196.689 9  17231078.061    17231082.045
  15801085.240   -38892268.98749 -29675226.15949  15801085.1574   15801089.6504
 96  5  9  3  9 59.9840000  0  8  3 21 26 23 22  6 28 17
  18691915.366   -12321074.38449  -9572716.28449  18691914.9624   18691919.9044
  17479105.345   -22179607.63749 -16972844.78049  17479105.0254   17479110.6734
  17840889.897   -22228342.10249 -16851332.24149  17840889.8264   17840893.7014
  15753879.946   -30504799.45549 -23742039.81649  15753879.9504   15753884.3454
  18776489.224   -15182705.32949 -11541544.50249  18776489.5774   18776496.0044
  17734033.824   -32473534.59749 -25285921.69949  17734033.9984   17734039.1824
  17213587.693   -22244429.745 9 -17308818.547 9  17213587.259    17213591.335
  15800152.797   -38897167.28349 -29679043.00349  15800153.0494   15800157.3984
 96  5  9  3 10 29.9840000  0  8  3 21 26 23 22  6 28 17
  18670787.870   -12432095.08749  -9659225.90149  18670787.6644   18670792.8974
  17463855.177   -22259745.64849 -17035289.94449  17463855.1484   17463860.5064
  17847430.424   -22193965.54749 -16824545.31249  17847431.3554   17847435.3054
  15751080.699   -30519510.41949 -23753502.89149  15751080.3994   15751085.1324
  18782506.027   -15151089.74549 -11516909.01949  18782506.1434   18782512.8354
  17750193.708   -32388618.76449 -25219753.52649  17750192.2144   17750197.8354
  17196166.530   -22335977.773 9 -17380154.655 9  17196166.192    17196170.270
  15799266.486   -38901825.09049 -29682672.45549  15799266.5514   15799271.1834
 96  5  9  3 10 59.9840000  0  8  3 21 26 23 22  6 28 17
  18649705.273   -12542888.69449  -9745558.52249  18649705.0934   18649710.3494
  17448655.821   -22339620.51449 -17097530.05649  17448655.5844   17448661.0194
  17854072.847   -22159059.11649 -16797345.48449  17854073.3254   17854077.5534
  15748351.081   -30533852.99049 -23764678.90249  15748351.0434   15748355.7464
  18788589.033   -15119121.89549 -11491999.02449  18788589.8834   18788594.8614
  17766404.136   -32303423.85749 -25153367.89849  17766404.3674   17766409.3704
  17178816.471   -22427153.322 9 -17451200.516 9  17178816.053    17178820.190
  15798428.700   -38906228.80349 -29686103.90649  15798428.7894   15798433.5174
 96  5  9  3 11 29.9840000  0  8  3 21 26 23 22  6 28 17
  18628667.370   -12653444.77049  -9831706.07849  18628667.4514   18628672.8114
  17433511.052   -22419206.24049 -17159544.86549  17433510.8104   17433515.9664
  17860815.284   -22123631.98349 -16769739.91749  17860815.5784   17860819.0974
  15745693.983   -30547816.81049 -23775559.78449  15745693.9264   15745698.3774
  18794740.719   -15086794.51849 -11466808.89049  18794740.8474   18794746.4354
  17782672.010   -32217933.18249 -25086751.80449  17782673.7634   17782678.0114
  17161537.703   -22517954.488 9 -17521954.651 9  17161537.258    17161541.144
  15797640.452   -38910370.18349 -29689330.94649  15797640.6594   15797645.0194
 96  5  9  3 11 59.9840000  0  8  3 21 26 23 22  6 28 17
  18607677.896   -12763740.87149  -9917651.05849  18607678.1454   18607683.5184
  17418427.027   -22498471.41349 -17221309.88749  17418427.4064   17418432.3444
  17867655.038   -22087682.08249 -16741726.99849  17867656.2224   17867660.4184
  15743109.164   -30561400.73549 -23786144.64449  15743108.8814   15743113.4024
  18800963.508   -15054104.39049 -11441336.09249  18800961.4444   18800967.2194
  17798998.541   -32132135.81549 -25019896.72649  17798999.9594   17799004.8314
  17144330.368   -22608377.157 9 -17592413.844 9  17144330.351    17144334.400
  15796905.494   -38914233.18649 -29692341.06549  15796905.5894   15796909.9584
 96  5  9  3 12 29.9830000  0  8  3 21 26 23 22  6 28 17
  18586739.564   -12873775.81749 -10003392.55649  18586739.4034   18586744.4134
  17403405.570   -22577412.25149 -17282822.17849  17403405.0944   17403410.1474
  17874594.607   -22051220.21649 -16713315.14749  17874594.5564   17874598.9504
  15740594.539   -30574616.59349 -23796442.70149  15740593.9084   15740598.4764
  18807249.245   -15021072.42149 -11415596.91049  18807247.1044   18807253.2224
  17815380.686   -32046044.99249 -24952812.98149  17815382.1624   17815387.9034
  17127195.457   -22698426.590 9 -17662582.203 9  17127194.392    17127198.509
  15796224.591   -38917810.24249 -29695128.36949  15796224.7954   15796229.2594
 96  5  9  3 12 59.9830000  0  8  3 21 26 23 22  6 28 17
  18565850.748   -12983544.03849 -10088926.20449  18565851.3654   18565855.4944
  17388447.182   -22656018.51449 -17344073.76149  17388446.9044   17388451.7704
  17881635.380   -22014220.28449 -16684484.03049  17881635.4874   17881639.6574
  15738154.018   -30587438.72749 -23806433.96249  15738153.9154   15738158.4244
  18813605.247   -14987661.53349 -11389562.48149  18813605.3694   18813611.6174
  17831827.610   -31959623.75049 -24885471.76949  17831827.2374   17831832.8594
  17110132.058   -22788092.426 9 -17732451.657 9  17110131.606    17110135.530
  15795600.742   -38921090.11949 -29697684.10749  15795600.8034   15795605.1294
 96  5  9  3 13 29.9830000  0  8  3 21 26 23 22  6 28 17
  18545012.870   -13093049.63949 -10174255.21149  18545013.4994   18545017.3064
  17373550.309   -22734300.81049 -17405072.90249  17373550.3594   17373555.3214
  17888780.939   -21976671.89949 -16655225.53849  17888780.6914   17888784.9424
  15735791.100   -30599855.71949 -23816109.52549  15735790.9354   15735795.5384
  18820038.908   -14953860.53249 -11363224.05449  18820036.9564   18820043.0064
  17848334.399   -31872874.70949 -24817875.13849  17848335.2414   17848339.5774
  17093143.655   -22877365.582 9 -17802015.128 9  17093143.440    17093147.380
  15795030.312   -38924087.34449 -29700019.59949  15795030.2294   15795034.3004
 96  5  9  3 13 59.9830000  0  8  3 21 26 23 22  6 28 17
  18524223.542   -13202295.80049 -10259382.05749  18524224.1884   18524228.7304
  17358710.329   -22812284.57549 -17465839.42049  17358710.6114   17358715.3554
  17896034.769   -21938551.24549 -16625521.12149  17896035.4874   17896038.7624
  15733505.870   -30611864.33349 -23825466.87049  15733505.8404   15733510.3944
  18826545.414   -14919665.96049 -11336578.94349  18826543.9724   18826551.3454
  17864903.376   -31785813.16849 -24750034.99549  17864902.5364   17864907.5104
  17076232.799   -22966234.603 9 -17871263.688 9  17076232.149    17076236.077
  15794511.707   -38926814.06849 -29702144.31249  15794511.7154   15794515.7374
 96  5  9  3 14 29.9830000  0  8  3 21 26 23 22  6 28 17
  18503476.595   -13311323.34549 -10344338.55749  18503476.5024   18503481.2234
  17343915.999   -22890028.19649 -17526418.81249  17343916.1364   17343921.0784
  17903392.045   -21899887.73749 -16595393.69949  17903392.3104   17903396.5884
  15731293.368   -30623492.03149 -23834527.39849  15731293.4054   15731297.9064
  18833122.729   -14885105.94449 -11309649.06949  18833121.8114   18833127.5064
  17881525.891   -31698460.26549 -24681967.81149  17881525.6524   17881530.5274
  17059393.178   -23054725.394 9 -17940217.527 9  17059392.995    17059396.978
  15794034.920   -38929317.72549 -29704095.20749  15794034.9444   15794039.0914
 96  5  9  3 14 59.9830000  0  8  3 21 26 23 22  6 28 17
  18482774.735   -13420115.00049 -10429111.25249  18482774.8094   18482778.7174
  17329169.944   -22967517.91249 -17586800.35749  17329170.1734   17329175.2574
  17910854.304   -21860675.33949 -16564838.57349  17910854.1044   17910858.5294
  15729158.012   -30634711.31349 -23843269.68749  15729158.2424   15729162.5164
  18839770.611   -14850158.99749 -11282417.71849  18839771.3474   18839777.1904
  17898205.790   -31610804.19949 -24613664.39249  17898206.0914   17898211.2234
  17042629.903   -23142818.813 9 -18008861.726 9  17042629.329    17042633.328
  15793600.423   -38931601.36349 -29705874.66349  15793600.5684   15793604.6834
 96  5  9  3 15 29.9830000  0  8  3 21 26 23 22  6 28 17
  18462120.930   -13528652.63949 -10513686.01449  18462120.4994   18462124.6884
  17314476.085   -23044736.22049 -17646970.41649  17314476.1534   17314481.3124
  17918418.309   -21820924.01949 -16533863.51149  17918418.7974   17918422.9084
  15727102.837   -30645513.68649 -23851687.10049  15727102.5804   15727107.1554
  18846494.822   -14814832.72449 -11254890.75749  18846493.6484   18846499.3334
  17914940.117   -31522858.37549 -24545135.21149  17914940.5684   17914946.3774
  17025943.814   -23230504.181 9 -18077187.963 9  17025943.323    17025947.255
  15793210.605   -38933651.52049 -29707472.18349  15793210.3784   15793214.5034
 96  5  9  3 15 59.9830000  0  8  3 21 26 23 22  6 28 17
  18441514.399   -13636937.61149 -10598063.87749  18441515.2044   18441518.8844
  17299834.194   -23121678.65649 -17706925.50649  17299834.4324   17299839.6444
  17926079.571   -21780666.41349 -16502493.93549  17926079.2914   17926082.8874
  15725122.531   -30655919.05049 -23859795.15849  15725122.4424   15725126.8864
  18853284.163   -14779147.57149 -11227084.15749  18853284.9564   18853290.3614
  17931731.845   -31434625.56549 -24476382.38749  17931730.8734   17931736.6214
  17009334.030   -23317791.448 9 -18145203.997 9  17009333.094    17009337.123
  15792866.202   -38935459.21449 -29708880.77349  15792866.4204   15792870.5714
 96  5  9  3 16 29.9830000  0  8  3 21 26 23 22  6 28 17
  18420957.193   -13744966.09549 -10682241.89249  18420957.3164   18420961.9194
  17285250.353   -23198321.08749 -17766646.82249  17285249.7654   17285254.7314
  17933835.159   -21739905.57349 -16470732.22949  17933836.3874   17933839.2414
  15723216.724   -30665933.87249 -23867598.89849  15723217.0684   15723221.4074
  18860144.854   -14743091.78149 -11198988.74249  18860145.9194   18860152.3624
  17948578.239   -31346096.56849 -24407398.76949  17948577.9284   17948582.2334
  16992800.153   -23404674.648 9 -18212905.176 9  16992799.715    16992803.655
  15792573.050   -38937002.08949 -29710083.01449  15792572.6824   15792577.0454
 96  5  9  3 16 59.9830000  0  8  3 21 26 23 22  6 28 17
  18400452.562   -13852720.98449 -10766206.71649  18400451.1694   18400456.7914
  17270728.886   -23274628.05749 -17826106.74749  17270728.8104   17270734.0814
  17941691.244   -21698624.32349 -16438565.01649  17941691.6664   17941695.5504
  15721387.487   -30675549.38349 -23875091.48649  15721386.9884   15721391.4824
  18867078.903   -14706651.68449 -11170593.87549  18867079.4284   18867086.4704
  17965479.024   -31257274.57549 -24338186.84149  17965480.3804   17965484.5634
  16976347.851   -23491134.650 9 -18280276.597 9  16976346.956    16976350.981
  15792335.356   -38938249.58849 -29711055.08949  15792335.2394   15792339.8154
 96  5  9  3 17 29.9830000  0  8  3 21 26 23 22  6 28 17
  18379992.206   -13960236.57149 -10849985.07449  18379992.4184   18379997.3654
  17256264.078   -23350642.03149 -17885338.35849  17256264.0584   17256268.8664
  17949640.664   -21656848.85549 -16406012.69449  17949641.4114   17949645.2294
  15719622.392   -30684823.80349 -23882318.28949  15719622.5404   15719626.7234
  18874078.418   -14669877.03649 -11141938.30849  18874076.7204   18874084.3084
  17982431.998   -31168192.92749 -24268772.59549  17982431.6834   17982436.4704
  16959969.355   -23577203.951 9 -18347343.573 9  16959968.614    16959972.515
  15792150.308   -38939221.58949 -29711812.49149  15792150.3184   15792154.7524
 96  5  9  3 17 59.9830000  0  8  3 21 26 23 22  6 28 17
  18359581.871   -14067491.74349 -10933560.51349  18359581.8304   18359587.0844
  17241857.200   -23426346.96049 -17944329.16149  17241857.7484   17241863.0004
  17957691.428   -21614542.43349 -16373046.63649  17957692.0544   17957695.2144
  15717923.923   -30693748.90649 -23889272.90249  15717923.6634   15717928.4844
  18881143.247   -14632752.06349 -11113009.78049  18881142.4294   18881149.5294
  17999437.840   -31078824.63549 -24199134.97149  17999437.6794   17999443.6464
  16943670.311   -23662853.909 9 -18414083.791 9  16943669.876    16943673.805
  15792023.648   -38939887.00949 -29712330.99949  15792023.7584   15792028.1004
 96  5  9  3 18 29.9830000  0  8  3 21 26 23 22  6 28 17
  18339218.913   -14174500.85749 -11016944.21849  18339219.5214   18339223.6824
  17227503.920   -23501776.58149 -18003105.43849  17227503.9444   17227509.1534
  17965841.442   -21571717.84049 -16339676.81149  17965840.9104   17965844.4464
  15716290.810   -30702330.09049 -23895959.51749  15716290.6734   15716295.2124
  18888267.298   -14595310.83749 -11083834.80749  18888267.3414   18888273.5594
  18016490.515   -30989196.16149 -24129294.62949  18016493.6624   18016499.0814
  16927449.034   -23748097.903 9 -18480507.672 9  16927448.404    16927452.562
  15791950.157   -38940276.26649 -29712634.31049  15791949.5574   15791954.0614
 96  5  9  3 18 59.9830000  0  8  3 21 26 23 22  6 28 17
  18318910.074   -14281222.52749 -11100103.95249  18318910.8954   18318915.9934
  17213203.207   -23576928.68749 -18061665.47049  17213203.1014   17213208.4564
  17974087.801   -21528378.67749 -16305906.02449  17974088.2754   17974091.6304
  15714728.251   -30710542.44849 -23902358.73849  15714728.0044   15714732.7054
  18895453.537   -14557550.55949 -11054411.22949  18895452.7564   18895458.8704
  18033601.169   -30899296.70749 -24059243.11349  18033602.1784   18033605.7414
  16911307.544   -23832921.789 9 -18546604.201 9  16911307.012    16911311.311
  15791928.735   -38940385.37349 -29712719.32849  15791928.9174   15791933.3384
 96  5  9  3 19 29.9830000  0  8  3 21 26 23 22  6 28 17
  18298659.208   -14387641.66349 -11183027.92549  18298660.0254   18298665.2454
  17198952.774   -23651815.47849 -18120018.76649  17198952.3494   17198957.6864
  17982431.145   -21484536.02649 -16271742.90849  17982430.7694   17982434.8714
  15713234.166   -30718392.21349 -23908475.41849  15713234.0504   15713238.6904
  18902699.836   -14519474.19149 -11024741.33949  18902696.8844   18902704.8664
  18050756.506   -30809130.89249 -23988984.04749  18050759.4764   18050764.2804
  16895245.678   -23917326.245 9 -18612373.898 9  16895245.343    16895249.367
  15791959.110   -38940226.99949 -29712595.92049  15791959.1014   15791963.6404
 96  5  9  3 19 59.9830000  0  8  3 21 26 23 22  6 28 17
  18278462.880   -14493770.11249 -11265725.40249  18278464.1044   18278469.6974
  17184751.354   -23726442.21649 -18178169.42349  17184751.1324   17184756.4714
  17990864.374   -21440215.33049 -16237207.29249  17990864.6154   17990869.3614
  15711810.266   -30725875.76349 -23914306.73649  15711809.9814   15711814.3404
  18910006.984   -14481077.16849 -10994821.59949  18910005.0544   18910010.7214
  18067963.082   -30718717.52649 -23918532.09349  18067964.6864   18067968.9274
  16879262.667   -24001317.914 9 -18677821.949 9  16879262.094    16879266.266
  15792037.096   -38939818.21549 -29712277.38549  15792036.9154   15792041.1074
 96  5  9  3 20 29.9830000  0  8  3 21 26 23 22  6 28 17
  18258328.756   -14599580.36549 -11348174.94449  18258329.6024   18258334.0194
  17170605.685   -23800776.99349 -18236092.58549  17170605.8504   17170611.2584
  17999391.982   -21395406.27849 -16202291.14349  17999392.1124   17999395.2544
  15710462.364   -30732960.38249 -23919827.19849  15710461.9234   15710466.5174
  18917379.837   -14442328.26549 -10964627.66649  18917378.3624   18917384.4914
  18085218.104   -30628044.30449 -23847877.66149  18085219.3494   18085224.4544
  16863361.737   -24084875.770 9 -18742931.960 9  16863361.640    16863365.791
  15792163.429   -38939154.13949 -29711759.92449  15792163.1424   15792167.3764
 96  5  9  3 20 59.9830000  0  8  3 21 26 23 22  6 28 17
  18238252.834   -14705079.80549 -11430382.28249  18238253.2994   18238257.8664
  17156517.805   -23874812.03049 -18293782.17949  17156517.4414   17156522.6444
  18008011.610   -21350107.14249 -16166993.11049  18008011.8604   18008016.0974
  15709186.067   -30739668.19049 -23925054.04549  15709185.5504   15709189.9194
  18924819.203   -14403226.97949 -10934159.14649  18924819.5304   18924825.7024
  18102520.679   -30537129.76249 -23777035.18749  18102519.0854   18102524.3434
  16847542.802   -24168008.426 9 -18807710.646 9  16847542.073    16847545.913
  15792337.433   -38938236.16949 -29711044.61949  15792337.9394   15792342.0884
 96  5  9  3 21 29.9830000  0  8  3 21 26 23 22  6 28 17
  18218230.843   -14810295.74149 -11512368.69849  18218231.4464   18218236.6394
  17142486.688   -23948543.23649 -18351235.01649  17142487.0464   17142492.1264
  18016727.795   -21304304.76949 -16131302.93949  18016728.0284   18016731.6624
  15707978.890   -30746010.35049 -23929995.97349  15707978.6444   15707983.1504
  18932326.880   -14363781.31949 -10903422.28249  18932326.1764   18932332.0224
  18119866.977   -30445970.84949 -23706002.27449  18119866.3364   18119871.2644
  16831804.492   -24250713.793 9 -18872156.376 9  16831803.799    16831807.726
  15792562.525   -38937056.94449 -29710125.73849  15792562.1404   15792566.6804
 96  5  9  3 21 59.9830000  0  8  3 21 26 23 22  6 28 17
  18198259.389   -14915246.85749 -11594148.76249  18198259.7384   18198264.3434
  17128513.931   -24021971.63849 -18408451.91349  17128514.0684   17128518.9094
  18025537.711   -21258007.01349 -16095226.75749  18025538.3154   18025542.1134
  15706840.317   -30751992.45149 -23934657.33449  15706840.1564   15706844.7864
  18939894.445   -14324017.37749 -10872437.40449  18939893.3714   18939899.6924
  18137258.390   -30354572.46649 -23634782.78249  18137258.6464   18137264.3394
  16816144.569   -24333004.220 9 -18936278.774 9  16816144.412    16816148.450
  15792835.370   -38935622.41149 -29709007.91849  15792835.2314   15792839.6664
 96  5  9  3 22 29.9830000  0  8  3 21 26 23 22  6 28 17
  18178347.333   -15019886.07849 -11675685.80549  18178347.9474   18178352.9774
  17114605.436   -24095061.92749 -18465405.34149  17114605.2004   17114610.4434
  18034449.791   -21211173.71249 -16058733.26649  18034449.7324   18034453.9944
  15705774.763   -30757592.42949 -23939020.93449  15705774.2864   15705779.2524
  18947523.655   -14283920.09049 -10841192.78249  18947522.5204   18947530.1974
  18154704.975   -30262892.99249 -23563344.24549  18154705.4084   18154710.4624
  16800569.919   -24414850.587 9 -19000055.147 9  16800569.569    16800573.433
  15793162.576   -38933901.72549 -29707667.11249  15793162.7274   15793167.1234
 96  5  9  3 22 59.9830000  0  8  3 21 26 23 22  6 28 17
  18158489.012   -15124244.09149 -11757003.70249  18158488.9584   18158494.3574
  17100752.282   -24167861.50449 -18522132.24249  17100752.1214   17100757.1384
  18043457.588   -21163837.62549 -16021847.99849  18043458.0514   18043461.4454
  15704771.996   -30762860.91149 -23943126.23149  15704771.9024   15704776.6744
  18955208.709   -14243527.81349 -10809718.30049  18955209.3654   18955216.6304
  18172197.712   -30170961.86049 -23491709.60249  18172198.8784   18172204.0724
  16785073.550   -24496286.626 9 -19063511.784 9  16785072.811    16785076.763
  15793539.615   -38931920.41749 -29706123.22749  15793539.8194   15793544.1364
 96  5  9  3 23 29.9830000  0  8  3 21 26 23 22  6 28 17
  18138688.596   -15228295.17049 -11838082.44449  18138688.3994   18138693.7874
  17086960.686   -24240336.50649 -18578606.22849  17086960.4984   17086965.6044
  18052565.395   -21115979.45649 -15984555.91349  18052565.2484   18052569.2784
  15703839.668   -30767761.46549 -23946944.83249  15703839.5064   15703844.0144
  18962957.516   -14202813.89949 -10777993.18249  18962956.3934   18962963.9314
  18189747.057   -30078740.48249 -23419848.82449  18189747.4254   18189753.7844
  16769661.690   -24577275.137 9 -19126619.696 9  16769661.167    16769665.317
  15793971.862   -38929648.41149 -29704352.82549  15793972.0424   15793976.3314
 96  5  9  3 23 59.9830000  0  8  3 21 26 23 22  6 28 17
  18118949.209   -15332026.11749 -11918911.73249  18118949.4414   18118954.2654
  17073230.973   -24312484.45149 -18634825.36349  17073231.1684   17073236.1334
  18061768.806   -21067612.34349 -15946867.24349  18061769.0494   18061773.3354
  15702977.156   -30772294.25249 -23950476.85549  15702976.8714   15702981.5444
  18970766.159   -14161776.45049 -10746015.97249  18970766.5124   18970772.9994
  18207350.562   -29986243.23349 -23347773.05849  18207349.4424   18207354.8394
  16754335.013   -24657818.385 9 -19189380.649 9  16754334.411    16754338.210
  15794457.746   -38927096.18149 -29702364.06249  15794457.6014   15794462.0574
 96  5  9  3 24 29.9830000  0  8  3 21 26 23 22  6 28 17
  18099266.576   -15435461.71349 -11999510.88049  18099266.5794   18099270.9914
  17059557.784   -24384337.78749 -18690814.94049  17059557.6124   17059562.8164
  18071065.281   -21018755.53049 -15908797.00049  18071065.6814   18071070.2954
  15702179.608   -30776484.14549 -23953741.69849  15702179.3554   15702184.0534
  18978637.693   -14120419.28949 -10713789.64149  18978636.2514   18978642.8334
  18225000.307   -29893495.10049 -23275501.81549  18224998.2684   18225003.8184
  16739090.781   -24737927.884 9 -19251803.616 9  16739089.963    16739093.838
  15794994.688   -38924274.40949 -29700165.26949  15794994.5204   15794999.0324
 96  5  9  3 24 59.9830000  0  8  3 21 26 23 22  6 28 17
  18079639.988   -15538597.65949 -12079876.53449  18079639.7214   18079644.8834
  17045942.294   -24455888.68049 -18746568.83949  17045942.1044   17045947.2984
  18080458.095   -20969395.77249 -15870334.84249  18080458.4914   18080462.5874
  15701452.364   -30780306.68449 -23956720.28649  15701452.0124   15701456.8004
  18986569.066   -14078732.04849 -10681306.10049  18986569.3574   18986575.9494
  18242696.613   -29800490.53049 -23203030.73649  18242696.6084   18242702.8994
  16723933.494   -24817578.726 9 -19313869.185 9  16723932.988    16723936.945
  15795588.079   -38921155.48949 -29697734.92949  15795587.9704   15795592.6134
 96  5  9  3 25 29.9830000  0  8  3 21 26 23 22  6 28 17
  18060063.321   -15641473.32149 -12160039.36249  18060064.0124   18060068.3384
  17032375.888   -24527177.32349 -18802118.38849  17032376.1024   17032381.2344
  18089939.052   -20919573.80249 -15831512.51649  18089940.4874   18089943.5234
  15700789.642   -30783787.85249 -23959432.86749  15700789.6724   15700794.3164
  18994554.435   -14036768.73249 -10648607.43449  18994554.0704   18994560.5024
  18260437.280   -29707262.54449 -23130385.58949  18260438.3084   18260443.4224
  16708857.525   -24896803.948 9 -19375603.104 9  16708856.921    16708860.621
  15796231.740   -38917772.62649 -29695098.92049  15796231.7164   15796236.2674
 96  5  9  3 25 59.9830000  0  8  3 21 26 23 22  6 28 17
  18040543.014   -15744051.41249 -12239970.31849  18040543.7974   18040548.7374
  17018860.074   -24598205.08149 -18857464.64849  17018859.7194   17018865.3714
  18099510.121   -20869278.05549 -15792321.02549  18099510.9074   18099515.3564
  15700195.948   -30786910.66449 -23961866.21149  15700195.3634   15700200.1274
  19002595.059   -13994513.78949 -10615681.53749  19002595.0374   19002601.5344
  18278224.610   -29613797.44849 -23057555.67749  18278223.6194   18278228.9354
  16693866.382   -24975581.910 9 -19436988.510 9  16693865.909    16693869.682
  15796930.174   -38914102.87349 -29692239.36749  15796930.1764   15796934.6414
 96  5  9  3 26 29.9830000  0  8  3 21 26 23 22  6 28 17
  18021080.589   -15846332.53149 -12319669.88049  18021080.6304   18021084.6904
  17005390.471   -24668986.92249 -18912619.28449  17005390.5384   17005395.5614
  18109170.241   -20818516.28849 -15752766.39549  18109170.2504   18109174.7274
  15699669.353   -30789676.82849 -23964021.65049  15699669.0244   15699673.5824
  19010689.353   -13951985.03049 -10582542.25949  19010688.1404   19010694.2254
  18296053.526   -29520101.39549 -22984545.80649  18296053.7154   18296058.8584
  16678961.099   -25053910.144 9 -19498023.477 9  16678960.581    16678964.375
  15797684.696   -38910139.58749 -29689151.08449  15797684.5044   15797688.7444
 96  5  9  3 26 59.9830000  0  8  3 21 26 23 22  6 28 17
  18001677.973   -15948289.89749 -12399117.17449  18001678.0114   18001683.2824
  16991971.763   -24739502.37949 -18967566.35749  16991971.6264   16991976.9704
  18118919.049   -20767286.84649 -15712847.33649  18118919.1534   18118922.9084
  15699213.088   -30792073.55149 -23965889.21449  15699213.0414   15699217.4094
  19018832.338   -13909182.14749 -10549189.40049  19018833.5124   19018839.5664
  18313927.725   -29426171.61149 -22911353.78749  18313927.0984   18313933.1124
  16664142.869   -25131780.069 9 -19558701.325 9  16664142.390    16664146.168
  15798493.149   -38905889.29349 -29685839.15949  15798493.0464   15798497.4264
 96  5  9  3 27 29.9830000  0  8  3 21 26 23 22  6 28 17
  17982340.123   -16049912.26649 -12478303.41749  17982340.3514   17982344.8434
  16978605.959   -24809741.42249 -19022298.04149  16978605.9984   16978610.7184
  18128754.276   -20715598.83849 -15672570.96649  18128754.6974   18128758.2764
  15698825.298   -30794112.32649 -23967477.85749  15698824.9764   15698829.3494
  19027032.803   -13866094.13549 -10515614.35449  19027032.4654   19027039.3564
  18331843.618   -29332019.02749 -22837988.17649  18331843.6854   18331850.2424
  16649411.654   -25209191.967 9 -19619022.271 9  16649411.322    16649415.092
  15799353.881   -38901366.00349 -29682314.51049  15799353.8984   15799358.3654
 96  5  9  3 27 59.9830000  0  8  3 21 26 23 22  6 28 17
  17963064.151   -16151206.19649 -12557233.73949  17963064.5034   17963068.8244
  16965292.335   -24879703.37349 -19076813.81049  16965292.5204   16965297.6394
  18138675.940   -20663463.38549 -15631945.92849  18138675.6854   18138679.9184
  15698501.161   -30795815.22049 -23968804.77749  15698500.9544   15698505.1224
  19035288.065   -13822717.03849 -10481814.04349  19035287.5864   19035293.1134
  18349796.375   -29237672.45549 -22764471.40349  18349798.1764   18349804.1614
  16634766.312   -25286154.655 9 -19678993.185 9  16634765.809    16634769.653
  15800263.434   -38896586.41649 -29678590.15249  15800263.4434   15800267.6434
 96  5  9  3 28 29.9830000  0  8  3 21 26 23 22  6 28 17
  17943852.341   -16252165.07149 -12635902.99049  17943852.9744   17943857.9744
  16952038.543   -24949352.92949 -19131086.15249  16952038.6204   16952043.5894
  18148687.155   -20610852.41249 -15590950.36249  18148687.6214   18148691.4374
  15698242.586   -30797172.20749 -23969862.15349  15698242.7344   15698246.9934
  19043600.698   -13779027.66649 -10447770.39749  19043601.0614   19043606.5734
  18367791.691   -29143113.92949 -22690789.43849  18367792.1974   18367798.4664
  16620209.754   -25362648.454 9 -19738598.727 9  16620209.517    16620213.322
  15801222.013   -38891548.19649 -29674664.26249  15801222.0144   15801226.6284
 96  5  9  3 28 59.9830000  0  8  3 21 26 23 22  6 28 17
  17924703.673   -16352797.38649 -12714317.77649  17924702.9654   17924707.9394
  16938844.287   -25018690.27649 -19185115.21249  16938844.3864   16938849.3444
  18158788.474   -20557771.58249 -15549588.67849  18158788.3464   18158791.9924
  15698048.500   -30798194.22649 -23970658.52349  15698048.1294   15698052.3564
  19051974.078   -13735024.40149 -10413482.16049  19051974.5944   19051980.9274
  18385826.958   -29048340.81549 -22616940.26849  18385826.2754   18385832.1234
  16605742.776   -25438676.740 9 -19797841.541 9  16605741.808    16605745.553
  15802226.776   -38886268.08149 -29670549.88149  15802226.9604   15802231.2064
 96  5  9  3 29 29.9830000  0  8  3 21 26 23 22  6 28 17
  17905617.217   -16453093.34149 -12792470.46149  17905616.8094   17905622.0414
  16925710.117   -25087710.13949 -19238896.88849  16925710.2474   16925715.1944
  18168980.950   -20504206.97949 -15507850.02249  18168981.5344   18168984.8674
  15697918.486   -30798877.77149 -23971191.14749  15697918.1164   15697922.4944
  19060409.233   -13690700.89649 -10378944.37449  19060408.6624   19060415.5724
  18403905.412   -28953337.23549 -22542911.52749  18403905.6904   18403910.8394
  16591366.384   -25514222.194 9 -19856708.119 9  16591365.948    16591369.844
  15803281.816   -38880724.33349 -29666230.07149  15803281.9424   15803286.2074
 96  5  9  3 29 59.9830000  0  8  3 21 26 23 22  6 28 17
  17886589.974   -16553079.33349 -12870381.61449  17886590.6734   17886594.9814
  16912629.379   -25156449.47149 -19292459.97249  16912629.1364   16912634.3064
  18179260.874   -20450184.90549 -15465754.89649  18179261.4594   18179264.6864
  15697848.227   -30799246.66149 -23971478.58549  15697847.8414   15697852.1994
  19068900.108   -13646087.91649 -10344181.02749  19068898.6334   19068904.6094
  18422026.539   -28858115.35249 -22468712.66549  18422025.8824   18422030.1274
  16577078.326   -25589308.048 9 -19915216.570 9  16577077.598    16577081.489
  15804383.328   -38874937.81749 -29661721.08949  15804383.1154   15804387.5604
 96  5  9  3 30 29.9830000  0  8  3 21 26 23 22  6 28 17
  17867625.493   -16652738.52649 -12948038.11649  17867626.0124   17867630.7434
  16899603.629   -25224899.98449 -19345798.00249  16899603.7904   16899608.6694
  18189629.612   -20395694.15249 -15423294.57049  18189630.7414   18189634.7484
  15697840.238   -30799290.27749 -23971512.56049  15697839.6214   15697843.8174
  19077444.037   -13601184.10449 -10309191.05449  19077442.9334   19077450.2114
  18440189.808   -28762658.51949 -22394330.71849  18440190.7324   18440195.3234
  16562879.363   -25663923.215 9 -19973358.250 9  16562878.788    16562882.547
  15805534.278   -38868889.04249 -29657007.75049  15805534.1494   15805538.5574
 96  5  9  3 30 59.9830000  0  8  3 21 26 23 22  6 28 17
  17848724.997   -16752063.29949 -13025434.02549  17848725.5684   17848729.8784
  16886629.144   -25293079.41149 -19398924.79749  16886629.4894   16886634.4364
  18200087.494   -20340744.22349 -15380476.44049  18200087.5414   18200090.7404
  15697892.482   -30799014.04449 -23971297.30249  15697892.1064   15697896.3024
  19086043.275   -13555999.91349 -10273982.60049  19086041.1434   19086048.1224
  18458396.405   -28666986.81149 -22319781.34849  18458395.8964   18458400.3384
  16548768.820   -25738074.167 9 -20031138.204 9  16548768.371    16548772.213
  15806738.595   -38862558.20549 -29652074.62449  15806738.8644   15806743.0804
 96  5  9  3 31 29.9830000  0  9  3 21 26 23 22  6 28  1 17
  17829890.359   -16851037.84149 -13102557.03049  17829890.8604   17829895.1034
  16873709.214   -25360978.28949 -19451832.98349  16873708.8874   16873713.4704
  18210636.133   -20285310.04949 -15337280.97849  18210636.2984   18210640.1554
  15698007.772   -30798407.86949 -23970824.94649  15698007.5614   15698011.8114
  19094696.027   -13510530.78949 -10238552.12549  19094694.4114   19094700.3844
  18476641.780   -28571102.18749 -22245066.07649  18476642.9234   18476647.3544
  16534749.471   -25811746.952 9 -20088545.556 9  16534748.822    16534752.832
  19703521.094    -5343020.81859  -4144270.46459  19703521.1124   19703528.9754
  15808000.848   -38855925.55649 -29646906.31549  15808000.9014   15808005.2664
 96  5  9  3 31 59.9830000  0  9  3 21 26 23 22  6 28  1 17
  17811126.227   -16949648.25149 -13179396.28849  17811125.9764   17811130.4534
  16860847.075   -25428567.95949 -19504500.23049  16860846.8534   16860851.6414
  18221279.133   -20229374.66149 -15293694.96549  18221279.9884   18221284.0654
  15698191.609   -30797442.95949 -23970073.06049  15698191.0834   15698195.5374
  19103404.690   -13464763.18249 -10202889.06049  19103403.0094   19103410.1734
  18494930.178   -28474995.18649 -22170177.52149  18494931.3114   18494936.5454
  16520824.563   -25884922.095 9 -20145565.136 9  16520824.130    16520827.823
  19679993.774    -5466661.62849  -4240613.75149  19679993.1014   19680001.0244
  15809325.568   -38848965.98849 -29641483.26549  15809325.3454   15809329.7494
 96  5  9  3 32 29.9830000  0  9  3 21 26 23 22  6 28  1 17
  17792424.928   -17047920.00649 -13255971.65449  17792425.6594   17792430.6844
  16848039.841   -25495870.15849 -19556943.46449  16848039.7214   16848044.1014
  18232013.564   -20172965.80249 -15249740.00749  18232014.6484   18232018.3154
  15698441.667   -30796127.49749 -23969048.01249  15698441.3064   15698445.5924
  19112160.661   -13418743.56849 -10167029.61349  19112160.7614   19112167.0574
  18513253.474   -28378715.01349 -22095154.02149  18513252.5484   18513257.4704
  16506989.503   -25957626.682 9 -20202218.045 9  16506988.784    16506992.569
  19656459.547    -5590329.58449  -4336978.20749  19656459.4014   19656466.6424
  15810706.880   -38841705.19849 -29635825.49649  15810706.9124   15810711.3134
 96  5  9  3 32 59.9830000  0  9  3 21 26 23 22  6 28  1 17
  17773791.468   -17145843.61649 -13332275.73849  17773791.4294   17773796.0564
  16835289.145   -25562875.55749 -19609155.43249  16835289.0384   16835293.7554
  18242841.252   -20116069.82649 -15205405.47349  18242841.2394   18242845.2304
  15698764.632   -30794429.54549 -23967724.92249  15698764.5384   15698768.6374
  19120968.748   -13372462.28749 -10130966.25449  19120966.9424   19120973.5704
  18531611.093   -28282240.92249 -22019979.41649  18531609.9444   18531614.7264
  16493248.307   -26029839.391 9 -20258487.676 9  16493247.124    16493250.984
  19632924.964    -5714004.82349  -4433348.32749  19632924.5804   19632932.6674
  15812147.127   -38834138.23449 -29629929.15849  15812146.9704   15812151.2504
 96  5  9  3 33 29.9830000  0  9  3 21 26 23 22  6 28  1 17
  17755216.869   -17243448.75449 -13408331.67149  17755217.6904   17755222.0844
  16822593.883   -25629589.87849 -19661140.57849  16822593.5994   16822598.3094
  18253752.813   -20058727.52549 -15160723.16249  18253753.0764   18253757.0224
  15699156.891   -30792370.00149 -23966120.07149  15699156.3244   15699160.7334
  19129817.618   -13325957.79749 -10094728.99349  19129817.6014   19129823.5504
  18550003.518   -28185590.24449 -21944667.23449  18550002.2944   18550007.4464
  16479594.991   -26101584.536 9 -20314392.966 9  16479594.460    16479598.265
  19609384.899    -5837699.42249  -4529733.54049  19609385.6554   19609393.2314
  15813636.417   -38826311.92549 -29623830.72749  15813636.3644   15813640.5424
 96  5  9  3 33 59.9830000  0  9  3 21 26 23 22  6 28  1 17
  17736712.340   -17340693.70549 -13484106.93049  17736712.5624   17736717.7214
  16809962.573   -25695969.88049 -19712865.21549  16809961.9734   16809966.8094
  18264750.363   -20000932.45249 -15115688.03449  18264751.6844   18264754.8544
  15699622.975   -30789919.70249 -23964210.73249  15699622.8544   15699627.2564
  19138717.934   -13279192.12749 -10058288.19149  19138716.2364   19138722.6964
  18568438.405   -28088717.54749 -21869182.04749  18568437.7024   18568442.4044
  16466038.539   -26172825.494 9 -20369905.385 9  16466037.709    16466041.756
  19585852.336    -5961361.42949  -4626093.34649  19585854.9134   19585860.8974
  15815181.454   -38818194.38449 -29617505.36349  15815181.0794   15815185.2964
 96  5  9  3 34 29.9830000  0  9  3 21 26 23 22  6 28  1 17
  17718277.868   -17437568.04949 -13559593.40749  17718277.9784   17718282.9264
  16797391.246   -25762030.66449 -19764341.11349  16797391.0144   16797395.7304
  18275832.640   -19942697.90349 -15070310.46149  18275833.1894   18275836.1274
  15700158.633   -30787103.84449 -23962016.55249  15700158.5274   15700162.6984
  19147666.517   -13232170.00349 -10021647.59749  19147663.8074   19147671.4464
  18586912.490   -27991625.71949 -21793526.09749  18586912.8554   18586918.9564
  16452576.891   -26243566.401 9 -20425028.155 9  16452576.191    16452580.165
  19562330.029    -6084981.10449  -4722420.16449  19562329.4414   19562336.9484
  15816778.054   -38809802.59349 -29610966.29949  15816777.7114   15816782.2044
 96  5  9  3 34 59.9830000  0  9  3 21 26 23 22  6 28  1 17
  17699909.925   -17534090.57849 -13634805.74649  17699910.2824   17699914.7534
  16784878.171   -25827787.11549 -19815579.87149  16784877.8274   16784882.3804
  18286991.814   -19884053.14649 -15024613.24349  18286992.6504   18286995.1554
  15700753.764   -30783979.39749 -23959581.90549  15700752.8524   15700757.1984
  19156661.425   -13184894.05649  -9984809.21849  19156660.9174   19156666.7284
  18605427.114   -27894329.69049 -21717711.04649  18605428.5284   18605432.9834
  16439207.347   -26313823.431 9 -20479773.876 9  16439206.688    16439210.749
  19538812.778    -6208565.13349  -4818719.21349  19538811.7764   19538821.0234
  15818422.292   -38801159.51649 -29604231.43049  15818422.3594   15818426.8064
 96  5  9  3 35 29.9830000  0  9  3 21 26 23 22  6 28  1 17
  17681613.591   -17630237.92449 -13709725.74249  17681613.7954   17681618.5994
  16772426.362   -25893221.17249 -19866567.40749  16772426.1164   16772431.2614
  18298230.432   -19824996.11149 -14978594.76749  18298230.8384   18298234.2744
  15701404.482   -30780556.40049 -23956914.62249  15701404.2924   15701408.6744
  19165706.688   -13137349.72249  -9947761.69249  19165708.7014   19165715.1734
  18623978.845   -27796836.97549 -21641742.73149  18623979.9204   18623985.9364
  16425932.595   -26383582.626 9 -20534131.672 9  16425931.892    16425936.003
  19515305.479    -6332096.46949  -4914977.17749  19515304.8014   19515313.2394
  15820119.088   -38792243.65749 -29597284.00249  15820119.0944   15820123.3094
 96  5  9  3 35 59.9830000  0  9  3 21 26 23 22  6 28  1 17
  17663389.700   -17726006.13749 -13784350.30749  17663389.8634   17663394.6174
  16760030.006   -25958364.06549 -19917328.07549  16760029.9054   16760034.7764
  18309547.655   -19765522.59449 -14932251.76249  18309547.9864   18309551.6694
  15702110.754   -30776846.47749 -23954023.76649  15702110.2404   15702114.6924
  19174807.117   -13089541.04149  -9910508.17549  19174805.4724   19174813.3024
  18642567.267   -27699165.59849 -21565635.18149  18642566.1904   18642572.3764
  16412752.170   -26452845.434 9 -20588102.672 9  16412751.599    16412755.742
  19491804.126    -6455585.17549  -5011201.95349  19491805.9894   19491813.0664
  15821869.560   -38783044.95749 -29590116.17749  15821869.5294   15821873.8184
 96  5  9  3 36 29.9830000  0  9  3 21 26 23 22  6 28  1 17
  17645243.115   -17821363.24349 -13858654.53249  17645244.3014   17645248.7134
  16747692.320   -26023199.99749 -19967849.54449  16747692.0724   16747696.7564
  18320953.600   -19705588.52449 -14885549.87749  18320952.8954   18320956.7014
  15702877.909   -30772816.95649 -23950883.86949  15702877.2344   15702881.6564
  19183958.156   -13041447.85549  -9873032.98749  19183957.3904   19183964.2114
  18661187.053   -27601306.81549 -21489381.62649  18661187.8434   18661193.7114
  16399671.331   -26521585.340 9 -20641666.215 9  16399670.884    16399674.949
  19468315.503    -6579022.63149  -5107386.79849  19468316.2524   19468323.9854
  15823679.368   -38773537.08749 -29582707.43949  15823678.9734   15823683.3234
 96  5  9  3 36 59.9830000  0  9  3 21 26 23 22  6 28  1 17
  17627167.246   -17916358.56149 -13932676.84649  17627167.1804   17627171.3754
  16735406.284   -26087762.84949 -20018158.22249  16735405.8324   16735410.7444
  18332437.671   -19645234.37449 -14838520.66349  18332438.4174   18332441.4894
  15703699.541   -30768500.48249 -23947520.37449  15703698.4694   15703702.7584
  19193153.129   -12993118.77049  -9835373.99649  19193154.0424   19193160.5934
  18679841.226   -27503286.91849 -21413002.51749  18679841.0354   18679846.4024
  16386682.987   -26589841.002 9 -20694852.429 9  16386682.321    16386686.338
  19444826.732    -6702457.76949  -5203569.83749  19444826.7104   19444833.3464
  15825540.551   -38763753.30749 -29575083.70949  15825540.5844   15825545.0604
 96  5  9  3 37 29.9830000  0  9  3 21 26 23 22  6 28  1 17
  17609161.184   -18010979.96049 -14006407.78749  17609161.0444   17609166.0034
  16723172.809   -26152048.81549 -20068251.13749  16723172.6614   16723177.4694
  18344006.349   -19584441.80649 -14791149.82049  18344007.2004   18344010.7624
  15704581.204   -30763864.60649 -23943907.99549  15704580.5714   15704585.0724
  19202393.180   -12944571.88949  -9797545.28149  19202392.6564   19202399.7214
  18698528.654   -27405085.62049 -21336482.06149  18698527.9554   18698534.1014
  16373788.230   -26657603.769 9 -20747654.571 9  16373787.421    16373791.485
  19421340.354    -6825889.82349  -5299750.47649  19421338.8034   19421346.3944
  15827458.610   -38753673.78149 -29567229.53049  15827458.6444   15827463.1204
 96  5  9  3 37 59.9830000  0  9  3 21 26 23 22  6 28  1 17
  17591229.533   -18105212.75949 -14079835.93249  17591229.6454   17591233.5074
  16710994.906   -26216045.54249 -20118118.68049  16710994.5204   16710999.3604
  18355661.429   -19523194.97749 -14743425.01349  18355661.0864   18355664.6904
  15705528.480   -30758885.86149 -23940028.44549  15705528.1874   15705532.4504
  19211675.473   -12895803.13849  -9759543.69049  19211672.3134   19211679.8434
  18717255.814   -27306672.69349 -21259796.69449  18717255.9884   18717261.1354
  16360989.559   -26724858.492 9 -20800060.834 9  16360989.270    16360993.249
  19397855.780    -6949298.93849  -5395913.24149  19397854.8834   19397861.1114
  15829434.643   -38743289.24149 -29559137.67749  15829434.6534   15829438.7854
 96  5  9  3 38 29.9830000  0  9  3 21 26 23 22  6 28  1 17
  17573369.341   -18199069.00549 -14152970.64749  17573369.1074   17573373.8894
  16698875.323   -26279734.30649 -20167746.24749  16698875.1834   16698879.8944
  18367401.949   -19461498.00849 -14695349.45749  18367402.0444   18367405.3164
  15706541.645   -30753560.90549 -23935879.11949  15706541.4214   15706545.6254
  19220995.419   -12846814.46949  -9721370.73649  19220995.1494   19221002.5784
  18736025.415   -27208029.02649 -21182931.53449  18736026.0874   18736032.5084
  16348290.016   -26791597.386 9 -20852065.155 9  16348289.184    16348293.324
  19374378.851    -7072670.51249  -5492046.77649  19374377.4744   19374385.4944
  15831468.091   -38732603.59749 -29550811.19649  15831468.1554   15831472.3404
 96  5  9  3 38 59.9830000  0  9  3 21 26 23 22  6 28  1 17
  17555577.530   -18292564.74149 -14225824.44349  17555577.2864   17555581.8854
  16686812.128   -26343124.56749 -20217141.23349  16686812.3634   16686816.9214
  18379223.969   -19399367.27049 -14646935.88849  18379225.0834   18379228.5624
  15707620.777   -30747890.76949 -23931460.82149  15707620.3494   15707624.7604
  19230356.277   -12797616.01049  -9683034.32749  19230357.1024   19230365.0954
  18754840.711   -27109159.34949 -21105890.24949  18754841.1344   18754846.5704
  16335687.844   -26857821.229 9 -20903668.133 9  16335687.336    16335691.286
  19350910.226    -7195988.76749  -5588138.75849  19350910.7864   19350918.2754
  15833557.710   -38721624.15649 -29542255.77849  15833557.3344   15833561.8294
 96  5  9  3 39 29.9830000  0  9  3 21 26 23 22  6 28  1 17
  17537853.668   -18385697.38949 -14298395.31449  17537854.8264   17537859.4214
  16674803.222   -26406233.63349 -20266317.11149  16674802.8834   16674807.8474
  18391127.490   -19336819.61449 -14598197.45549  18391127.4934   18391132.0484
  15708762.980   -30741885.33749 -23926781.25549  15708763.2134   15708767.3084
  19239760.938   -12748206.33049  -9644533.31749  19239760.3874   19239766.4884
  18773690.507   -27010106.85549 -21028706.53649  18773690.1024   18773696.0704
  16323182.740   -26923537.050 9 -20954875.255 9  16323182.000    16323185.853
  19327455.508    -7319244.43849  -5684181.97849  19327456.2164   19327462.4534
  15835700.400   -38710363.02349 -29533480.86549  15835700.3874   15835704.9964
 96  5  9  3 39 59.9830000  0  9  3 21 26 23 22  6 28  1 17
  17520197.628   -18478488.78149 -14370700.26449  17520197.3204   17520201.9964
  16662842.902   -26469084.95349 -20315292.13949  16662842.6364   16662847.4924
  18403102.545   -19273891.16749 -14549162.30549  18403102.8194   18403106.4414
  15709961.139   -30735590.98949 -23921876.55749  15709960.9684   15709965.4604
  19249199.281   -12698585.71649  -9605867.96349  19249202.1674   19249208.8074
  18792566.758   -26910912.74249 -20951412.44849  18792565.2364   18792572.6014
  16310770.983   -26988760.488 9 -21005698.698 9  16310770.355    16310774.308
  19304012.173    -7442443.67449  -5780181.21649  19304012.4144   19304019.2084
  15837889.058   -38698861.81149 -29524518.87649  15837889.1224   15837893.2644
 96  5  9  3 40 29.9830000  0  9  3 21 26 23 22  6 28  1 17
  17502607.322   -18570921.03349 -14442725.37049  17502607.6124   17502612.0694
  16650935.449   -26531659.38549 -20364051.40449  16650935.1494   16650939.7434
  18415153.150   -19210564.05849 -14499816.50449  18415152.9894   18415157.5734
  15711215.438   -30729001.21349 -23916741.65549  15711214.9354   15711219.1854
  19258687.863   -12648729.63149  -9567019.10249  19258690.4544   19258697.2774
  18811466.524   -26811586.97649 -20874015.78249  18811467.4284   18811472.2004
  16298455.734   -27053476.770 9 -21056126.959 9  16298455.329    16298459.142
  19280580.599    -7565579.24949  -5876130.85549  19280580.1104   19280586.5024
  15840126.567   -38687104.71849 -29515357.50249  15840126.2924   15840130.8354
 96  5  9  3 40 59.9830000  0  9  3 21 26 23 22  6 28  1 17
  17485093.674   -18662957.73549 -14514442.24949  17485093.7874   17485098.3234
  16639084.211   -26593938.00949 -20412580.16549  16639083.8404   16639088.5724
  18427282.248   -19146827.84149 -14450151.91249  18427281.9724   18427285.1174
  15712527.227   -30722103.47549 -23911366.78449  15712527.5084   15712531.8194
  19268226.141   -12598624.67949  -9527976.31549  19268224.0964   19268230.7674
  18830392.124   -26712139.00649 -20796523.87849  18830391.3964   18830397.5044
  16286240.597   -27117670.197 9 -21106147.801 9  16286239.711    16286243.557
  19257161.400    -7688644.08649  -5972025.38349  19257160.7654   19257168.0274
  15842415.618   -38675073.94449 -29505982.86749  15842415.8144   15842420.0294
 96  5  9  3 41 29.9830000  0  9  3 21 26 23 22  6 28  1 17
  17467657.871   -18754583.30749 -14585838.76949  17467657.7454   17467662.1354
  16627291.164   -26655909.40249 -20460869.52449  16627291.1154   16627295.8604
  18439486.876   -19082684.48449 -14400170.07549  18439487.8994   18439491.7584
  15713898.230   -30714902.76249 -23905755.82349  15713897.6544   15713902.2704
  19277805.545   -12548270.22849  -9488739.11749  19277805.7054   19277813.5174
  18849338.677   -26612565.17449 -20718933.91549  18849339.8094   18849345.7714
  16274125.006   -27181337.179 9 -21155758.420 9  16274124.221    16274128.092
  19233752.432    -7811651.03849  -6067874.80149  19233753.1524   19233760.1974
  15844758.176   -38662763.07949 -29496389.97549  15844758.3814   15844762.7944
 96  5  9  3 41 59.9830000  0  9  3 21 26 23 22  6 28  1 17
  17450295.694   -18845822.02249 -14656933.83849  17450295.7734   17450300.2754
  16615553.750   -26717591.28449 -20508933.29549  16615553.4904   16615558.3694
  18451768.575   -19018148.65349 -14349882.41149  18451768.7484   18451771.2174
  15715322.486   -30707416.99149 -23899922.74549  15715322.2214   15715326.5324
  19287430.737   -12497703.52049  -9449336.53849  19287430.0114   19287435.8754
  18868310.784   -26512873.67049 -20641252.24549  18868311.0744   18868316.1484
  16262106.077   -27244497.626 9 -21204974.341 9  16262105.253    16262109.185
  19210349.002    -7934644.67949  -6163713.86349  19210349.0574   19210354.3214
  15847151.034   -38650190.88849 -29486593.45349  15847150.7894   15847155.1474
 96  5  9  3 42 29.9830000  0  9  3 21 26 23 22  6 28  1 17
  17433013.451   -18936642.44449 -14727702.97449  17433013.1554   17433017.7144
  16603876.638   -26778952.99649 -20556747.57649  16603876.6524   16603881.5184
  18464128.319   -18953193.06349 -14299267.66949  18464129.2234   18464132.6714
  15716810.605   -30699597.62849 -23893829.72549  15716810.0794   15716814.4974
  19297094.554   -12446914.58749  -9409760.77649  19297093.6854   19297101.2164
  18887308.334   -26413036.48149 -20563457.05849  18887308.5764   18887313.2994
  16250187.968   -27307127.528 9 -21253776.849 9  16250187.140    16250191.075
  19186948.219    -8057611.45449  -6259531.97849  19186947.9014   19186955.6404
  15849602.358   -38637309.27849 -29476555.83049  15849602.0424   15849606.5464
 96  5  9  3 42 59.9830000  0  9  3 21 26 23 22  6 28  1 17
  17415809.822   -19027045.76249 -14798147.09449  17415810.1454   17415814.4104
  16592261.373   -26839993.50349 -20604311.57249  16592260.9494   16592265.4204
  18476569.552   -18887823.21649 -14248330.12549  18476569.4514   18476572.5254
  15718363.763   -30691437.04549 -23887470.81849  15718363.0174   15718367.5634
  19306803.079   -12395907.99749  -9370015.40149  19306800.6114   19306806.6654
  18906340.964   -26313022.90749 -20485524.44449  18906341.3354   18906345.9134
  16238372.746   -27369215.440 9 -21302157.019 9  16238372.147    16238376.024
  19163556.823    -8180535.28449  -6355316.63549  19163556.7534   19163563.2074
  15852113.695   -38624111.67149 -29466271.97549  15852113.6384   15852117.8944
 96  5  9  3 43 29.9830000  0  9  3 21 26 23 22  6 28  1 17
  17398680.059   -19117065.35649 -14868292.21549  17398679.9434   17398684.2244
  16580698.547   -26900756.12349 -20651659.02749  16580698.0344   16580702.8524
  18489078.434   -18822080.30349 -14197101.88549  18489079.1344   18489081.9854
  15719971.756   -30682986.14349 -23880885.69049  15719971.4384   15719975.6974
  19316538.028   -12344719.07349  -9330127.96149  19316540.9294   19316548.5864
  18925401.467   -26212855.91349 -20407472.27149  18925402.9144   18925408.7944
  16226654.132   -27430798.273 9 -21350143.624 9  16226653.345    16226657.116
  19140169.291    -8303441.28349  -6451087.41049  19140168.1924   19140174.9784
  15854677.738   -38610637.94049 -29455772.95849  15854677.4384   15854681.6394
 96  5  9  3 43 59.9830000  0  9  3 21 26 23 22  6 28  1 17
  17381626.398   -19206682.14049 -14938123.46249  17381626.2564   17381630.5204
  16569191.533   -26961226.18249 -20698778.51949  16569191.0514   16569195.5714
  18501665.616   -18755942.08049 -14145565.60749  18501665.4744   18501668.9944
  15721636.744   -30674237.79149 -23874068.78649  15721635.9554   15721640.5174
  19326320.202   -12293337.29649  -9290090.23849  19326318.5004   19326326.1534
  18944494.398   -26112521.05549 -20329289.29149  18944495.2264   18944501.9994
  16215035.307   -27491855.260 9 -21397720.481 9  16215034.515    16215038.422
  19116789.398    -8426299.78649  -6546821.16649  19116788.8974   19116795.5564
  15857298.338   -38596866.54749 -29445041.99649  15857298.2004   15857302.6554
 96  5  9  3 44 29.9830000  0  9  3 21 26 23 22  6 28  1 17
  17364652.105   -19295881.70149 -15007629.60249  17364652.2704   17364656.5044
  16557740.291   -27021403.14849 -20745669.62049  16557739.8304   16557744.4654
  18514325.469   -18689409.48649 -14093722.03049  18514325.6364   18514329.2454
  15723358.274   -30665189.08949 -23867017.83749  15723358.1424   15723362.2034
  19336135.453   -12241758.91749  -9249899.33049  19336133.6694   19336140.3054
  18963621.520   -26012006.26049 -20250966.09349  18963622.9064   18963626.9934
  16203518.582   -27552375.988 9 -21444879.471 9  16203517.946    16203521.701
  19093423.546    -8549091.81749  -6642503.13149  19093422.3624   19093429.5494
  15859975.528   -38582798.51949 -29434079.88649  15859975.1964   15859979.5504
